<?xml version="1.0" encoding="UTF-8" standalone="no" ?>
<gpx xmlns="http://www.topografix.com/GPX/1/1" xmlns:xsi="http://www.w3.org/2001/XMLSchema-instance" xsi:schemaLocation="http://www.topografix.com/GPX/1/1 http://www.topografix.com/GPX/1/1/gpx.xsd" version="1.1" creator="VisuGPX - https://www.visugpx.com">
  <metadata>
    <name>GR6 étp 62 (30)-27/07/2020 Sauveterre de Guyenne La Réole</name>
  </metadata>
  <trk>
    <name><![CDATA[30-27/07/2020 Sauveterre de Guyenne La Réole]]></name>
    <trkseg>
      <trkpt lat="44.7143" lon="-0.08037">
        <ele>68.39</ele>
        <time>2020-07-27T06:45:57Z</time>
      </trkpt>
      <trkpt lat="44.71429" lon="-0.08036">
        <ele>69.83</ele>
        <time>2020-07-27T06:46:00Z</time>
      </trkpt>
      <trkpt lat="44.71429" lon="-0.08036">
        <ele>68.39</ele>
        <time>2020-07-27T06:46:01Z</time>
      </trkpt>
      <trkpt lat="44.71433" lon="-0.08038">
        <ele>67.91</ele>
        <time>2020-07-27T06:46:15Z</time>
      </trkpt>
      <trkpt lat="44.71428" lon="-0.08041">
        <ele>68.39</ele>
        <time>2020-07-27T06:46:33Z</time>
      </trkpt>
      <trkpt lat="44.71426" lon="-0.08043">
        <ele>68.39</ele>
        <time>2020-07-27T06:47:01Z</time>
      </trkpt>
      <trkpt lat="44.71427" lon="-0.08041">
        <ele>67.91</ele>
        <time>2020-07-27T06:47:27Z</time>
      </trkpt>
      <trkpt lat="44.71423" lon="-0.08044">
        <ele>67.91</ele>
        <time>2020-07-27T06:47:51Z</time>
      </trkpt>
      <trkpt lat="44.71413" lon="-0.08033">
        <ele>67.91</ele>
        <time>2020-07-27T06:48:10Z</time>
      </trkpt>
      <trkpt lat="44.71408" lon="-0.08038">
        <ele>67.91</ele>
        <time>2020-07-27T06:48:33Z</time>
      </trkpt>
      <trkpt lat="44.71397" lon="-0.08054">
        <ele>67.43</ele>
        <time>2020-07-27T06:48:48Z</time>
      </trkpt>
      <trkpt lat="44.71395" lon="-0.08056">
        <ele>66.95</ele>
        <time>2020-07-27T06:48:50Z</time>
      </trkpt>
      <trkpt lat="44.71383" lon="-0.08073">
        <ele>66.95</ele>
        <time>2020-07-27T06:49:09Z</time>
      </trkpt>
      <trkpt lat="44.71373" lon="-0.08085">
        <ele>65.99</ele>
        <time>2020-07-27T06:49:27Z</time>
      </trkpt>
      <trkpt lat="44.71357" lon="-0.08101">
        <ele>65.03</ele>
        <time>2020-07-27T06:49:47Z</time>
      </trkpt>
      <trkpt lat="44.71337" lon="-0.08122">
        <ele>63.58</ele>
        <time>2020-07-27T06:50:09Z</time>
      </trkpt>
      <trkpt lat="44.71313" lon="-0.08152">
        <ele>61.66</ele>
        <time>2020-07-27T06:50:31Z</time>
      </trkpt>
      <trkpt lat="44.7129" lon="-0.08159">
        <ele>61.18</ele>
        <time>2020-07-27T06:50:50Z</time>
      </trkpt>
      <trkpt lat="44.71274" lon="-0.08151">
        <ele>61.66</ele>
        <time>2020-07-27T06:51:10Z</time>
      </trkpt>
      <trkpt lat="44.71266" lon="-0.08148">
        <ele>61.18</ele>
        <time>2020-07-27T06:51:30Z</time>
      </trkpt>
      <trkpt lat="44.71242" lon="-0.08126">
        <ele>60.22</ele>
        <time>2020-07-27T06:51:53Z</time>
      </trkpt>
      <trkpt lat="44.71233" lon="-0.08119">
        <ele>61.66</ele>
        <time>2020-07-27T06:51:59Z</time>
      </trkpt>
      <trkpt lat="44.71204" lon="-0.08109">
        <ele>61.66</ele>
        <time>2020-07-27T06:52:22Z</time>
      </trkpt>
      <trkpt lat="44.71183" lon="-0.08102">
        <ele>62.62</ele>
        <time>2020-07-27T06:52:38Z</time>
      </trkpt>
      <trkpt lat="44.71175" lon="-0.08096">
        <ele>62.62</ele>
        <time>2020-07-27T06:52:45Z</time>
      </trkpt>
      <trkpt lat="44.71154" lon="-0.08076">
        <ele>62.14</ele>
        <time>2020-07-27T06:53:06Z</time>
      </trkpt>
      <trkpt lat="44.71135" lon="-0.08061">
        <ele>62.62</ele>
        <time>2020-07-27T06:53:25Z</time>
      </trkpt>
      <trkpt lat="44.71122" lon="-0.08041">
        <ele>63.58</ele>
        <time>2020-07-27T06:53:41Z</time>
      </trkpt>
      <trkpt lat="44.71104" lon="-0.0802">
        <ele>64.07</ele>
        <time>2020-07-27T06:53:59Z</time>
      </trkpt>
      <trkpt lat="44.71085" lon="-0.07997">
        <ele>64.55</ele>
        <time>2020-07-27T06:54:21Z</time>
      </trkpt>
      <trkpt lat="44.71076" lon="-0.0799">
        <ele>64.55</ele>
        <time>2020-07-27T06:54:43Z</time>
      </trkpt>
      <trkpt lat="44.71067" lon="-0.07984">
        <ele>64.55</ele>
        <time>2020-07-27T06:54:50Z</time>
      </trkpt>
      <trkpt lat="44.71049" lon="-0.07968">
        <ele>63.1</ele>
        <time>2020-07-27T06:55:06Z</time>
      </trkpt>
      <trkpt lat="44.71032" lon="-0.07959">
        <ele>64.07</ele>
        <time>2020-07-27T06:55:20Z</time>
      </trkpt>
      <trkpt lat="44.7101" lon="-0.07948">
        <ele>62.14</ele>
        <time>2020-07-27T06:55:39Z</time>
      </trkpt>
      <trkpt lat="44.70995" lon="-0.07943">
        <ele>62.62</ele>
        <time>2020-07-27T06:55:56Z</time>
      </trkpt>
      <trkpt lat="44.70986" lon="-0.07938">
        <ele>61.66</ele>
        <time>2020-07-27T06:56:05Z</time>
      </trkpt>
      <trkpt lat="44.70981" lon="-0.07935">
        <ele>62.14</ele>
        <time>2020-07-27T06:56:09Z</time>
      </trkpt>
      <trkpt lat="44.7098" lon="-0.07935">
        <ele>60.7</ele>
        <time>2020-07-27T06:56:10Z</time>
      </trkpt>
      <trkpt lat="44.70954" lon="-0.07926">
        <ele>60.22</ele>
        <time>2020-07-27T06:56:31Z</time>
      </trkpt>
      <trkpt lat="44.70934" lon="-0.07925">
        <ele>61.18</ele>
        <time>2020-07-27T06:56:47Z</time>
      </trkpt>
      <trkpt lat="44.7093" lon="-0.07929">
        <ele>59.74</ele>
        <time>2020-07-27T06:56:51Z</time>
      </trkpt>
      <trkpt lat="44.7093" lon="-0.07931">
        <ele>59.26</ele>
        <time>2020-07-27T06:57:06Z</time>
      </trkpt>
      <trkpt lat="44.7092" lon="-0.07923">
        <ele>59.26</ele>
        <time>2020-07-27T06:57:30Z</time>
      </trkpt>
      <trkpt lat="44.70915" lon="-0.07921">
        <ele>60.7</ele>
        <time>2020-07-27T06:57:33Z</time>
      </trkpt>
      <trkpt lat="44.70902" lon="-0.07918">
        <ele>60.7</ele>
        <time>2020-07-27T06:57:43Z</time>
      </trkpt>
      <trkpt lat="44.70892" lon="-0.07917">
        <ele>58.3</ele>
        <time>2020-07-27T06:57:52Z</time>
      </trkpt>
      <trkpt lat="44.70889" lon="-0.07917">
        <ele>60.22</ele>
        <time>2020-07-27T06:57:54Z</time>
      </trkpt>
      <trkpt lat="44.7088" lon="-0.07915">
        <ele>60.22</ele>
        <time>2020-07-27T06:58:01Z</time>
      </trkpt>
      <trkpt lat="44.7086" lon="-0.0791">
        <ele>58.3</ele>
        <time>2020-07-27T06:58:16Z</time>
      </trkpt>
      <trkpt lat="44.70848" lon="-0.07906">
        <ele>59.74</ele>
        <time>2020-07-27T06:58:25Z</time>
      </trkpt>
      <trkpt lat="44.70829" lon="-0.07901">
        <ele>58.3</ele>
        <time>2020-07-27T06:58:39Z</time>
      </trkpt>
      <trkpt lat="44.70824" lon="-0.07899">
        <ele>59.74</ele>
        <time>2020-07-27T06:58:42Z</time>
      </trkpt>
      <trkpt lat="44.70819" lon="-0.07896">
        <ele>58.3</ele>
        <time>2020-07-27T06:58:46Z</time>
      </trkpt>
      <trkpt lat="44.70817" lon="-0.07894">
        <ele>59.26</ele>
        <time>2020-07-27T06:58:48Z</time>
      </trkpt>
      <trkpt lat="44.70816" lon="-0.07884">
        <ele>59.26</ele>
        <time>2020-07-27T06:59:03Z</time>
      </trkpt>
      <trkpt lat="44.7081" lon="-0.07887">
        <ele>59.74</ele>
        <time>2020-07-27T06:59:19Z</time>
      </trkpt>
      <trkpt lat="44.708" lon="-0.07877">
        <ele>59.26</ele>
        <time>2020-07-27T06:59:37Z</time>
      </trkpt>
      <trkpt lat="44.70792" lon="-0.07876">
        <ele>60.22</ele>
        <time>2020-07-27T06:59:47Z</time>
      </trkpt>
      <trkpt lat="44.70776" lon="-0.07876">
        <ele>59.26</ele>
        <time>2020-07-27T07:00:01Z</time>
      </trkpt>
      <trkpt lat="44.70767" lon="-0.07872">
        <ele>59.74</ele>
        <time>2020-07-27T07:00:10Z</time>
      </trkpt>
      <trkpt lat="44.70762" lon="-0.0787">
        <ele>57.82</ele>
        <time>2020-07-27T07:00:14Z</time>
      </trkpt>
      <trkpt lat="44.70756" lon="-0.07868">
        <ele>59.74</ele>
        <time>2020-07-27T07:00:18Z</time>
      </trkpt>
      <trkpt lat="44.70731" lon="-0.07862">
        <ele>57.82</ele>
        <time>2020-07-27T07:00:38Z</time>
      </trkpt>
      <trkpt lat="44.70712" lon="-0.07859">
        <ele>56.86</ele>
        <time>2020-07-27T07:00:54Z</time>
      </trkpt>
      <trkpt lat="44.70708" lon="-0.07858">
        <ele>58.3</ele>
        <time>2020-07-27T07:00:57Z</time>
      </trkpt>
      <trkpt lat="44.70693" lon="-0.07859">
        <ele>56.37</ele>
        <time>2020-07-27T07:01:07Z</time>
      </trkpt>
      <trkpt lat="44.70669" lon="-0.07857">
        <ele>55.41</ele>
        <time>2020-07-27T07:01:23Z</time>
      </trkpt>
      <trkpt lat="44.70643" lon="-0.07853">
        <ele>54.93</ele>
        <time>2020-07-27T07:01:42Z</time>
      </trkpt>
      <trkpt lat="44.70618" lon="-0.07847">
        <ele>53.97</ele>
        <time>2020-07-27T07:02:01Z</time>
      </trkpt>
      <trkpt lat="44.70599" lon="-0.07841">
        <ele>54.45</ele>
        <time>2020-07-27T07:02:15Z</time>
      </trkpt>
      <trkpt lat="44.70582" lon="-0.07828">
        <ele>53.01</ele>
        <time>2020-07-27T07:02:28Z</time>
      </trkpt>
      <trkpt lat="44.7058" lon="-0.07827">
        <ele>54.45</ele>
        <time>2020-07-27T07:02:30Z</time>
      </trkpt>
      <trkpt lat="44.70576" lon="-0.07823">
        <ele>53.01</ele>
        <time>2020-07-27T07:02:34Z</time>
      </trkpt>
      <trkpt lat="44.70569" lon="-0.07816">
        <ele>54.45</ele>
        <time>2020-07-27T07:02:40Z</time>
      </trkpt>
      <trkpt lat="44.70543" lon="-0.07796">
        <ele>52.53</ele>
        <time>2020-07-27T07:03:02Z</time>
      </trkpt>
      <trkpt lat="44.70532" lon="-0.07788">
        <ele>53.01</ele>
        <time>2020-07-27T07:03:10Z</time>
      </trkpt>
      <trkpt lat="44.70529" lon="-0.07787">
        <ele>54.45</ele>
        <time>2020-07-27T07:03:12Z</time>
      </trkpt>
      <trkpt lat="44.70524" lon="-0.07784">
        <ele>54.45</ele>
        <time>2020-07-27T07:03:16Z</time>
      </trkpt>
      <trkpt lat="44.7051" lon="-0.07774">
        <ele>53.01</ele>
        <time>2020-07-27T07:03:29Z</time>
      </trkpt>
      <trkpt lat="44.70505" lon="-0.07771">
        <ele>54.45</ele>
        <time>2020-07-27T07:03:33Z</time>
      </trkpt>
      <trkpt lat="44.705" lon="-0.07767">
        <ele>54.45</ele>
        <time>2020-07-27T07:03:38Z</time>
      </trkpt>
      <trkpt lat="44.70489" lon="-0.07764">
        <ele>53.01</ele>
        <time>2020-07-27T07:03:46Z</time>
      </trkpt>
      <trkpt lat="44.70483" lon="-0.07762">
        <ele>54.45</ele>
        <time>2020-07-27T07:03:50Z</time>
      </trkpt>
      <trkpt lat="44.70452" lon="-0.07745">
        <ele>54.45</ele>
        <time>2020-07-27T07:04:13Z</time>
      </trkpt>
      <trkpt lat="44.70439" lon="-0.07739">
        <ele>53.49</ele>
        <time>2020-07-27T07:04:23Z</time>
      </trkpt>
      <trkpt lat="44.70437" lon="-0.07739">
        <ele>54.93</ele>
        <time>2020-07-27T07:04:25Z</time>
      </trkpt>
      <trkpt lat="44.70421" lon="-0.07728">
        <ele>55.41</ele>
        <time>2020-07-27T07:04:40Z</time>
      </trkpt>
      <trkpt lat="44.70395" lon="-0.07717">
        <ele>55.89</ele>
        <time>2020-07-27T07:05:02Z</time>
      </trkpt>
      <trkpt lat="44.70373" lon="-0.0771">
        <ele>54.45</ele>
        <time>2020-07-27T07:05:21Z</time>
      </trkpt>
      <trkpt lat="44.70366" lon="-0.07708">
        <ele>55.41</ele>
        <time>2020-07-27T07:05:25Z</time>
      </trkpt>
      <trkpt lat="44.70338" lon="-0.077">
        <ele>54.45</ele>
        <time>2020-07-27T07:05:46Z</time>
      </trkpt>
      <trkpt lat="44.70315" lon="-0.07687">
        <ele>55.89</ele>
        <time>2020-07-27T07:06:08Z</time>
      </trkpt>
      <trkpt lat="44.70308" lon="-0.07682">
        <ele>54.45</ele>
        <time>2020-07-27T07:06:14Z</time>
      </trkpt>
      <trkpt lat="44.70286" lon="-0.07662">
        <ele>55.41</ele>
        <time>2020-07-27T07:06:34Z</time>
      </trkpt>
      <trkpt lat="44.70264" lon="-0.07648">
        <ele>54.93</ele>
        <time>2020-07-27T07:06:53Z</time>
      </trkpt>
      <trkpt lat="44.70259" lon="-0.07645">
        <ele>54.93</ele>
        <time>2020-07-27T07:07:00Z</time>
      </trkpt>
      <trkpt lat="44.70261" lon="-0.07652">
        <ele>54.93</ele>
        <time>2020-07-27T07:07:04Z</time>
      </trkpt>
      <trkpt lat="44.70261" lon="-0.07664">
        <ele>53.49</ele>
        <time>2020-07-27T07:07:14Z</time>
      </trkpt>
      <trkpt lat="44.70258" lon="-0.07673">
        <ele>52.53</ele>
        <time>2020-07-27T07:07:20Z</time>
      </trkpt>
      <trkpt lat="44.7025" lon="-0.07703">
        <ele>50.13</ele>
        <time>2020-07-27T07:07:38Z</time>
      </trkpt>
      <trkpt lat="44.70249" lon="-0.07723">
        <ele>50.13</ele>
        <time>2020-07-27T07:07:48Z</time>
      </trkpt>
      <trkpt lat="44.70256" lon="-0.07747">
        <ele>50.13</ele>
        <time>2020-07-27T07:08:06Z</time>
      </trkpt>
      <trkpt lat="44.70259" lon="-0.07786">
        <ele>51.57</ele>
        <time>2020-07-27T07:08:25Z</time>
      </trkpt>
      <trkpt lat="44.70264" lon="-0.07823">
        <ele>53.01</ele>
        <time>2020-07-27T07:08:48Z</time>
      </trkpt>
      <trkpt lat="44.70268" lon="-0.07852">
        <ele>54.45</ele>
        <time>2020-07-27T07:09:07Z</time>
      </trkpt>
      <trkpt lat="44.70267" lon="-0.07877">
        <ele>56.37</ele>
        <time>2020-07-27T07:09:23Z</time>
      </trkpt>
      <trkpt lat="44.7027" lon="-0.07904">
        <ele>57.82</ele>
        <time>2020-07-27T07:09:43Z</time>
      </trkpt>
      <trkpt lat="44.70271" lon="-0.07931">
        <ele>60.22</ele>
        <time>2020-07-27T07:10:03Z</time>
      </trkpt>
      <trkpt lat="44.70274" lon="-0.07963">
        <ele>61.66</ele>
        <time>2020-07-27T07:10:23Z</time>
      </trkpt>
      <trkpt lat="44.70273" lon="-0.07999">
        <ele>62.62</ele>
        <time>2020-07-27T07:10:45Z</time>
      </trkpt>
      <trkpt lat="44.70276" lon="-0.08034">
        <ele>64.07</ele>
        <time>2020-07-27T07:11:07Z</time>
      </trkpt>
      <trkpt lat="44.70275" lon="-0.08061">
        <ele>65.51</ele>
        <time>2020-07-27T07:11:27Z</time>
      </trkpt>
      <trkpt lat="44.70274" lon="-0.08093">
        <ele>67.43</ele>
        <time>2020-07-27T07:11:48Z</time>
      </trkpt>
      <trkpt lat="44.70273" lon="-0.08122">
        <ele>68.87</ele>
        <time>2020-07-27T07:12:07Z</time>
      </trkpt>
      <trkpt lat="44.70274" lon="-0.08154">
        <ele>70.31</ele>
        <time>2020-07-27T07:12:28Z</time>
      </trkpt>
      <trkpt lat="44.70273" lon="-0.08178">
        <ele>72.72</ele>
        <time>2020-07-27T07:12:47Z</time>
      </trkpt>
      <trkpt lat="44.70273" lon="-0.08202">
        <ele>74.16</ele>
        <time>2020-07-27T07:13:06Z</time>
      </trkpt>
      <trkpt lat="44.70273" lon="-0.08234">
        <ele>77.04</ele>
        <time>2020-07-27T07:13:29Z</time>
      </trkpt>
      <trkpt lat="44.7027" lon="-0.0826">
        <ele>78.48</ele>
        <time>2020-07-27T07:13:48Z</time>
      </trkpt>
      <trkpt lat="44.7027" lon="-0.08288">
        <ele>80.41</ele>
        <time>2020-07-27T07:14:06Z</time>
      </trkpt>
      <trkpt lat="44.70268" lon="-0.08293">
        <ele>80.41</ele>
        <time>2020-07-27T07:14:26Z</time>
      </trkpt>
      <trkpt lat="44.70267" lon="-0.08299">
        <ele>80.89</ele>
        <time>2020-07-27T07:14:30Z</time>
      </trkpt>
      <trkpt lat="44.70264" lon="-0.0833">
        <ele>80.89</ele>
        <time>2020-07-27T07:14:48Z</time>
      </trkpt>
      <trkpt lat="44.7026" lon="-0.08362">
        <ele>80.89</ele>
        <time>2020-07-27T07:15:08Z</time>
      </trkpt>
      <trkpt lat="44.70251" lon="-0.08388">
        <ele>81.37</ele>
        <time>2020-07-27T07:15:26Z</time>
      </trkpt>
      <trkpt lat="44.70238" lon="-0.08409">
        <ele>80.89</ele>
        <time>2020-07-27T07:15:44Z</time>
      </trkpt>
      <trkpt lat="44.70235" lon="-0.08413">
        <ele>82.33</ele>
        <time>2020-07-27T07:15:47Z</time>
      </trkpt>
      <trkpt lat="44.70228" lon="-0.08422">
        <ele>82.81</ele>
        <time>2020-07-27T07:15:55Z</time>
      </trkpt>
      <trkpt lat="44.70215" lon="-0.08439">
        <ele>83.29</ele>
        <time>2020-07-27T07:16:11Z</time>
      </trkpt>
      <trkpt lat="44.70196" lon="-0.08461">
        <ele>83.29</ele>
        <time>2020-07-27T07:16:32Z</time>
      </trkpt>
      <trkpt lat="44.70182" lon="-0.0848">
        <ele>82.81</ele>
        <time>2020-07-27T07:16:49Z</time>
      </trkpt>
      <trkpt lat="44.70164" lon="-0.08503">
        <ele>84.25</ele>
        <time>2020-07-27T07:17:08Z</time>
      </trkpt>
      <trkpt lat="44.70162" lon="-0.08505">
        <ele>84.25</ele>
        <time>2020-07-27T07:17:11Z</time>
      </trkpt>
      <trkpt lat="44.70147" lon="-0.08525">
        <ele>85.21</ele>
        <time>2020-07-27T07:17:27Z</time>
      </trkpt>
      <trkpt lat="44.70139" lon="-0.08535">
        <ele>85.69</ele>
        <time>2020-07-27T07:17:38Z</time>
      </trkpt>
      <trkpt lat="44.7013" lon="-0.08547">
        <ele>84.73</ele>
        <time>2020-07-27T07:17:48Z</time>
      </trkpt>
      <trkpt lat="44.70112" lon="-0.08569">
        <ele>86.18</ele>
        <time>2020-07-27T07:18:09Z</time>
      </trkpt>
      <trkpt lat="44.70096" lon="-0.0859">
        <ele>86.66</ele>
        <time>2020-07-27T07:18:27Z</time>
      </trkpt>
      <trkpt lat="44.70091" lon="-0.08595">
        <ele>85.69</ele>
        <time>2020-07-27T07:18:34Z</time>
      </trkpt>
      <trkpt lat="44.70088" lon="-0.08599">
        <ele>87.14</ele>
        <time>2020-07-27T07:18:38Z</time>
      </trkpt>
      <trkpt lat="44.70082" lon="-0.08606">
        <ele>87.62</ele>
        <time>2020-07-27T07:18:44Z</time>
      </trkpt>
      <trkpt lat="44.70067" lon="-0.08633">
        <ele>88.1</ele>
        <time>2020-07-27T07:19:02Z</time>
      </trkpt>
      <trkpt lat="44.70065" lon="-0.0864">
        <ele>88.1</ele>
        <time>2020-07-27T07:19:07Z</time>
      </trkpt>
      <trkpt lat="44.70063" lon="-0.08644">
        <ele>88.58</ele>
        <time>2020-07-27T07:19:23Z</time>
      </trkpt>
      <trkpt lat="44.70062" lon="-0.08666">
        <ele>88.58</ele>
        <time>2020-07-27T07:19:38Z</time>
      </trkpt>
      <trkpt lat="44.70064" lon="-0.08703">
        <ele>89.06</ele>
        <time>2020-07-27T07:19:59Z</time>
      </trkpt>
      <trkpt lat="44.70064" lon="-0.08723">
        <ele>90.02</ele>
        <time>2020-07-27T07:20:16Z</time>
      </trkpt>
      <trkpt lat="44.70063" lon="-0.08744">
        <ele>90.98</ele>
        <time>2020-07-27T07:20:31Z</time>
      </trkpt>
      <trkpt lat="44.70062" lon="-0.08773">
        <ele>91.46</ele>
        <time>2020-07-27T07:20:49Z</time>
      </trkpt>
      <trkpt lat="44.7006" lon="-0.08799">
        <ele>92.42</ele>
        <time>2020-07-27T07:21:05Z</time>
      </trkpt>
      <trkpt lat="44.70059" lon="-0.08804">
        <ele>92.9</ele>
        <time>2020-07-27T07:21:09Z</time>
      </trkpt>
      <trkpt lat="44.70051" lon="-0.08811">
        <ele>93.87</ele>
        <time>2020-07-27T07:21:24Z</time>
      </trkpt>
      <trkpt lat="44.70046" lon="-0.0881">
        <ele>94.35</ele>
        <time>2020-07-27T07:21:28Z</time>
      </trkpt>
      <trkpt lat="44.70044" lon="-0.08809">
        <ele>93.39</ele>
        <time>2020-07-27T07:21:30Z</time>
      </trkpt>
      <trkpt lat="44.70041" lon="-0.08809">
        <ele>94.35</ele>
        <time>2020-07-27T07:21:32Z</time>
      </trkpt>
      <trkpt lat="44.70018" lon="-0.08807">
        <ele>93.87</ele>
        <time>2020-07-27T07:21:51Z</time>
      </trkpt>
      <trkpt lat="44.69997" lon="-0.08808">
        <ele>93.87</ele>
        <time>2020-07-27T07:22:05Z</time>
      </trkpt>
      <trkpt lat="44.69996" lon="-0.08807">
        <ele>95.31</ele>
        <time>2020-07-27T07:22:07Z</time>
      </trkpt>
      <trkpt lat="44.69973" lon="-0.08808">
        <ele>95.31</ele>
        <time>2020-07-27T07:22:27Z</time>
      </trkpt>
      <trkpt lat="44.69955" lon="-0.0881">
        <ele>95.79</ele>
        <time>2020-07-27T07:22:42Z</time>
      </trkpt>
      <trkpt lat="44.69952" lon="-0.08812">
        <ele>93.87</ele>
        <time>2020-07-27T07:22:45Z</time>
      </trkpt>
      <trkpt lat="44.69927" lon="-0.08823">
        <ele>93.87</ele>
        <time>2020-07-27T07:23:03Z</time>
      </trkpt>
      <trkpt lat="44.69921" lon="-0.08823">
        <ele>93.39</ele>
        <time>2020-07-27T07:23:08Z</time>
      </trkpt>
      <trkpt lat="44.69917" lon="-0.08823">
        <ele>94.83</ele>
        <time>2020-07-27T07:23:11Z</time>
      </trkpt>
      <trkpt lat="44.6991" lon="-0.08831">
        <ele>94.83</ele>
        <time>2020-07-27T07:23:22Z</time>
      </trkpt>
      <trkpt lat="44.69911" lon="-0.08834">
        <ele>94.83</ele>
        <time>2020-07-27T07:23:47Z</time>
      </trkpt>
      <trkpt lat="44.69915" lon="-0.08826">
        <ele>93.39</ele>
        <time>2020-07-27T07:23:58Z</time>
      </trkpt>
      <trkpt lat="44.69902" lon="-0.08816">
        <ele>93.87</ele>
        <time>2020-07-27T07:24:10Z</time>
      </trkpt>
      <trkpt lat="44.69871" lon="-0.08816">
        <ele>94.83</ele>
        <time>2020-07-27T07:24:33Z</time>
      </trkpt>
      <trkpt lat="44.69867" lon="-0.08817">
        <ele>93.87</ele>
        <time>2020-07-27T07:24:37Z</time>
      </trkpt>
      <trkpt lat="44.69861" lon="-0.08824">
        <ele>94.83</ele>
        <time>2020-07-27T07:24:44Z</time>
      </trkpt>
      <trkpt lat="44.6985" lon="-0.08824">
        <ele>92.9</ele>
        <time>2020-07-27T07:24:53Z</time>
      </trkpt>
      <trkpt lat="44.69847" lon="-0.08824">
        <ele>94.83</ele>
        <time>2020-07-27T07:24:55Z</time>
      </trkpt>
      <trkpt lat="44.69845" lon="-0.08824">
        <ele>93.39</ele>
        <time>2020-07-27T07:24:58Z</time>
      </trkpt>
      <trkpt lat="44.69842" lon="-0.08825">
        <ele>94.83</ele>
        <time>2020-07-27T07:25:01Z</time>
      </trkpt>
      <trkpt lat="44.69837" lon="-0.08825">
        <ele>92.9</ele>
        <time>2020-07-27T07:25:05Z</time>
      </trkpt>
      <trkpt lat="44.69808" lon="-0.08831">
        <ele>92.42</ele>
        <time>2020-07-27T07:25:27Z</time>
      </trkpt>
      <trkpt lat="44.6979" lon="-0.08835">
        <ele>90.98</ele>
        <time>2020-07-27T07:25:43Z</time>
      </trkpt>
      <trkpt lat="44.69785" lon="-0.08842">
        <ele>90.02</ele>
        <time>2020-07-27T07:25:50Z</time>
      </trkpt>
      <trkpt lat="44.69786" lon="-0.08848">
        <ele>91.46</ele>
        <time>2020-07-27T07:25:54Z</time>
      </trkpt>
      <trkpt lat="44.69786" lon="-0.08848">
        <ele>91.46</ele>
        <time>2020-07-27T07:25:55Z</time>
      </trkpt>
      <trkpt lat="44.69789" lon="-0.08852">
        <ele>89.54</ele>
        <time>2020-07-27T07:25:59Z</time>
      </trkpt>
      <trkpt lat="44.69791" lon="-0.08854">
        <ele>89.54</ele>
        <time>2020-07-27T07:26:02Z</time>
      </trkpt>
      <trkpt lat="44.69796" lon="-0.08862">
        <ele>89.54</ele>
        <time>2020-07-27T07:26:08Z</time>
      </trkpt>
      <trkpt lat="44.69813" lon="-0.08874">
        <ele>90.02</ele>
        <time>2020-07-27T07:26:24Z</time>
      </trkpt>
      <trkpt lat="44.69816" lon="-0.08877">
        <ele>90.02</ele>
        <time>2020-07-27T07:26:27Z</time>
      </trkpt>
      <trkpt lat="44.69825" lon="-0.08882">
        <ele>90.02</ele>
        <time>2020-07-27T07:26:35Z</time>
      </trkpt>
      <trkpt lat="44.69835" lon="-0.08888">
        <ele>90.02</ele>
        <time>2020-07-27T07:26:48Z</time>
      </trkpt>
      <trkpt lat="44.69833" lon="-0.08893">
        <ele>90.02</ele>
        <time>2020-07-27T07:27:13Z</time>
      </trkpt>
      <trkpt lat="44.69825" lon="-0.08903">
        <ele>89.54</ele>
        <time>2020-07-27T07:27:37Z</time>
      </trkpt>
      <trkpt lat="44.69823" lon="-0.08897">
        <ele>89.54</ele>
        <time>2020-07-27T07:28:00Z</time>
      </trkpt>
      <trkpt lat="44.69816" lon="-0.08891">
        <ele>89.54</ele>
        <time>2020-07-27T07:28:21Z</time>
      </trkpt>
      <trkpt lat="44.69817" lon="-0.08888">
        <ele>88.58</ele>
        <time>2020-07-27T07:28:49Z</time>
      </trkpt>
      <trkpt lat="44.69815" lon="-0.08888">
        <ele>88.58</ele>
        <time>2020-07-27T07:29:21Z</time>
      </trkpt>
      <trkpt lat="44.69817" lon="-0.08922">
        <ele>88.58</ele>
        <time>2020-07-27T07:29:47Z</time>
      </trkpt>
      <trkpt lat="44.69815" lon="-0.08926">
        <ele>88.58</ele>
        <time>2020-07-27T07:30:16Z</time>
      </trkpt>
      <trkpt lat="44.69812" lon="-0.08922">
        <ele>88.58</ele>
        <time>2020-07-27T07:30:47Z</time>
      </trkpt>
      <trkpt lat="44.69811" lon="-0.08912">
        <ele>88.1</ele>
        <time>2020-07-27T07:31:13Z</time>
      </trkpt>
      <trkpt lat="44.69803" lon="-0.08909">
        <ele>88.1</ele>
        <time>2020-07-27T07:31:45Z</time>
      </trkpt>
      <trkpt lat="44.69809" lon="-0.08914">
        <ele>88.1</ele>
        <time>2020-07-27T07:32:08Z</time>
      </trkpt>
      <trkpt lat="44.69814" lon="-0.08909">
        <ele>88.1</ele>
        <time>2020-07-27T07:32:40Z</time>
      </trkpt>
      <trkpt lat="44.69812" lon="-0.08906">
        <ele>88.1</ele>
        <time>2020-07-27T07:33:10Z</time>
      </trkpt>
      <trkpt lat="44.69811" lon="-0.08903">
        <ele>88.58</ele>
        <time>2020-07-27T07:33:37Z</time>
      </trkpt>
      <trkpt lat="44.69814" lon="-0.0889">
        <ele>88.58</ele>
        <time>2020-07-27T07:34:04Z</time>
      </trkpt>
      <trkpt lat="44.69815" lon="-0.08886">
        <ele>89.06</ele>
        <time>2020-07-27T07:34:38Z</time>
      </trkpt>
      <trkpt lat="44.69826" lon="-0.08896">
        <ele>89.06</ele>
        <time>2020-07-27T07:35:09Z</time>
      </trkpt>
      <trkpt lat="44.69821" lon="-0.08911">
        <ele>89.54</ele>
        <time>2020-07-27T07:35:42Z</time>
      </trkpt>
      <trkpt lat="44.69825" lon="-0.08918">
        <ele>89.54</ele>
        <time>2020-07-27T07:36:17Z</time>
      </trkpt>
      <trkpt lat="44.69816" lon="-0.08921">
        <ele>90.02</ele>
        <time>2020-07-27T07:36:44Z</time>
      </trkpt>
      <trkpt lat="44.69807" lon="-0.08913">
        <ele>90.02</ele>
        <time>2020-07-27T07:37:07Z</time>
      </trkpt>
      <trkpt lat="44.69817" lon="-0.089">
        <ele>90.5</ele>
        <time>2020-07-27T07:37:39Z</time>
      </trkpt>
      <trkpt lat="44.69817" lon="-0.08896">
        <ele>90.5</ele>
        <time>2020-07-27T07:38:06Z</time>
      </trkpt>
      <trkpt lat="44.69826" lon="-0.08906">
        <ele>90.5</ele>
        <time>2020-07-27T07:38:36Z</time>
      </trkpt>
      <trkpt lat="44.69808" lon="-0.08892">
        <ele>91.46</ele>
        <time>2020-07-27T07:38:56Z</time>
      </trkpt>
      <trkpt lat="44.69802" lon="-0.08896">
        <ele>91.46</ele>
        <time>2020-07-27T07:39:25Z</time>
      </trkpt>
      <trkpt lat="44.69811" lon="-0.08904">
        <ele>91.94</ele>
        <time>2020-07-27T07:39:48Z</time>
      </trkpt>
      <trkpt lat="44.69807" lon="-0.08908">
        <ele>91.94</ele>
        <time>2020-07-27T07:40:21Z</time>
      </trkpt>
      <trkpt lat="44.69821" lon="-0.08908">
        <ele>92.42</ele>
        <time>2020-07-27T07:40:44Z</time>
      </trkpt>
      <trkpt lat="44.69826" lon="-0.08897">
        <ele>92.42</ele>
        <time>2020-07-27T07:41:11Z</time>
      </trkpt>
      <trkpt lat="44.69824" lon="-0.08897">
        <ele>92.42</ele>
        <time>2020-07-27T07:41:37Z</time>
      </trkpt>
      <trkpt lat="44.69803" lon="-0.08896">
        <ele>92.42</ele>
        <time>2020-07-27T07:42:09Z</time>
      </trkpt>
      <trkpt lat="44.6979" lon="-0.08893">
        <ele>92.9</ele>
        <time>2020-07-27T07:42:40Z</time>
      </trkpt>
      <trkpt lat="44.69787" lon="-0.08897">
        <ele>92.9</ele>
        <time>2020-07-27T07:43:03Z</time>
      </trkpt>
      <trkpt lat="44.69797" lon="-0.08893">
        <ele>93.39</ele>
        <time>2020-07-27T07:43:27Z</time>
      </trkpt>
      <trkpt lat="44.69804" lon="-0.08903">
        <ele>92.42</ele>
        <time>2020-07-27T07:43:52Z</time>
      </trkpt>
      <trkpt lat="44.69804" lon="-0.08908">
        <ele>92.42</ele>
        <time>2020-07-27T07:44:19Z</time>
      </trkpt>
      <trkpt lat="44.69814" lon="-0.08904">
        <ele>92.9</ele>
        <time>2020-07-27T07:44:49Z</time>
      </trkpt>
      <trkpt lat="44.69814" lon="-0.08905">
        <ele>92.9</ele>
        <time>2020-07-27T07:45:14Z</time>
      </trkpt>
      <trkpt lat="44.69815" lon="-0.08902">
        <ele>93.39</ele>
        <time>2020-07-27T07:45:39Z</time>
      </trkpt>
      <trkpt lat="44.69806" lon="-0.08904">
        <ele>93.39</ele>
        <time>2020-07-27T07:46:02Z</time>
      </trkpt>
      <trkpt lat="44.69807" lon="-0.08909">
        <ele>93.39</ele>
        <time>2020-07-27T07:46:27Z</time>
      </trkpt>
      <trkpt lat="44.69807" lon="-0.08903">
        <ele>93.39</ele>
        <time>2020-07-27T07:46:51Z</time>
      </trkpt>
      <trkpt lat="44.69813" lon="-0.08901">
        <ele>93.39</ele>
        <time>2020-07-27T07:47:05Z</time>
      </trkpt>
      <trkpt lat="44.69818" lon="-0.08906">
        <ele>94.83</ele>
        <time>2020-07-27T07:47:11Z</time>
      </trkpt>
      <trkpt lat="44.69829" lon="-0.08912">
        <ele>94.83</ele>
        <time>2020-07-27T07:47:23Z</time>
      </trkpt>
      <trkpt lat="44.69825" lon="-0.08903">
        <ele>94.83</ele>
        <time>2020-07-27T07:53:05Z</time>
      </trkpt>
      <trkpt lat="44.69813" lon="-0.08895">
        <ele>93.39</ele>
        <time>2020-07-27T07:53:08Z</time>
      </trkpt>
      <trkpt lat="44.69826" lon="-0.08897">
        <ele>94.35</ele>
        <time>2020-07-27T07:53:14Z</time>
      </trkpt>
      <trkpt lat="44.69807" lon="-0.08898">
        <ele>94.35</ele>
        <time>2020-07-27T07:53:36Z</time>
      </trkpt>
      <trkpt lat="44.69813" lon="-0.08899">
        <ele>94.35</ele>
        <time>2020-07-27T07:53:59Z</time>
      </trkpt>
      <trkpt lat="44.69818" lon="-0.08903">
        <ele>94.83</ele>
        <time>2020-07-27T07:54:19Z</time>
      </trkpt>
      <trkpt lat="44.69818" lon="-0.08898">
        <ele>94.83</ele>
        <time>2020-07-27T07:54:39Z</time>
      </trkpt>
      <trkpt lat="44.69814" lon="-0.08898">
        <ele>93.39</ele>
        <time>2020-07-27T07:54:50Z</time>
      </trkpt>
      <trkpt lat="44.69813" lon="-0.08898">
        <ele>93.39</ele>
        <time>2020-07-27T07:54:51Z</time>
      </trkpt>
      <trkpt lat="44.69818" lon="-0.08895">
        <ele>93.39</ele>
        <time>2020-07-27T07:55:08Z</time>
      </trkpt>
      <trkpt lat="44.69802" lon="-0.08886">
        <ele>93.39</ele>
        <time>2020-07-27T07:55:25Z</time>
      </trkpt>
      <trkpt lat="44.69785" lon="-0.0888">
        <ele>92.9</ele>
        <time>2020-07-27T07:55:38Z</time>
      </trkpt>
      <trkpt lat="44.6978" lon="-0.08881">
        <ele>92.9</ele>
        <time>2020-07-27T07:55:43Z</time>
      </trkpt>
      <trkpt lat="44.69775" lon="-0.08878">
        <ele>92.9</ele>
        <time>2020-07-27T07:55:48Z</time>
      </trkpt>
      <trkpt lat="44.69772" lon="-0.08872">
        <ele>94.35</ele>
        <time>2020-07-27T07:55:56Z</time>
      </trkpt>
      <trkpt lat="44.6977" lon="-0.08851">
        <ele>95.31</ele>
        <time>2020-07-27T07:56:12Z</time>
      </trkpt>
      <trkpt lat="44.69757" lon="-0.08835">
        <ele>95.31</ele>
        <time>2020-07-27T07:56:30Z</time>
      </trkpt>
      <trkpt lat="44.69744" lon="-0.08836">
        <ele>93.87</ele>
        <time>2020-07-27T07:56:45Z</time>
      </trkpt>
      <trkpt lat="44.69724" lon="-0.08838">
        <ele>92.42</ele>
        <time>2020-07-27T07:57:02Z</time>
      </trkpt>
      <trkpt lat="44.69707" lon="-0.0884">
        <ele>91.94</ele>
        <time>2020-07-27T07:57:16Z</time>
      </trkpt>
      <trkpt lat="44.69689" lon="-0.0884">
        <ele>90.98</ele>
        <time>2020-07-27T07:57:31Z</time>
      </trkpt>
      <trkpt lat="44.69665" lon="-0.08841">
        <ele>90.02</ele>
        <time>2020-07-27T07:57:50Z</time>
      </trkpt>
      <trkpt lat="44.69664" lon="-0.0884">
        <ele>90.5</ele>
        <time>2020-07-27T07:57:51Z</time>
      </trkpt>
      <trkpt lat="44.69647" lon="-0.08841">
        <ele>89.54</ele>
        <time>2020-07-27T07:58:08Z</time>
      </trkpt>
      <trkpt lat="44.69646" lon="-0.08842">
        <ele>89.54</ele>
        <time>2020-07-27T07:58:09Z</time>
      </trkpt>
      <trkpt lat="44.6963" lon="-0.08846">
        <ele>89.54</ele>
        <time>2020-07-27T07:58:24Z</time>
      </trkpt>
      <trkpt lat="44.69606" lon="-0.08843">
        <ele>87.62</ele>
        <time>2020-07-27T07:58:44Z</time>
      </trkpt>
      <trkpt lat="44.69581" lon="-0.08841">
        <ele>86.66</ele>
        <time>2020-07-27T07:59:05Z</time>
      </trkpt>
      <trkpt lat="44.69558" lon="-0.08842">
        <ele>85.21</ele>
        <time>2020-07-27T07:59:24Z</time>
      </trkpt>
      <trkpt lat="44.69552" lon="-0.08842">
        <ele>84.73</ele>
        <time>2020-07-27T07:59:29Z</time>
      </trkpt>
      <trkpt lat="44.69536" lon="-0.08843">
        <ele>85.21</ele>
        <time>2020-07-27T07:59:43Z</time>
      </trkpt>
      <trkpt lat="44.69531" lon="-0.08845">
        <ele>84.25</ele>
        <time>2020-07-27T07:59:54Z</time>
      </trkpt>
      <trkpt lat="44.6952" lon="-0.08846">
        <ele>83.77</ele>
        <time>2020-07-27T08:00:12Z</time>
      </trkpt>
      <trkpt lat="44.69506" lon="-0.08852">
        <ele>81.85</ele>
        <time>2020-07-27T08:00:27Z</time>
      </trkpt>
      <trkpt lat="44.6949" lon="-0.08856">
        <ele>82.33</ele>
        <time>2020-07-27T08:00:43Z</time>
      </trkpt>
      <trkpt lat="44.69479" lon="-0.08856">
        <ele>82.33</ele>
        <time>2020-07-27T08:01:01Z</time>
      </trkpt>
      <trkpt lat="44.69467" lon="-0.08861">
        <ele>81.37</ele>
        <time>2020-07-27T08:01:11Z</time>
      </trkpt>
      <trkpt lat="44.6946" lon="-0.0885">
        <ele>80.41</ele>
        <time>2020-07-27T08:01:25Z</time>
      </trkpt>
      <trkpt lat="44.6946" lon="-0.08837">
        <ele>81.85</ele>
        <time>2020-07-27T08:01:40Z</time>
      </trkpt>
      <trkpt lat="44.69455" lon="-0.08825">
        <ele>81.85</ele>
        <time>2020-07-27T08:02:00Z</time>
      </trkpt>
      <trkpt lat="44.69449" lon="-0.08813">
        <ele>81.85</ele>
        <time>2020-07-27T08:02:18Z</time>
      </trkpt>
      <trkpt lat="44.69447" lon="-0.08809">
        <ele>80.41</ele>
        <time>2020-07-27T08:02:41Z</time>
      </trkpt>
      <trkpt lat="44.69435" lon="-0.08791">
        <ele>80.89</ele>
        <time>2020-07-27T08:02:57Z</time>
      </trkpt>
      <trkpt lat="44.69434" lon="-0.08788">
        <ele>78.97</ele>
        <time>2020-07-27T08:03:00Z</time>
      </trkpt>
      <trkpt lat="44.69432" lon="-0.08782">
        <ele>80.41</ele>
        <time>2020-07-27T08:03:05Z</time>
      </trkpt>
      <trkpt lat="44.69417" lon="-0.0876">
        <ele>79.45</ele>
        <time>2020-07-27T08:03:24Z</time>
      </trkpt>
      <trkpt lat="44.6941" lon="-0.08752">
        <ele>78</ele>
        <time>2020-07-27T08:03:30Z</time>
      </trkpt>
      <trkpt lat="44.69407" lon="-0.08746">
        <ele>79.93</ele>
        <time>2020-07-27T08:03:34Z</time>
      </trkpt>
      <trkpt lat="44.69403" lon="-0.0874">
        <ele>78</ele>
        <time>2020-07-27T08:03:38Z</time>
      </trkpt>
      <trkpt lat="44.69393" lon="-0.08725">
        <ele>78.97</ele>
        <time>2020-07-27T08:03:50Z</time>
      </trkpt>
      <trkpt lat="44.69387" lon="-0.08714">
        <ele>79.45</ele>
        <time>2020-07-27T08:03:59Z</time>
      </trkpt>
      <trkpt lat="44.69377" lon="-0.08694">
        <ele>78.97</ele>
        <time>2020-07-27T08:04:13Z</time>
      </trkpt>
      <trkpt lat="44.69364" lon="-0.08679">
        <ele>77.52</ele>
        <time>2020-07-27T08:04:27Z</time>
      </trkpt>
      <trkpt lat="44.69363" lon="-0.08676">
        <ele>78.97</ele>
        <time>2020-07-27T08:04:29Z</time>
      </trkpt>
      <trkpt lat="44.69357" lon="-0.08668">
        <ele>78.97</ele>
        <time>2020-07-27T08:04:45Z</time>
      </trkpt>
      <trkpt lat="44.69353" lon="-0.08662">
        <ele>78.97</ele>
        <time>2020-07-27T08:05:05Z</time>
      </trkpt>
      <trkpt lat="44.6935" lon="-0.08659">
        <ele>78.97</ele>
        <time>2020-07-27T08:05:08Z</time>
      </trkpt>
      <trkpt lat="44.69349" lon="-0.08656">
        <ele>78</ele>
        <time>2020-07-27T08:05:10Z</time>
      </trkpt>
      <trkpt lat="44.69336" lon="-0.0864">
        <ele>77.04</ele>
        <time>2020-07-27T08:05:27Z</time>
      </trkpt>
      <trkpt lat="44.69331" lon="-0.08624">
        <ele>77.52</ele>
        <time>2020-07-27T08:05:42Z</time>
      </trkpt>
      <trkpt lat="44.69328" lon="-0.08618">
        <ele>77.52</ele>
        <time>2020-07-27T08:06:06Z</time>
      </trkpt>
      <trkpt lat="44.69326" lon="-0.08622">
        <ele>77.52</ele>
        <time>2020-07-27T08:06:30Z</time>
      </trkpt>
      <trkpt lat="44.69318" lon="-0.08617">
        <ele>76.08</ele>
        <time>2020-07-27T08:06:47Z</time>
      </trkpt>
      <trkpt lat="44.69312" lon="-0.08614">
        <ele>77.52</ele>
        <time>2020-07-27T08:07:06Z</time>
      </trkpt>
      <trkpt lat="44.69309" lon="-0.08607">
        <ele>76.08</ele>
        <time>2020-07-27T08:07:11Z</time>
      </trkpt>
      <trkpt lat="44.693" lon="-0.08593">
        <ele>76.08</ele>
        <time>2020-07-27T08:07:27Z</time>
      </trkpt>
      <trkpt lat="44.69288" lon="-0.08581">
        <ele>76.08</ele>
        <time>2020-07-27T08:07:44Z</time>
      </trkpt>
      <trkpt lat="44.6928" lon="-0.08585">
        <ele>76.08</ele>
        <time>2020-07-27T08:08:11Z</time>
      </trkpt>
      <trkpt lat="44.6928" lon="-0.08588">
        <ele>75.6</ele>
        <time>2020-07-27T08:08:33Z</time>
      </trkpt>
      <trkpt lat="44.69278" lon="-0.08588">
        <ele>75.6</ele>
        <time>2020-07-27T08:08:51Z</time>
      </trkpt>
      <trkpt lat="44.69276" lon="-0.08588">
        <ele>75.12</ele>
        <time>2020-07-27T08:09:11Z</time>
      </trkpt>
      <trkpt lat="44.69284" lon="-0.08583">
        <ele>75.12</ele>
        <time>2020-07-27T08:09:37Z</time>
      </trkpt>
      <trkpt lat="44.69288" lon="-0.08575">
        <ele>76.56</ele>
        <time>2020-07-27T08:09:52Z</time>
      </trkpt>
      <trkpt lat="44.69295" lon="-0.08556">
        <ele>77.52</ele>
        <time>2020-07-27T08:10:11Z</time>
      </trkpt>
      <trkpt lat="44.69297" lon="-0.08549">
        <ele>77.52</ele>
        <time>2020-07-27T08:10:30Z</time>
      </trkpt>
      <trkpt lat="44.693" lon="-0.08551">
        <ele>78.48</ele>
        <time>2020-07-27T08:10:38Z</time>
      </trkpt>
      <trkpt lat="44.69292" lon="-0.08557">
        <ele>77.04</ele>
        <time>2020-07-27T08:13:16Z</time>
      </trkpt>
      <trkpt lat="44.69287" lon="-0.08575">
        <ele>76.08</ele>
        <time>2020-07-27T08:13:30Z</time>
      </trkpt>
      <trkpt lat="44.69276" lon="-0.08594">
        <ele>75.6</ele>
        <time>2020-07-27T08:13:47Z</time>
      </trkpt>
      <trkpt lat="44.69264" lon="-0.08609">
        <ele>73.68</ele>
        <time>2020-07-27T08:14:05Z</time>
      </trkpt>
      <trkpt lat="44.69259" lon="-0.08613">
        <ele>73.2</ele>
        <time>2020-07-27T08:14:22Z</time>
      </trkpt>
      <trkpt lat="44.69245" lon="-0.0862">
        <ele>73.2</ele>
        <time>2020-07-27T08:14:40Z</time>
      </trkpt>
      <trkpt lat="44.69241" lon="-0.08625">
        <ele>72.72</ele>
        <time>2020-07-27T08:14:57Z</time>
      </trkpt>
      <trkpt lat="44.69241" lon="-0.08621">
        <ele>72.72</ele>
        <time>2020-07-27T08:15:20Z</time>
      </trkpt>
      <trkpt lat="44.69242" lon="-0.08617">
        <ele>72.72</ele>
        <time>2020-07-27T08:15:41Z</time>
      </trkpt>
      <trkpt lat="44.69243" lon="-0.08617">
        <ele>72.72</ele>
        <time>2020-07-27T08:16:05Z</time>
      </trkpt>
      <trkpt lat="44.69238" lon="-0.08619">
        <ele>72.24</ele>
        <time>2020-07-27T08:16:29Z</time>
      </trkpt>
      <trkpt lat="44.6924" lon="-0.08625">
        <ele>72.24</ele>
        <time>2020-07-27T08:16:55Z</time>
      </trkpt>
      <trkpt lat="44.69237" lon="-0.08636">
        <ele>72.24</ele>
        <time>2020-07-27T08:17:21Z</time>
      </trkpt>
      <trkpt lat="44.69236" lon="-0.08638">
        <ele>71.76</ele>
        <time>2020-07-27T08:17:44Z</time>
      </trkpt>
      <trkpt lat="44.69227" lon="-0.08642">
        <ele>71.76</ele>
        <time>2020-07-27T08:17:57Z</time>
      </trkpt>
      <trkpt lat="44.69217" lon="-0.08647">
        <ele>70.31</ele>
        <time>2020-07-27T08:18:11Z</time>
      </trkpt>
      <trkpt lat="44.69205" lon="-0.08664">
        <ele>68.87</ele>
        <time>2020-07-27T08:18:32Z</time>
      </trkpt>
      <trkpt lat="44.69198" lon="-0.08675">
        <ele>68.39</ele>
        <time>2020-07-27T08:18:50Z</time>
      </trkpt>
      <trkpt lat="44.69179" lon="-0.08697">
        <ele>65.99</ele>
        <time>2020-07-27T08:19:09Z</time>
      </trkpt>
      <trkpt lat="44.69159" lon="-0.08729">
        <ele>65.03</ele>
        <time>2020-07-27T08:19:32Z</time>
      </trkpt>
      <trkpt lat="44.69144" lon="-0.08743">
        <ele>64.55</ele>
        <time>2020-07-27T08:19:53Z</time>
      </trkpt>
      <trkpt lat="44.69125" lon="-0.08768">
        <ele>62.62</ele>
        <time>2020-07-27T08:20:18Z</time>
      </trkpt>
      <trkpt lat="44.69107" lon="-0.08779">
        <ele>61.18</ele>
        <time>2020-07-27T08:20:39Z</time>
      </trkpt>
      <trkpt lat="44.6909" lon="-0.08799">
        <ele>60.7</ele>
        <time>2020-07-27T08:20:58Z</time>
      </trkpt>
      <trkpt lat="44.69091" lon="-0.08792">
        <ele>60.7</ele>
        <time>2020-07-27T08:21:24Z</time>
      </trkpt>
      <trkpt lat="44.69089" lon="-0.08803">
        <ele>59.26</ele>
        <time>2020-07-27T08:22:05Z</time>
      </trkpt>
      <trkpt lat="44.69081" lon="-0.08817">
        <ele>58.3</ele>
        <time>2020-07-27T08:22:24Z</time>
      </trkpt>
      <trkpt lat="44.69066" lon="-0.08825">
        <ele>57.82</ele>
        <time>2020-07-27T08:22:34Z</time>
      </trkpt>
      <trkpt lat="44.69049" lon="-0.08838">
        <ele>56.37</ele>
        <time>2020-07-27T08:22:51Z</time>
      </trkpt>
      <trkpt lat="44.69042" lon="-0.08846">
        <ele>57.34</ele>
        <time>2020-07-27T08:23:06Z</time>
      </trkpt>
      <trkpt lat="44.6904" lon="-0.08829">
        <ele>56.37</ele>
        <time>2020-07-27T08:23:21Z</time>
      </trkpt>
      <trkpt lat="44.69034" lon="-0.08809">
        <ele>54.93</ele>
        <time>2020-07-27T08:23:33Z</time>
      </trkpt>
      <trkpt lat="44.69024" lon="-0.08772">
        <ele>54.93</ele>
        <time>2020-07-27T08:23:54Z</time>
      </trkpt>
      <trkpt lat="44.69011" lon="-0.0874">
        <ele>53.49</ele>
        <time>2020-07-27T08:24:14Z</time>
      </trkpt>
      <trkpt lat="44.69005" lon="-0.08736">
        <ele>53.01</ele>
        <time>2020-07-27T08:24:18Z</time>
      </trkpt>
      <trkpt lat="44.68984" lon="-0.08745">
        <ele>52.53</ele>
        <time>2020-07-27T08:24:36Z</time>
      </trkpt>
      <trkpt lat="44.68981" lon="-0.08748">
        <ele>50.61</ele>
        <time>2020-07-27T08:24:39Z</time>
      </trkpt>
      <trkpt lat="44.68979" lon="-0.08749">
        <ele>52.05</ele>
        <time>2020-07-27T08:24:41Z</time>
      </trkpt>
      <trkpt lat="44.68966" lon="-0.08757">
        <ele>52.05</ele>
        <time>2020-07-27T08:24:53Z</time>
      </trkpt>
      <trkpt lat="44.68953" lon="-0.08764">
        <ele>50.61</ele>
        <time>2020-07-27T08:25:04Z</time>
      </trkpt>
      <trkpt lat="44.68949" lon="-0.08768">
        <ele>51.57</ele>
        <time>2020-07-27T08:25:08Z</time>
      </trkpt>
      <trkpt lat="44.68937" lon="-0.08776">
        <ele>53.01</ele>
        <time>2020-07-27T08:25:19Z</time>
      </trkpt>
      <trkpt lat="44.68922" lon="-0.08785">
        <ele>53.49</ele>
        <time>2020-07-27T08:25:36Z</time>
      </trkpt>
      <trkpt lat="44.68901" lon="-0.088">
        <ele>55.41</ele>
        <time>2020-07-27T08:25:59Z</time>
      </trkpt>
      <trkpt lat="44.68883" lon="-0.0881">
        <ele>57.34</ele>
        <time>2020-07-27T08:26:20Z</time>
      </trkpt>
      <trkpt lat="44.68857" lon="-0.08819">
        <ele>59.26</ele>
        <time>2020-07-27T08:26:42Z</time>
      </trkpt>
      <trkpt lat="44.68836" lon="-0.08831">
        <ele>60.7</ele>
        <time>2020-07-27T08:27:04Z</time>
      </trkpt>
      <trkpt lat="44.68815" lon="-0.08841">
        <ele>61.66</ele>
        <time>2020-07-27T08:27:25Z</time>
      </trkpt>
      <trkpt lat="44.688" lon="-0.08845">
        <ele>63.1</ele>
        <time>2020-07-27T08:27:38Z</time>
      </trkpt>
      <trkpt lat="44.68776" lon="-0.08851">
        <ele>65.03</ele>
        <time>2020-07-27T08:28:01Z</time>
      </trkpt>
      <trkpt lat="44.68772" lon="-0.08855">
        <ele>65.51</ele>
        <time>2020-07-27T08:28:09Z</time>
      </trkpt>
      <trkpt lat="44.68769" lon="-0.08855">
        <ele>66.95</ele>
        <time>2020-07-27T08:28:12Z</time>
      </trkpt>
      <trkpt lat="44.68749" lon="-0.08862">
        <ele>69.35</ele>
        <time>2020-07-27T08:28:34Z</time>
      </trkpt>
      <trkpt lat="44.68736" lon="-0.08869">
        <ele>71.27</ele>
        <time>2020-07-27T08:28:50Z</time>
      </trkpt>
      <trkpt lat="44.68724" lon="-0.08879">
        <ele>72.24</ele>
        <time>2020-07-27T08:29:06Z</time>
      </trkpt>
      <trkpt lat="44.68723" lon="-0.08879">
        <ele>72.24</ele>
        <time>2020-07-27T08:29:07Z</time>
      </trkpt>
      <trkpt lat="44.68715" lon="-0.08886">
        <ele>71.76</ele>
        <time>2020-07-27T08:29:22Z</time>
      </trkpt>
      <trkpt lat="44.68714" lon="-0.08888">
        <ele>73.2</ele>
        <time>2020-07-27T08:29:24Z</time>
      </trkpt>
      <trkpt lat="44.687" lon="-0.08901">
        <ele>74.64</ele>
        <time>2020-07-27T08:29:41Z</time>
      </trkpt>
      <trkpt lat="44.68687" lon="-0.08915">
        <ele>75.6</ele>
        <time>2020-07-27T08:29:58Z</time>
      </trkpt>
      <trkpt lat="44.68685" lon="-0.08917">
        <ele>75.6</ele>
        <time>2020-07-27T08:30:01Z</time>
      </trkpt>
      <trkpt lat="44.68672" lon="-0.08931">
        <ele>74.16</ele>
        <time>2020-07-27T08:30:17Z</time>
      </trkpt>
      <trkpt lat="44.68671" lon="-0.08932">
        <ele>74.16</ele>
        <time>2020-07-27T08:30:18Z</time>
      </trkpt>
      <trkpt lat="44.68664" lon="-0.08941">
        <ele>73.2</ele>
        <time>2020-07-27T08:30:31Z</time>
      </trkpt>
      <trkpt lat="44.68649" lon="-0.0896">
        <ele>71.76</ele>
        <time>2020-07-27T08:30:50Z</time>
      </trkpt>
      <trkpt lat="44.68639" lon="-0.08973">
        <ele>69.83</ele>
        <time>2020-07-27T08:31:04Z</time>
      </trkpt>
      <trkpt lat="44.68622" lon="-0.08988">
        <ele>68.87</ele>
        <time>2020-07-27T08:31:25Z</time>
      </trkpt>
      <trkpt lat="44.68612" lon="-0.09005">
        <ele>67.91</ele>
        <time>2020-07-27T08:31:41Z</time>
      </trkpt>
      <trkpt lat="44.68606" lon="-0.09004">
        <ele>67.91</ele>
        <time>2020-07-27T08:31:48Z</time>
      </trkpt>
      <trkpt lat="44.68589" lon="-0.08983">
        <ele>67.91</ele>
        <time>2020-07-27T08:32:07Z</time>
      </trkpt>
      <trkpt lat="44.68576" lon="-0.08965">
        <ele>66.95</ele>
        <time>2020-07-27T08:32:23Z</time>
      </trkpt>
      <trkpt lat="44.68573" lon="-0.08962">
        <ele>65.99</ele>
        <time>2020-07-27T08:32:26Z</time>
      </trkpt>
      <trkpt lat="44.68559" lon="-0.08944">
        <ele>65.51</ele>
        <time>2020-07-27T08:32:41Z</time>
      </trkpt>
      <trkpt lat="44.68548" lon="-0.08927">
        <ele>65.51</ele>
        <time>2020-07-27T08:32:56Z</time>
      </trkpt>
      <trkpt lat="44.68536" lon="-0.0891">
        <ele>66.47</ele>
        <time>2020-07-27T08:33:12Z</time>
      </trkpt>
      <trkpt lat="44.68531" lon="-0.08903">
        <ele>65.03</ele>
        <time>2020-07-27T08:33:18Z</time>
      </trkpt>
      <trkpt lat="44.68517" lon="-0.08885">
        <ele>65.99</ele>
        <time>2020-07-27T08:33:33Z</time>
      </trkpt>
      <trkpt lat="44.68508" lon="-0.0887">
        <ele>64.07</ele>
        <time>2020-07-27T08:33:43Z</time>
      </trkpt>
      <trkpt lat="44.68503" lon="-0.08866">
        <ele>65.99</ele>
        <time>2020-07-27T08:33:47Z</time>
      </trkpt>
      <trkpt lat="44.68497" lon="-0.08857">
        <ele>64.07</ele>
        <time>2020-07-27T08:33:54Z</time>
      </trkpt>
      <trkpt lat="44.68484" lon="-0.08839">
        <ele>64.07</ele>
        <time>2020-07-27T08:34:10Z</time>
      </trkpt>
      <trkpt lat="44.68463" lon="-0.08811">
        <ele>62.62</ele>
        <time>2020-07-27T08:34:33Z</time>
      </trkpt>
      <trkpt lat="44.68446" lon="-0.08788">
        <ele>62.14</ele>
        <time>2020-07-27T08:34:53Z</time>
      </trkpt>
      <trkpt lat="44.68428" lon="-0.08765">
        <ele>60.7</ele>
        <time>2020-07-27T08:35:14Z</time>
      </trkpt>
      <trkpt lat="44.68411" lon="-0.08741">
        <ele>58.78</ele>
        <time>2020-07-27T08:35:36Z</time>
      </trkpt>
      <trkpt lat="44.68392" lon="-0.08715">
        <ele>58.3</ele>
        <time>2020-07-27T08:35:57Z</time>
      </trkpt>
      <trkpt lat="44.68375" lon="-0.08692">
        <ele>56.86</ele>
        <time>2020-07-27T08:36:17Z</time>
      </trkpt>
      <trkpt lat="44.68359" lon="-0.08668">
        <ele>55.41</ele>
        <time>2020-07-27T08:36:37Z</time>
      </trkpt>
      <trkpt lat="44.68343" lon="-0.08647">
        <ele>53.97</ele>
        <time>2020-07-27T08:36:55Z</time>
      </trkpt>
      <trkpt lat="44.68338" lon="-0.08641">
        <ele>54.93</ele>
        <time>2020-07-27T08:37:00Z</time>
      </trkpt>
      <trkpt lat="44.68321" lon="-0.08619">
        <ele>53.49</ele>
        <time>2020-07-27T08:37:20Z</time>
      </trkpt>
      <trkpt lat="44.68316" lon="-0.08614">
        <ele>52.53</ele>
        <time>2020-07-27T08:37:25Z</time>
      </trkpt>
      <trkpt lat="44.68307" lon="-0.08611">
        <ele>52.05</ele>
        <time>2020-07-27T08:37:39Z</time>
      </trkpt>
      <trkpt lat="44.6829" lon="-0.08611">
        <ele>49.65</ele>
        <time>2020-07-27T08:37:56Z</time>
      </trkpt>
      <trkpt lat="44.68285" lon="-0.08611">
        <ele>50.61</ele>
        <time>2020-07-27T08:38:00Z</time>
      </trkpt>
      <trkpt lat="44.68278" lon="-0.08611">
        <ele>49.16</ele>
        <time>2020-07-27T08:38:05Z</time>
      </trkpt>
      <trkpt lat="44.68258" lon="-0.08612">
        <ele>47.72</ele>
        <time>2020-07-27T08:38:24Z</time>
      </trkpt>
      <trkpt lat="44.68243" lon="-0.08614">
        <ele>45.32</ele>
        <time>2020-07-27T08:38:37Z</time>
      </trkpt>
      <trkpt lat="44.68227" lon="-0.08613">
        <ele>42.44</ele>
        <time>2020-07-27T08:38:52Z</time>
      </trkpt>
      <trkpt lat="44.68226" lon="-0.08613">
        <ele>42.44</ele>
        <time>2020-07-27T08:38:53Z</time>
      </trkpt>
      <trkpt lat="44.6822" lon="-0.08613">
        <ele>41.47</ele>
        <time>2020-07-27T08:38:58Z</time>
      </trkpt>
      <trkpt lat="44.68192" lon="-0.08617">
        <ele>40.99</ele>
        <time>2020-07-27T08:39:20Z</time>
      </trkpt>
      <trkpt lat="44.68182" lon="-0.08622">
        <ele>40.99</ele>
        <time>2020-07-27T08:39:41Z</time>
      </trkpt>
      <trkpt lat="44.6818" lon="-0.08618">
        <ele>40.99</ele>
        <time>2020-07-27T08:40:06Z</time>
      </trkpt>
      <trkpt lat="44.68156" lon="-0.08617">
        <ele>41.47</ele>
        <time>2020-07-27T08:40:27Z</time>
      </trkpt>
      <trkpt lat="44.68134" lon="-0.08618">
        <ele>41.95</ele>
        <time>2020-07-27T08:40:44Z</time>
      </trkpt>
      <trkpt lat="44.68116" lon="-0.08615">
        <ele>42.92</ele>
        <time>2020-07-27T08:41:05Z</time>
      </trkpt>
      <trkpt lat="44.68115" lon="-0.08617">
        <ele>43.4</ele>
        <time>2020-07-27T08:41:38Z</time>
      </trkpt>
      <trkpt lat="44.68107" lon="-0.08623">
        <ele>44.36</ele>
        <time>2020-07-27T08:41:59Z</time>
      </trkpt>
      <trkpt lat="44.68107" lon="-0.08626">
        <ele>44.36</ele>
        <time>2020-07-27T08:42:34Z</time>
      </trkpt>
      <trkpt lat="44.68092" lon="-0.08624">
        <ele>46.28</ele>
        <time>2020-07-27T08:42:54Z</time>
      </trkpt>
      <trkpt lat="44.68069" lon="-0.08628">
        <ele>47.72</ele>
        <time>2020-07-27T08:43:14Z</time>
      </trkpt>
      <trkpt lat="44.68048" lon="-0.08636">
        <ele>49.65</ele>
        <time>2020-07-27T08:43:34Z</time>
      </trkpt>
      <trkpt lat="44.6803" lon="-0.08639">
        <ele>51.09</ele>
        <time>2020-07-27T08:43:52Z</time>
      </trkpt>
      <trkpt lat="44.68017" lon="-0.08642">
        <ele>52.05</ele>
        <time>2020-07-27T08:44:10Z</time>
      </trkpt>
      <trkpt lat="44.68017" lon="-0.08639">
        <ele>52.05</ele>
        <time>2020-07-27T08:44:42Z</time>
      </trkpt>
      <trkpt lat="44.68006" lon="-0.08648">
        <ele>52.05</ele>
        <time>2020-07-27T08:45:13Z</time>
      </trkpt>
      <trkpt lat="44.67981" lon="-0.08656">
        <ele>52.05</ele>
        <time>2020-07-27T08:45:33Z</time>
      </trkpt>
      <trkpt lat="44.67972" lon="-0.08659">
        <ele>52.05</ele>
        <time>2020-07-27T08:45:41Z</time>
      </trkpt>
      <trkpt lat="44.67945" lon="-0.0867">
        <ele>51.57</ele>
        <time>2020-07-27T08:46:04Z</time>
      </trkpt>
      <trkpt lat="44.67922" lon="-0.08678">
        <ele>51.09</ele>
        <time>2020-07-27T08:46:20Z</time>
      </trkpt>
      <trkpt lat="44.67909" lon="-0.08673">
        <ele>51.09</ele>
        <time>2020-07-27T08:46:31Z</time>
      </trkpt>
      <trkpt lat="44.67904" lon="-0.08668">
        <ele>51.57</ele>
        <time>2020-07-27T08:46:35Z</time>
      </trkpt>
      <trkpt lat="44.67889" lon="-0.08636">
        <ele>51.57</ele>
        <time>2020-07-27T08:46:56Z</time>
      </trkpt>
      <trkpt lat="44.67871" lon="-0.08606">
        <ele>50.61</ele>
        <time>2020-07-27T08:47:17Z</time>
      </trkpt>
      <trkpt lat="44.67853" lon="-0.08592">
        <ele>51.57</ele>
        <time>2020-07-27T08:47:35Z</time>
      </trkpt>
      <trkpt lat="44.67834" lon="-0.08577">
        <ele>51.57</ele>
        <time>2020-07-27T08:47:52Z</time>
      </trkpt>
      <trkpt lat="44.67807" lon="-0.0855">
        <ele>51.57</ele>
        <time>2020-07-27T08:48:15Z</time>
      </trkpt>
      <trkpt lat="44.67796" lon="-0.08544">
        <ele>50.13</ele>
        <time>2020-07-27T08:48:26Z</time>
      </trkpt>
      <trkpt lat="44.6779" lon="-0.0854">
        <ele>50.13</ele>
        <time>2020-07-27T08:48:30Z</time>
      </trkpt>
      <trkpt lat="44.67787" lon="-0.08539">
        <ele>50.13</ele>
        <time>2020-07-27T08:48:33Z</time>
      </trkpt>
      <trkpt lat="44.6777" lon="-0.08537">
        <ele>48.2</ele>
        <time>2020-07-27T08:48:47Z</time>
      </trkpt>
      <trkpt lat="44.67747" lon="-0.08536">
        <ele>49.16</ele>
        <time>2020-07-27T08:49:03Z</time>
      </trkpt>
      <trkpt lat="44.67721" lon="-0.08533">
        <ele>49.65</ele>
        <time>2020-07-27T08:49:22Z</time>
      </trkpt>
      <trkpt lat="44.67712" lon="-0.08529">
        <ele>49.65</ele>
        <time>2020-07-27T08:49:30Z</time>
      </trkpt>
      <trkpt lat="44.67705" lon="-0.08525">
        <ele>51.09</ele>
        <time>2020-07-27T08:49:35Z</time>
      </trkpt>
      <trkpt lat="44.67686" lon="-0.08517">
        <ele>51.57</ele>
        <time>2020-07-27T08:49:49Z</time>
      </trkpt>
      <trkpt lat="44.67676" lon="-0.085">
        <ele>51.09</ele>
        <time>2020-07-27T08:50:02Z</time>
      </trkpt>
      <trkpt lat="44.67672" lon="-0.08493">
        <ele>51.57</ele>
        <time>2020-07-27T08:50:07Z</time>
      </trkpt>
      <trkpt lat="44.67669" lon="-0.08488">
        <ele>53.49</ele>
        <time>2020-07-27T08:50:11Z</time>
      </trkpt>
      <trkpt lat="44.67666" lon="-0.08481">
        <ele>52.05</ele>
        <time>2020-07-27T08:50:16Z</time>
      </trkpt>
      <trkpt lat="44.67663" lon="-0.08476">
        <ele>53.97</ele>
        <time>2020-07-27T08:50:20Z</time>
      </trkpt>
      <trkpt lat="44.67659" lon="-0.08468">
        <ele>53.97</ele>
        <time>2020-07-27T08:50:25Z</time>
      </trkpt>
      <trkpt lat="44.67644" lon="-0.08441">
        <ele>53.49</ele>
        <time>2020-07-27T08:50:44Z</time>
      </trkpt>
      <trkpt lat="44.67641" lon="-0.08438">
        <ele>54.93</ele>
        <time>2020-07-27T08:50:47Z</time>
      </trkpt>
      <trkpt lat="44.67631" lon="-0.08429">
        <ele>55.41</ele>
        <time>2020-07-27T08:51:04Z</time>
      </trkpt>
      <trkpt lat="44.6763" lon="-0.0843">
        <ele>55.41</ele>
        <time>2020-07-27T08:51:20Z</time>
      </trkpt>
      <trkpt lat="44.67632" lon="-0.08424">
        <ele>55.41</ele>
        <time>2020-07-27T08:51:50Z</time>
      </trkpt>
      <trkpt lat="44.67635" lon="-0.08426">
        <ele>55.41</ele>
        <time>2020-07-27T08:52:20Z</time>
      </trkpt>
      <trkpt lat="44.6763" lon="-0.08428">
        <ele>55.41</ele>
        <time>2020-07-27T08:52:43Z</time>
      </trkpt>
      <trkpt lat="44.67633" lon="-0.08429">
        <ele>55.41</ele>
        <time>2020-07-27T08:53:07Z</time>
      </trkpt>
      <trkpt lat="44.67631" lon="-0.08432">
        <ele>55.41</ele>
        <time>2020-07-27T08:53:41Z</time>
      </trkpt>
      <trkpt lat="44.67631" lon="-0.08431">
        <ele>55.41</ele>
        <time>2020-07-27T08:54:12Z</time>
      </trkpt>
      <trkpt lat="44.67626" lon="-0.0844">
        <ele>55.41</ele>
        <time>2020-07-27T08:54:40Z</time>
      </trkpt>
      <trkpt lat="44.67632" lon="-0.08427">
        <ele>55.41</ele>
        <time>2020-07-27T08:55:04Z</time>
      </trkpt>
      <trkpt lat="44.67632" lon="-0.08429">
        <ele>54.93</ele>
        <time>2020-07-27T08:55:28Z</time>
      </trkpt>
      <trkpt lat="44.67632" lon="-0.08432">
        <ele>54.93</ele>
        <time>2020-07-27T08:55:49Z</time>
      </trkpt>
      <trkpt lat="44.67629" lon="-0.08431">
        <ele>54.93</ele>
        <time>2020-07-27T08:56:20Z</time>
      </trkpt>
      <trkpt lat="44.67621" lon="-0.08431">
        <ele>55.41</ele>
        <time>2020-07-27T08:56:28Z</time>
      </trkpt>
      <trkpt lat="44.67598" lon="-0.08432">
        <ele>56.37</ele>
        <time>2020-07-27T08:56:46Z</time>
      </trkpt>
      <trkpt lat="44.67579" lon="-0.08432">
        <ele>57.82</ele>
        <time>2020-07-27T08:57:04Z</time>
      </trkpt>
      <trkpt lat="44.67569" lon="-0.08434">
        <ele>58.78</ele>
        <time>2020-07-27T08:57:14Z</time>
      </trkpt>
      <trkpt lat="44.67549" lon="-0.08437">
        <ele>60.22</ele>
        <time>2020-07-27T08:57:32Z</time>
      </trkpt>
      <trkpt lat="44.67544" lon="-0.08443">
        <ele>60.7</ele>
        <time>2020-07-27T08:57:47Z</time>
      </trkpt>
      <trkpt lat="44.67546" lon="-0.08445">
        <ele>59.74</ele>
        <time>2020-07-27T08:57:52Z</time>
      </trkpt>
      <trkpt lat="44.6755" lon="-0.08446">
        <ele>60.7</ele>
        <time>2020-07-27T08:58:04Z</time>
      </trkpt>
      <trkpt lat="44.6754" lon="-0.08451">
        <ele>61.18</ele>
        <time>2020-07-27T08:58:21Z</time>
      </trkpt>
      <trkpt lat="44.67529" lon="-0.08445">
        <ele>61.18</ele>
        <time>2020-07-27T08:58:36Z</time>
      </trkpt>
      <trkpt lat="44.67527" lon="-0.08446">
        <ele>61.18</ele>
        <time>2020-07-27T08:58:38Z</time>
      </trkpt>
      <trkpt lat="44.67517" lon="-0.08446">
        <ele>61.66</ele>
        <time>2020-07-27T08:58:58Z</time>
      </trkpt>
      <trkpt lat="44.67514" lon="-0.08442">
        <ele>62.14</ele>
        <time>2020-07-27T08:59:15Z</time>
      </trkpt>
      <trkpt lat="44.67498" lon="-0.08442">
        <ele>61.66</ele>
        <time>2020-07-27T08:59:31Z</time>
      </trkpt>
      <trkpt lat="44.67492" lon="-0.08442">
        <ele>61.66</ele>
        <time>2020-07-27T08:59:36Z</time>
      </trkpt>
      <trkpt lat="44.67477" lon="-0.08435">
        <ele>61.18</ele>
        <time>2020-07-27T08:59:53Z</time>
      </trkpt>
      <trkpt lat="44.67455" lon="-0.08428">
        <ele>60.22</ele>
        <time>2020-07-27T09:00:11Z</time>
      </trkpt>
      <trkpt lat="44.67442" lon="-0.08409">
        <ele>61.18</ele>
        <time>2020-07-27T09:00:27Z</time>
      </trkpt>
      <trkpt lat="44.67431" lon="-0.08392">
        <ele>59.26</ele>
        <time>2020-07-27T09:00:42Z</time>
      </trkpt>
      <trkpt lat="44.67418" lon="-0.08373">
        <ele>59.26</ele>
        <time>2020-07-27T09:00:56Z</time>
      </trkpt>
      <trkpt lat="44.67412" lon="-0.08376">
        <ele>59.26</ele>
        <time>2020-07-27T09:01:11Z</time>
      </trkpt>
      <trkpt lat="44.67404" lon="-0.08387">
        <ele>58.3</ele>
        <time>2020-07-27T09:01:28Z</time>
      </trkpt>
      <trkpt lat="44.67399" lon="-0.08398">
        <ele>57.34</ele>
        <time>2020-07-27T09:01:42Z</time>
      </trkpt>
      <trkpt lat="44.67383" lon="-0.08427">
        <ele>56.37</ele>
        <time>2020-07-27T09:02:02Z</time>
      </trkpt>
      <trkpt lat="44.67375" lon="-0.08439">
        <ele>54.93</ele>
        <time>2020-07-27T09:02:11Z</time>
      </trkpt>
      <trkpt lat="44.6736" lon="-0.08468">
        <ele>53.49</ele>
        <time>2020-07-27T09:02:33Z</time>
      </trkpt>
      <trkpt lat="44.67341" lon="-0.08491">
        <ele>52.05</ele>
        <time>2020-07-27T09:02:51Z</time>
      </trkpt>
      <trkpt lat="44.67325" lon="-0.0852">
        <ele>51.09</ele>
        <time>2020-07-27T09:03:11Z</time>
      </trkpt>
      <trkpt lat="44.6732" lon="-0.0853">
        <ele>49.16</ele>
        <time>2020-07-27T09:03:18Z</time>
      </trkpt>
      <trkpt lat="44.67314" lon="-0.08555">
        <ele>47.72</ele>
        <time>2020-07-27T09:03:33Z</time>
      </trkpt>
      <trkpt lat="44.67318" lon="-0.08587">
        <ele>47.72</ele>
        <time>2020-07-27T09:03:52Z</time>
      </trkpt>
      <trkpt lat="44.67322" lon="-0.08601">
        <ele>47.72</ele>
        <time>2020-07-27T09:04:00Z</time>
      </trkpt>
      <trkpt lat="44.67338" lon="-0.08643">
        <ele>48.2</ele>
        <time>2020-07-27T09:04:28Z</time>
      </trkpt>
      <trkpt lat="44.67344" lon="-0.08664">
        <ele>46.76</ele>
        <time>2020-07-27T09:04:40Z</time>
      </trkpt>
      <trkpt lat="44.67346" lon="-0.08666">
        <ele>48.2</ele>
        <time>2020-07-27T09:04:42Z</time>
      </trkpt>
      <trkpt lat="44.67353" lon="-0.08692">
        <ele>48.2</ele>
        <time>2020-07-27T09:04:58Z</time>
      </trkpt>
      <trkpt lat="44.67355" lon="-0.08702">
        <ele>46.76</ele>
        <time>2020-07-27T09:05:03Z</time>
      </trkpt>
      <trkpt lat="44.67365" lon="-0.08727">
        <ele>45.8</ele>
        <time>2020-07-27T09:05:19Z</time>
      </trkpt>
      <trkpt lat="44.67375" lon="-0.0874">
        <ele>46.76</ele>
        <time>2020-07-27T09:05:29Z</time>
      </trkpt>
      <trkpt lat="44.67377" lon="-0.08745">
        <ele>47.24</ele>
        <time>2020-07-27T09:05:33Z</time>
      </trkpt>
      <trkpt lat="44.67382" lon="-0.08763">
        <ele>45.32</ele>
        <time>2020-07-27T09:05:43Z</time>
      </trkpt>
      <trkpt lat="44.67395" lon="-0.08797">
        <ele>46.28</ele>
        <time>2020-07-27T09:06:05Z</time>
      </trkpt>
      <trkpt lat="44.67398" lon="-0.08805">
        <ele>44.84</ele>
        <time>2020-07-27T09:06:11Z</time>
      </trkpt>
      <trkpt lat="44.67401" lon="-0.08818">
        <ele>45.32</ele>
        <time>2020-07-27T09:06:19Z</time>
      </trkpt>
      <trkpt lat="44.67404" lon="-0.08826">
        <ele>43.88</ele>
        <time>2020-07-27T09:06:24Z</time>
      </trkpt>
      <trkpt lat="44.67409" lon="-0.08835">
        <ele>42.92</ele>
        <time>2020-07-27T09:06:33Z</time>
      </trkpt>
      <trkpt lat="44.67417" lon="-0.08854">
        <ele>41.95</ele>
        <time>2020-07-27T09:06:45Z</time>
      </trkpt>
      <trkpt lat="44.67418" lon="-0.08858">
        <ele>43.4</ele>
        <time>2020-07-27T09:06:47Z</time>
      </trkpt>
      <trkpt lat="44.67425" lon="-0.08885">
        <ele>40.51</ele>
        <time>2020-07-27T09:07:01Z</time>
      </trkpt>
      <trkpt lat="44.67419" lon="-0.08908">
        <ele>40.51</ele>
        <time>2020-07-27T09:07:20Z</time>
      </trkpt>
      <trkpt lat="44.67403" lon="-0.08917">
        <ele>39.55</ele>
        <time>2020-07-27T09:07:35Z</time>
      </trkpt>
      <trkpt lat="44.67399" lon="-0.0892">
        <ele>38.11</ele>
        <time>2020-07-27T09:07:38Z</time>
      </trkpt>
      <trkpt lat="44.67392" lon="-0.08925">
        <ele>39.07</ele>
        <time>2020-07-27T09:07:42Z</time>
      </trkpt>
      <trkpt lat="44.67381" lon="-0.08932">
        <ele>37.63</ele>
        <time>2020-07-27T09:07:50Z</time>
      </trkpt>
      <trkpt lat="44.67379" lon="-0.08935">
        <ele>39.07</ele>
        <time>2020-07-27T09:07:53Z</time>
      </trkpt>
      <trkpt lat="44.67374" lon="-0.08938">
        <ele>37.63</ele>
        <time>2020-07-27T09:07:57Z</time>
      </trkpt>
      <trkpt lat="44.6737" lon="-0.0894">
        <ele>39.55</ele>
        <time>2020-07-27T09:08:00Z</time>
      </trkpt>
      <trkpt lat="44.67348" lon="-0.08958">
        <ele>39.07</ele>
        <time>2020-07-27T09:08:17Z</time>
      </trkpt>
      <trkpt lat="44.67329" lon="-0.08969">
        <ele>39.07</ele>
        <time>2020-07-27T09:08:34Z</time>
      </trkpt>
      <trkpt lat="44.67307" lon="-0.08983">
        <ele>39.55</ele>
        <time>2020-07-27T09:08:54Z</time>
      </trkpt>
      <trkpt lat="44.6729" lon="-0.08995">
        <ele>39.55</ele>
        <time>2020-07-27T09:09:11Z</time>
      </trkpt>
      <trkpt lat="44.67261" lon="-0.08999">
        <ele>40.03</ele>
        <time>2020-07-27T09:09:33Z</time>
      </trkpt>
      <trkpt lat="44.67254" lon="-0.08989">
        <ele>40.99</ele>
        <time>2020-07-27T09:09:44Z</time>
      </trkpt>
      <trkpt lat="44.6725" lon="-0.08977">
        <ele>40.99</ele>
        <time>2020-07-27T09:09:52Z</time>
      </trkpt>
      <trkpt lat="44.67238" lon="-0.08951">
        <ele>42.44</ele>
        <time>2020-07-27T09:10:11Z</time>
      </trkpt>
      <trkpt lat="44.67233" lon="-0.08937">
        <ele>42.44</ele>
        <time>2020-07-27T09:10:20Z</time>
      </trkpt>
      <trkpt lat="44.67228" lon="-0.08911">
        <ele>43.4</ele>
        <time>2020-07-27T09:10:36Z</time>
      </trkpt>
      <trkpt lat="44.67226" lon="-0.08905">
        <ele>44.36</ele>
        <time>2020-07-27T09:10:41Z</time>
      </trkpt>
      <trkpt lat="44.6722" lon="-0.08882">
        <ele>44.84</ele>
        <time>2020-07-27T09:10:59Z</time>
      </trkpt>
      <trkpt lat="44.67216" lon="-0.08865">
        <ele>45.8</ele>
        <time>2020-07-27T09:11:15Z</time>
      </trkpt>
      <trkpt lat="44.6721" lon="-0.08835">
        <ele>47.24</ele>
        <time>2020-07-27T09:11:34Z</time>
      </trkpt>
      <trkpt lat="44.67201" lon="-0.08802">
        <ele>48.68</ele>
        <time>2020-07-27T09:11:54Z</time>
      </trkpt>
      <trkpt lat="44.6719" lon="-0.08777">
        <ele>50.61</ele>
        <time>2020-07-27T09:12:14Z</time>
      </trkpt>
      <trkpt lat="44.6718" lon="-0.08756">
        <ele>51.09</ele>
        <time>2020-07-27T09:12:32Z</time>
      </trkpt>
      <trkpt lat="44.67163" lon="-0.08736">
        <ele>52.05</ele>
        <time>2020-07-27T09:12:51Z</time>
      </trkpt>
      <trkpt lat="44.67144" lon="-0.08715">
        <ele>53.01</ele>
        <time>2020-07-27T09:13:11Z</time>
      </trkpt>
      <trkpt lat="44.67121" lon="-0.08693">
        <ele>53.97</ele>
        <time>2020-07-27T09:13:32Z</time>
      </trkpt>
      <trkpt lat="44.67118" lon="-0.0869">
        <ele>53.01</ele>
        <time>2020-07-27T09:13:35Z</time>
      </trkpt>
      <trkpt lat="44.67114" lon="-0.08687">
        <ele>53.97</ele>
        <time>2020-07-27T09:13:39Z</time>
      </trkpt>
      <trkpt lat="44.67098" lon="-0.08671">
        <ele>54.45</ele>
        <time>2020-07-27T09:14:00Z</time>
      </trkpt>
      <trkpt lat="44.67092" lon="-0.08667">
        <ele>54.93</ele>
        <time>2020-07-27T09:14:21Z</time>
      </trkpt>
      <trkpt lat="44.67079" lon="-0.08653">
        <ele>55.41</ele>
        <time>2020-07-27T09:14:39Z</time>
      </trkpt>
      <trkpt lat="44.67063" lon="-0.0864">
        <ele>56.37</ele>
        <time>2020-07-27T09:14:58Z</time>
      </trkpt>
      <trkpt lat="44.67048" lon="-0.08621">
        <ele>56.86</ele>
        <time>2020-07-27T09:15:17Z</time>
      </trkpt>
      <trkpt lat="44.67033" lon="-0.08607">
        <ele>55.89</ele>
        <time>2020-07-27T09:15:32Z</time>
      </trkpt>
      <trkpt lat="44.67031" lon="-0.08606">
        <ele>57.34</ele>
        <time>2020-07-27T09:15:34Z</time>
      </trkpt>
      <trkpt lat="44.67014" lon="-0.08591">
        <ele>57.34</ele>
        <time>2020-07-27T09:15:51Z</time>
      </trkpt>
      <trkpt lat="44.67" lon="-0.08579">
        <ele>55.41</ele>
        <time>2020-07-27T09:16:04Z</time>
      </trkpt>
      <trkpt lat="44.66998" lon="-0.08576">
        <ele>57.34</ele>
        <time>2020-07-27T09:16:06Z</time>
      </trkpt>
      <trkpt lat="44.66996" lon="-0.0857">
        <ele>57.34</ele>
        <time>2020-07-27T09:16:10Z</time>
      </trkpt>
      <trkpt lat="44.66976" lon="-0.08541">
        <ele>56.37</ele>
        <time>2020-07-27T09:16:31Z</time>
      </trkpt>
      <trkpt lat="44.66975" lon="-0.08538">
        <ele>57.82</ele>
        <time>2020-07-27T09:16:33Z</time>
      </trkpt>
      <trkpt lat="44.66965" lon="-0.08513">
        <ele>55.89</ele>
        <time>2020-07-27T09:16:48Z</time>
      </trkpt>
      <trkpt lat="44.66964" lon="-0.08512">
        <ele>56.86</ele>
        <time>2020-07-27T09:16:50Z</time>
      </trkpt>
      <trkpt lat="44.66956" lon="-0.08496">
        <ele>55.89</ele>
        <time>2020-07-27T09:17:01Z</time>
      </trkpt>
      <trkpt lat="44.66938" lon="-0.08459">
        <ele>56.86</ele>
        <time>2020-07-27T09:17:25Z</time>
      </trkpt>
      <trkpt lat="44.66928" lon="-0.0845">
        <ele>55.89</ele>
        <time>2020-07-27T09:17:39Z</time>
      </trkpt>
      <trkpt lat="44.6692" lon="-0.08468">
        <ele>55.89</ele>
        <time>2020-07-27T09:18:05Z</time>
      </trkpt>
      <trkpt lat="44.6692" lon="-0.08449">
        <ele>55.41</ele>
        <time>2020-07-27T09:18:20Z</time>
      </trkpt>
      <trkpt lat="44.66902" lon="-0.08444">
        <ele>53.49</ele>
        <time>2020-07-27T09:18:36Z</time>
      </trkpt>
      <trkpt lat="44.66891" lon="-0.08437">
        <ele>53.01</ele>
        <time>2020-07-27T09:18:47Z</time>
      </trkpt>
      <trkpt lat="44.66889" lon="-0.08436">
        <ele>54.45</ele>
        <time>2020-07-27T09:18:49Z</time>
      </trkpt>
      <trkpt lat="44.66881" lon="-0.08434">
        <ele>53.01</ele>
        <time>2020-07-27T09:18:56Z</time>
      </trkpt>
      <trkpt lat="44.66859" lon="-0.08434">
        <ele>54.45</ele>
        <time>2020-07-27T09:19:13Z</time>
      </trkpt>
      <trkpt lat="44.66831" lon="-0.08443">
        <ele>54.45</ele>
        <time>2020-07-27T09:19:38Z</time>
      </trkpt>
      <trkpt lat="44.66802" lon="-0.08451">
        <ele>56.86</ele>
        <time>2020-07-27T09:20:03Z</time>
      </trkpt>
      <trkpt lat="44.66778" lon="-0.08457">
        <ele>58.3</ele>
        <time>2020-07-27T09:20:25Z</time>
      </trkpt>
      <trkpt lat="44.66754" lon="-0.08465">
        <ele>60.7</ele>
        <time>2020-07-27T09:20:46Z</time>
      </trkpt>
      <trkpt lat="44.66737" lon="-0.08468">
        <ele>61.66</ele>
        <time>2020-07-27T09:20:59Z</time>
      </trkpt>
      <trkpt lat="44.66714" lon="-0.08472">
        <ele>63.1</ele>
        <time>2020-07-27T09:21:19Z</time>
      </trkpt>
      <trkpt lat="44.66695" lon="-0.08478">
        <ele>64.07</ele>
        <time>2020-07-27T09:21:37Z</time>
      </trkpt>
      <trkpt lat="44.66693" lon="-0.08478">
        <ele>62.62</ele>
        <time>2020-07-27T09:21:39Z</time>
      </trkpt>
      <trkpt lat="44.66664" lon="-0.08483">
        <ele>64.07</ele>
        <time>2020-07-27T09:22:02Z</time>
      </trkpt>
      <trkpt lat="44.66648" lon="-0.08486">
        <ele>63.1</ele>
        <time>2020-07-27T09:22:14Z</time>
      </trkpt>
      <trkpt lat="44.66644" lon="-0.08487">
        <ele>64.55</ele>
        <time>2020-07-27T09:22:17Z</time>
      </trkpt>
      <trkpt lat="44.66639" lon="-0.08487">
        <ele>63.58</ele>
        <time>2020-07-27T09:22:21Z</time>
      </trkpt>
      <trkpt lat="44.66634" lon="-0.08485">
        <ele>65.03</ele>
        <time>2020-07-27T09:22:25Z</time>
      </trkpt>
      <trkpt lat="44.66631" lon="-0.08485">
        <ele>63.58</ele>
        <time>2020-07-27T09:22:27Z</time>
      </trkpt>
      <trkpt lat="44.66621" lon="-0.08477">
        <ele>65.03</ele>
        <time>2020-07-27T09:22:38Z</time>
      </trkpt>
      <trkpt lat="44.6661" lon="-0.08456">
        <ele>65.51</ele>
        <time>2020-07-27T09:22:55Z</time>
      </trkpt>
      <trkpt lat="44.66597" lon="-0.08429">
        <ele>66.47</ele>
        <time>2020-07-27T09:23:14Z</time>
      </trkpt>
      <trkpt lat="44.66595" lon="-0.08424">
        <ele>66.47</ele>
        <time>2020-07-27T09:23:17Z</time>
      </trkpt>
      <trkpt lat="44.66576" lon="-0.08395">
        <ele>66.47</ele>
        <time>2020-07-27T09:23:38Z</time>
      </trkpt>
      <trkpt lat="44.66572" lon="-0.08388">
        <ele>67.91</ele>
        <time>2020-07-27T09:23:44Z</time>
      </trkpt>
      <trkpt lat="44.66556" lon="-0.0836">
        <ele>68.39</ele>
        <time>2020-07-27T09:24:06Z</time>
      </trkpt>
      <trkpt lat="44.6654" lon="-0.08335">
        <ele>69.83</ele>
        <time>2020-07-27T09:24:26Z</time>
      </trkpt>
      <trkpt lat="44.66537" lon="-0.08331">
        <ele>68.39</ele>
        <time>2020-07-27T09:24:29Z</time>
      </trkpt>
      <trkpt lat="44.66536" lon="-0.08329">
        <ele>69.35</ele>
        <time>2020-07-27T09:24:31Z</time>
      </trkpt>
      <trkpt lat="44.66531" lon="-0.08323">
        <ele>67.43</ele>
        <time>2020-07-27T09:24:36Z</time>
      </trkpt>
      <trkpt lat="44.6652" lon="-0.08311">
        <ele>67.91</ele>
        <time>2020-07-27T09:24:57Z</time>
      </trkpt>
      <trkpt lat="44.66515" lon="-0.08304">
        <ele>66.95</ele>
        <time>2020-07-27T09:25:04Z</time>
      </trkpt>
      <trkpt lat="44.66509" lon="-0.08298">
        <ele>65.51</ele>
        <time>2020-07-27T09:25:17Z</time>
      </trkpt>
      <trkpt lat="44.66495" lon="-0.08267">
        <ele>64.55</ele>
        <time>2020-07-27T09:25:38Z</time>
      </trkpt>
      <trkpt lat="44.66476" lon="-0.08243">
        <ele>63.58</ele>
        <time>2020-07-27T09:25:59Z</time>
      </trkpt>
      <trkpt lat="44.66455" lon="-0.08222">
        <ele>61.66</ele>
        <time>2020-07-27T09:26:19Z</time>
      </trkpt>
      <trkpt lat="44.66433" lon="-0.08196">
        <ele>60.7</ele>
        <time>2020-07-27T09:26:41Z</time>
      </trkpt>
      <trkpt lat="44.66424" lon="-0.08191">
        <ele>59.74</ele>
        <time>2020-07-27T09:26:49Z</time>
      </trkpt>
      <trkpt lat="44.66403" lon="-0.08173">
        <ele>59.74</ele>
        <time>2020-07-27T09:27:10Z</time>
      </trkpt>
      <trkpt lat="44.66398" lon="-0.0817">
        <ele>58.3</ele>
        <time>2020-07-27T09:27:15Z</time>
      </trkpt>
      <trkpt lat="44.66375" lon="-0.08149">
        <ele>57.34</ele>
        <time>2020-07-27T09:27:36Z</time>
      </trkpt>
      <trkpt lat="44.66374" lon="-0.08148">
        <ele>57.34</ele>
        <time>2020-07-27T09:27:37Z</time>
      </trkpt>
      <trkpt lat="44.66358" lon="-0.08129">
        <ele>58.78</ele>
        <time>2020-07-27T09:27:52Z</time>
      </trkpt>
      <trkpt lat="44.66343" lon="-0.08107">
        <ele>56.86</ele>
        <time>2020-07-27T09:28:11Z</time>
      </trkpt>
      <trkpt lat="44.66342" lon="-0.08106">
        <ele>56.86</ele>
        <time>2020-07-27T09:28:12Z</time>
      </trkpt>
      <trkpt lat="44.66322" lon="-0.08086">
        <ele>58.78</ele>
        <time>2020-07-27T09:28:32Z</time>
      </trkpt>
      <trkpt lat="44.66305" lon="-0.08068">
        <ele>58.78</ele>
        <time>2020-07-27T09:28:50Z</time>
      </trkpt>
      <trkpt lat="44.66292" lon="-0.08058">
        <ele>59.26</ele>
        <time>2020-07-27T09:29:08Z</time>
      </trkpt>
      <trkpt lat="44.66281" lon="-0.08045">
        <ele>59.26</ele>
        <time>2020-07-27T09:29:26Z</time>
      </trkpt>
      <trkpt lat="44.6628" lon="-0.08045">
        <ele>59.74</ele>
        <time>2020-07-27T09:29:53Z</time>
      </trkpt>
      <trkpt lat="44.66281" lon="-0.08044">
        <ele>59.74</ele>
        <time>2020-07-27T09:30:14Z</time>
      </trkpt>
      <trkpt lat="44.66283" lon="-0.0804">
        <ele>59.74</ele>
        <time>2020-07-27T09:30:46Z</time>
      </trkpt>
      <trkpt lat="44.66278" lon="-0.08032">
        <ele>58.3</ele>
        <time>2020-07-27T09:31:01Z</time>
      </trkpt>
      <trkpt lat="44.66258" lon="-0.08006">
        <ele>59.26</ele>
        <time>2020-07-27T09:31:22Z</time>
      </trkpt>
      <trkpt lat="44.66244" lon="-0.07984">
        <ele>59.26</ele>
        <time>2020-07-27T09:31:40Z</time>
      </trkpt>
      <trkpt lat="44.66233" lon="-0.07966">
        <ele>59.26</ele>
        <time>2020-07-27T09:31:54Z</time>
      </trkpt>
      <trkpt lat="44.66226" lon="-0.07961">
        <ele>59.26</ele>
        <time>2020-07-27T09:32:02Z</time>
      </trkpt>
      <trkpt lat="44.66224" lon="-0.07959">
        <ele>59.26</ele>
        <time>2020-07-27T09:32:04Z</time>
      </trkpt>
      <trkpt lat="44.6622" lon="-0.07959">
        <ele>59.26</ele>
        <time>2020-07-27T09:32:06Z</time>
      </trkpt>
      <trkpt lat="44.66218" lon="-0.07958">
        <ele>59.26</ele>
        <time>2020-07-27T09:32:07Z</time>
      </trkpt>
      <trkpt lat="44.66216" lon="-0.07957">
        <ele>59.26</ele>
        <time>2020-07-27T09:32:08Z</time>
      </trkpt>
      <trkpt lat="44.66214" lon="-0.07957">
        <ele>59.26</ele>
        <time>2020-07-27T09:32:09Z</time>
      </trkpt>
      <trkpt lat="44.66213" lon="-0.07957">
        <ele>59.26</ele>
        <time>2020-07-27T09:32:10Z</time>
      </trkpt>
      <trkpt lat="44.66211" lon="-0.07957">
        <ele>59.26</ele>
        <time>2020-07-27T09:32:11Z</time>
      </trkpt>
      <trkpt lat="44.6619" lon="-0.07953">
        <ele>58.3</ele>
        <time>2020-07-27T09:32:27Z</time>
      </trkpt>
      <trkpt lat="44.66188" lon="-0.0795">
        <ele>58.3</ele>
        <time>2020-07-27T09:32:30Z</time>
      </trkpt>
      <trkpt lat="44.66187" lon="-0.07949">
        <ele>58.3</ele>
        <time>2020-07-27T09:32:31Z</time>
      </trkpt>
      <trkpt lat="44.66185" lon="-0.07947">
        <ele>58.3</ele>
        <time>2020-07-27T09:32:33Z</time>
      </trkpt>
      <trkpt lat="44.66184" lon="-0.07946">
        <ele>58.3</ele>
        <time>2020-07-27T09:32:34Z</time>
      </trkpt>
      <trkpt lat="44.66183" lon="-0.07944">
        <ele>58.3</ele>
        <time>2020-07-27T09:32:35Z</time>
      </trkpt>
      <trkpt lat="44.66182" lon="-0.07943">
        <ele>58.3</ele>
        <time>2020-07-27T09:32:36Z</time>
      </trkpt>
      <trkpt lat="44.6618" lon="-0.07942">
        <ele>58.3</ele>
        <time>2020-07-27T09:32:37Z</time>
      </trkpt>
      <trkpt lat="44.66174" lon="-0.07939">
        <ele>58.78</ele>
        <time>2020-07-27T09:32:42Z</time>
      </trkpt>
      <trkpt lat="44.66157" lon="-0.07925">
        <ele>56.37</ele>
        <time>2020-07-27T09:32:59Z</time>
      </trkpt>
      <trkpt lat="44.66154" lon="-0.07923">
        <ele>58.3</ele>
        <time>2020-07-27T09:33:01Z</time>
      </trkpt>
      <trkpt lat="44.66152" lon="-0.07922">
        <ele>56.86</ele>
        <time>2020-07-27T09:33:03Z</time>
      </trkpt>
      <trkpt lat="44.6615" lon="-0.07921">
        <ele>58.3</ele>
        <time>2020-07-27T09:33:05Z</time>
      </trkpt>
      <trkpt lat="44.66121" lon="-0.07901">
        <ele>58.3</ele>
        <time>2020-07-27T09:33:27Z</time>
      </trkpt>
      <trkpt lat="44.66119" lon="-0.07899">
        <ele>56.37</ele>
        <time>2020-07-27T09:33:29Z</time>
      </trkpt>
      <trkpt lat="44.66117" lon="-0.07898">
        <ele>57.82</ele>
        <time>2020-07-27T09:33:31Z</time>
      </trkpt>
      <trkpt lat="44.66108" lon="-0.07894">
        <ele>58.3</ele>
        <time>2020-07-27T09:33:38Z</time>
      </trkpt>
      <trkpt lat="44.66101" lon="-0.07892">
        <ele>58.3</ele>
        <time>2020-07-27T09:33:46Z</time>
      </trkpt>
      <trkpt lat="44.66095" lon="-0.07892">
        <ele>56.86</ele>
        <time>2020-07-27T09:33:51Z</time>
      </trkpt>
      <trkpt lat="44.66084" lon="-0.07896">
        <ele>58.3</ele>
        <time>2020-07-27T09:34:00Z</time>
      </trkpt>
      <trkpt lat="44.66066" lon="-0.07914">
        <ele>57.82</ele>
        <time>2020-07-27T09:34:20Z</time>
      </trkpt>
      <trkpt lat="44.66064" lon="-0.07916">
        <ele>58.3</ele>
        <time>2020-07-27T09:34:22Z</time>
      </trkpt>
      <trkpt lat="44.66035" lon="-0.07938">
        <ele>58.3</ele>
        <time>2020-07-27T09:34:44Z</time>
      </trkpt>
      <trkpt lat="44.66012" lon="-0.07942">
        <ele>58.78</ele>
        <time>2020-07-27T09:35:05Z</time>
      </trkpt>
      <trkpt lat="44.65992" lon="-0.07931">
        <ele>58.78</ele>
        <time>2020-07-27T09:35:23Z</time>
      </trkpt>
      <trkpt lat="44.65979" lon="-0.07913">
        <ele>59.26</ele>
        <time>2020-07-27T09:35:40Z</time>
      </trkpt>
      <trkpt lat="44.65978" lon="-0.07912">
        <ele>59.26</ele>
        <time>2020-07-27T09:35:41Z</time>
      </trkpt>
      <trkpt lat="44.65977" lon="-0.0791">
        <ele>59.26</ele>
        <time>2020-07-27T09:35:42Z</time>
      </trkpt>
      <trkpt lat="44.65976" lon="-0.07909">
        <ele>59.26</ele>
        <time>2020-07-27T09:35:43Z</time>
      </trkpt>
      <trkpt lat="44.65975" lon="-0.07907">
        <ele>59.74</ele>
        <time>2020-07-27T09:35:44Z</time>
      </trkpt>
      <trkpt lat="44.65967" lon="-0.07891">
        <ele>60.22</ele>
        <time>2020-07-27T09:35:56Z</time>
      </trkpt>
      <trkpt lat="44.65962" lon="-0.07883">
        <ele>60.22</ele>
        <time>2020-07-27T09:36:02Z</time>
      </trkpt>
      <trkpt lat="44.6595" lon="-0.07859">
        <ele>60.7</ele>
        <time>2020-07-27T09:36:20Z</time>
      </trkpt>
      <trkpt lat="44.65948" lon="-0.07855">
        <ele>59.26</ele>
        <time>2020-07-27T09:36:23Z</time>
      </trkpt>
      <trkpt lat="44.65944" lon="-0.07851">
        <ele>60.7</ele>
        <time>2020-07-27T09:36:27Z</time>
      </trkpt>
      <trkpt lat="44.65937" lon="-0.07847">
        <ele>59.26</ele>
        <time>2020-07-27T09:36:33Z</time>
      </trkpt>
      <trkpt lat="44.65936" lon="-0.07847">
        <ele>59.26</ele>
        <time>2020-07-27T09:36:34Z</time>
      </trkpt>
      <trkpt lat="44.65935" lon="-0.07847">
        <ele>59.26</ele>
        <time>2020-07-27T09:36:35Z</time>
      </trkpt>
      <trkpt lat="44.65933" lon="-0.07846">
        <ele>59.26</ele>
        <time>2020-07-27T09:36:36Z</time>
      </trkpt>
      <trkpt lat="44.65916" lon="-0.07852">
        <ele>59.74</ele>
        <time>2020-07-27T09:36:50Z</time>
      </trkpt>
      <trkpt lat="44.65912" lon="-0.07852">
        <ele>61.18</ele>
        <time>2020-07-27T09:36:53Z</time>
      </trkpt>
      <trkpt lat="44.65904" lon="-0.07851">
        <ele>59.74</ele>
        <time>2020-07-27T09:36:59Z</time>
      </trkpt>
      <trkpt lat="44.65901" lon="-0.0785">
        <ele>60.7</ele>
        <time>2020-07-27T09:37:02Z</time>
      </trkpt>
      <trkpt lat="44.65897" lon="-0.07851">
        <ele>60.22</ele>
        <time>2020-07-27T09:37:06Z</time>
      </trkpt>
      <trkpt lat="44.65893" lon="-0.07849">
        <ele>61.18</ele>
        <time>2020-07-27T09:37:10Z</time>
      </trkpt>
      <trkpt lat="44.65869" lon="-0.07839">
        <ele>61.18</ele>
        <time>2020-07-27T09:37:30Z</time>
      </trkpt>
      <trkpt lat="44.65859" lon="-0.07833">
        <ele>61.66</ele>
        <time>2020-07-27T09:37:48Z</time>
      </trkpt>
      <trkpt lat="44.65857" lon="-0.07833">
        <ele>62.14</ele>
        <time>2020-07-27T09:38:11Z</time>
      </trkpt>
      <trkpt lat="44.65857" lon="-0.07832">
        <ele>62.14</ele>
        <time>2020-07-27T09:38:38Z</time>
      </trkpt>
      <trkpt lat="44.65848" lon="-0.0783">
        <ele>62.62</ele>
        <time>2020-07-27T09:39:01Z</time>
      </trkpt>
      <trkpt lat="44.65837" lon="-0.07827">
        <ele>62.62</ele>
        <time>2020-07-27T09:39:19Z</time>
      </trkpt>
      <trkpt lat="44.65836" lon="-0.07828">
        <ele>62.62</ele>
        <time>2020-07-27T09:39:42Z</time>
      </trkpt>
      <trkpt lat="44.65836" lon="-0.07825">
        <ele>62.62</ele>
        <time>2020-07-27T09:40:05Z</time>
      </trkpt>
      <trkpt lat="44.65836" lon="-0.07825">
        <ele>62.62</ele>
        <time>2020-07-27T09:40:42Z</time>
      </trkpt>
      <trkpt lat="44.65823" lon="-0.07824">
        <ele>63.1</ele>
        <time>2020-07-27T09:40:56Z</time>
      </trkpt>
      <trkpt lat="44.65819" lon="-0.07822">
        <ele>63.1</ele>
        <time>2020-07-27T09:41:03Z</time>
      </trkpt>
      <trkpt lat="44.65801" lon="-0.07821">
        <ele>63.1</ele>
        <time>2020-07-27T09:41:21Z</time>
      </trkpt>
      <trkpt lat="44.65799" lon="-0.07822">
        <ele>64.55</ele>
        <time>2020-07-27T09:41:23Z</time>
      </trkpt>
      <trkpt lat="44.65785" lon="-0.07822">
        <ele>63.1</ele>
        <time>2020-07-27T09:41:35Z</time>
      </trkpt>
      <trkpt lat="44.65782" lon="-0.07823">
        <ele>64.55</ele>
        <time>2020-07-27T09:41:37Z</time>
      </trkpt>
      <trkpt lat="44.65761" lon="-0.07823">
        <ele>65.03</ele>
        <time>2020-07-27T09:41:53Z</time>
      </trkpt>
      <trkpt lat="44.65757" lon="-0.07822">
        <ele>65.03</ele>
        <time>2020-07-27T09:41:56Z</time>
      </trkpt>
      <trkpt lat="44.65756" lon="-0.07823">
        <ele>65.03</ele>
        <time>2020-07-27T09:41:57Z</time>
      </trkpt>
      <trkpt lat="44.65755" lon="-0.07823">
        <ele>65.03</ele>
        <time>2020-07-27T09:41:58Z</time>
      </trkpt>
      <trkpt lat="44.65754" lon="-0.07823">
        <ele>65.51</ele>
        <time>2020-07-27T09:41:59Z</time>
      </trkpt>
      <trkpt lat="44.65753" lon="-0.07823">
        <ele>65.51</ele>
        <time>2020-07-27T09:42:00Z</time>
      </trkpt>
      <trkpt lat="44.65744" lon="-0.07821">
        <ele>65.99</ele>
        <time>2020-07-27T09:42:09Z</time>
      </trkpt>
      <trkpt lat="44.65741" lon="-0.07828">
        <ele>66.47</ele>
        <time>2020-07-27T09:42:15Z</time>
      </trkpt>
      <trkpt lat="44.65739" lon="-0.0783">
        <ele>66.47</ele>
        <time>2020-07-27T09:42:18Z</time>
      </trkpt>
      <trkpt lat="44.65727" lon="-0.07828">
        <ele>67.43</ele>
        <time>2020-07-27T09:42:31Z</time>
      </trkpt>
      <trkpt lat="44.65721" lon="-0.07825">
        <ele>67.91</ele>
        <time>2020-07-27T09:42:37Z</time>
      </trkpt>
      <trkpt lat="44.65706" lon="-0.07816">
        <ele>68.87</ele>
        <time>2020-07-27T09:42:52Z</time>
      </trkpt>
      <trkpt lat="44.65685" lon="-0.07811">
        <ele>69.83</ele>
        <time>2020-07-27T09:43:13Z</time>
      </trkpt>
      <trkpt lat="44.65671" lon="-0.07814">
        <ele>71.27</ele>
        <time>2020-07-27T09:43:27Z</time>
      </trkpt>
      <trkpt lat="44.65656" lon="-0.07819">
        <ele>72.72</ele>
        <time>2020-07-27T09:43:45Z</time>
      </trkpt>
      <trkpt lat="44.65647" lon="-0.07803">
        <ele>73.2</ele>
        <time>2020-07-27T09:44:03Z</time>
      </trkpt>
      <trkpt lat="44.65645" lon="-0.07793">
        <ele>73.2</ele>
        <time>2020-07-27T09:44:22Z</time>
      </trkpt>
      <trkpt lat="44.65645" lon="-0.07796">
        <ele>73.2</ele>
        <time>2020-07-27T09:44:48Z</time>
      </trkpt>
      <trkpt lat="44.65643" lon="-0.07787">
        <ele>72.72</ele>
        <time>2020-07-27T09:45:07Z</time>
      </trkpt>
      <trkpt lat="44.65642" lon="-0.07788">
        <ele>72.72</ele>
        <time>2020-07-27T09:45:25Z</time>
      </trkpt>
      <trkpt lat="44.65639" lon="-0.07786">
        <ele>72.72</ele>
        <time>2020-07-27T09:46:00Z</time>
      </trkpt>
      <trkpt lat="44.65639" lon="-0.07783">
        <ele>73.2</ele>
        <time>2020-07-27T09:46:25Z</time>
      </trkpt>
      <trkpt lat="44.65629" lon="-0.07773">
        <ele>74.16</ele>
        <time>2020-07-27T09:46:42Z</time>
      </trkpt>
      <trkpt lat="44.65617" lon="-0.07764">
        <ele>75.12</ele>
        <time>2020-07-27T09:46:58Z</time>
      </trkpt>
      <trkpt lat="44.65608" lon="-0.07755">
        <ele>75.6</ele>
        <time>2020-07-27T09:47:36Z</time>
      </trkpt>
      <trkpt lat="44.65595" lon="-0.07739">
        <ele>76.08</ele>
        <time>2020-07-27T09:47:53Z</time>
      </trkpt>
      <trkpt lat="44.6558" lon="-0.07711">
        <ele>74.64</ele>
        <time>2020-07-27T09:48:13Z</time>
      </trkpt>
      <trkpt lat="44.6557" lon="-0.07686">
        <ele>77.04</ele>
        <time>2020-07-27T09:48:30Z</time>
      </trkpt>
      <trkpt lat="44.65562" lon="-0.07666">
        <ele>75.6</ele>
        <time>2020-07-27T09:48:41Z</time>
      </trkpt>
      <trkpt lat="44.65555" lon="-0.0765">
        <ele>77.52</ele>
        <time>2020-07-27T09:48:50Z</time>
      </trkpt>
      <trkpt lat="44.65541" lon="-0.07617">
        <ele>78</ele>
        <time>2020-07-27T09:49:09Z</time>
      </trkpt>
      <trkpt lat="44.65525" lon="-0.07582">
        <ele>78.48</ele>
        <time>2020-07-27T09:49:30Z</time>
      </trkpt>
      <trkpt lat="44.65518" lon="-0.07562">
        <ele>78.97</ele>
        <time>2020-07-27T09:49:41Z</time>
      </trkpt>
      <trkpt lat="44.65513" lon="-0.07553">
        <ele>77.52</ele>
        <time>2020-07-27T09:49:47Z</time>
      </trkpt>
      <trkpt lat="44.65511" lon="-0.07545">
        <ele>77.04</ele>
        <time>2020-07-27T09:49:52Z</time>
      </trkpt>
      <trkpt lat="44.65504" lon="-0.07533">
        <ele>78.48</ele>
        <time>2020-07-27T09:50:04Z</time>
      </trkpt>
      <trkpt lat="44.65502" lon="-0.07531">
        <ele>78.48</ele>
        <time>2020-07-27T09:50:06Z</time>
      </trkpt>
      <trkpt lat="44.65498" lon="-0.0753">
        <ele>77.04</ele>
        <time>2020-07-27T09:50:10Z</time>
      </trkpt>
      <trkpt lat="44.65476" lon="-0.07542">
        <ele>78.48</ele>
        <time>2020-07-27T09:50:29Z</time>
      </trkpt>
      <trkpt lat="44.65467" lon="-0.07549">
        <ele>78.48</ele>
        <time>2020-07-27T09:50:44Z</time>
      </trkpt>
      <trkpt lat="44.65469" lon="-0.07542">
        <ele>78.48</ele>
        <time>2020-07-27T09:50:48Z</time>
      </trkpt>
      <trkpt lat="44.65467" lon="-0.07532">
        <ele>78.48</ele>
        <time>2020-07-27T09:51:05Z</time>
      </trkpt>
      <trkpt lat="44.65467" lon="-0.0753">
        <ele>78.97</ele>
        <time>2020-07-27T09:51:27Z</time>
      </trkpt>
      <trkpt lat="44.65471" lon="-0.07544">
        <ele>78.48</ele>
        <time>2020-07-27T09:51:57Z</time>
      </trkpt>
      <trkpt lat="44.65466" lon="-0.07549">
        <ele>78.48</ele>
        <time>2020-07-27T09:52:03Z</time>
      </trkpt>
      <trkpt lat="44.65452" lon="-0.07559">
        <ele>77.52</ele>
        <time>2020-07-27T09:52:15Z</time>
      </trkpt>
      <trkpt lat="44.6543" lon="-0.07568">
        <ele>77.04</ele>
        <time>2020-07-27T09:52:33Z</time>
      </trkpt>
      <trkpt lat="44.65428" lon="-0.07567">
        <ele>78.97</ele>
        <time>2020-07-27T09:52:35Z</time>
      </trkpt>
      <trkpt lat="44.6541" lon="-0.07574">
        <ele>79.45</ele>
        <time>2020-07-27T09:52:51Z</time>
      </trkpt>
      <trkpt lat="44.65395" lon="-0.07577">
        <ele>78.48</ele>
        <time>2020-07-27T09:53:01Z</time>
      </trkpt>
      <trkpt lat="44.65392" lon="-0.07577">
        <ele>79.93</ele>
        <time>2020-07-27T09:53:03Z</time>
      </trkpt>
      <trkpt lat="44.65381" lon="-0.07576">
        <ele>79.45</ele>
        <time>2020-07-27T09:53:11Z</time>
      </trkpt>
      <trkpt lat="44.65364" lon="-0.07576">
        <ele>78.48</ele>
        <time>2020-07-27T09:53:29Z</time>
      </trkpt>
      <trkpt lat="44.6536" lon="-0.07577">
        <ele>79.93</ele>
        <time>2020-07-27T09:53:34Z</time>
      </trkpt>
      <trkpt lat="44.6533" lon="-0.07583">
        <ele>80.41</ele>
        <time>2020-07-27T09:53:56Z</time>
      </trkpt>
      <trkpt lat="44.65322" lon="-0.07585">
        <ele>78.48</ele>
        <time>2020-07-27T09:54:02Z</time>
      </trkpt>
      <trkpt lat="44.65319" lon="-0.07586">
        <ele>80.41</ele>
        <time>2020-07-27T09:54:04Z</time>
      </trkpt>
      <trkpt lat="44.65298" lon="-0.07598">
        <ele>78.97</ele>
        <time>2020-07-27T09:54:21Z</time>
      </trkpt>
      <trkpt lat="44.65294" lon="-0.07599">
        <ele>79.93</ele>
        <time>2020-07-27T09:54:24Z</time>
      </trkpt>
      <trkpt lat="44.65285" lon="-0.07606">
        <ele>80.41</ele>
        <time>2020-07-27T09:54:32Z</time>
      </trkpt>
      <trkpt lat="44.65277" lon="-0.07611">
        <ele>80.41</ele>
        <time>2020-07-27T09:54:38Z</time>
      </trkpt>
      <trkpt lat="44.65271" lon="-0.07615">
        <ele>78</ele>
        <time>2020-07-27T09:54:44Z</time>
      </trkpt>
      <trkpt lat="44.6527" lon="-0.07615">
        <ele>79.45</ele>
        <time>2020-07-27T09:54:46Z</time>
      </trkpt>
      <trkpt lat="44.65266" lon="-0.07616">
        <ele>78.48</ele>
        <time>2020-07-27T09:54:50Z</time>
      </trkpt>
      <trkpt lat="44.65264" lon="-0.07618">
        <ele>79.45</ele>
        <time>2020-07-27T09:54:52Z</time>
      </trkpt>
      <trkpt lat="44.65258" lon="-0.07626">
        <ele>78</ele>
        <time>2020-07-27T09:55:00Z</time>
      </trkpt>
      <trkpt lat="44.65257" lon="-0.07629">
        <ele>78.97</ele>
        <time>2020-07-27T09:55:02Z</time>
      </trkpt>
      <trkpt lat="44.65245" lon="-0.07641">
        <ele>77.52</ele>
        <time>2020-07-27T09:55:13Z</time>
      </trkpt>
      <trkpt lat="44.65233" lon="-0.07651">
        <ele>76.56</ele>
        <time>2020-07-27T09:55:24Z</time>
      </trkpt>
      <trkpt lat="44.6523" lon="-0.07655">
        <ele>78</ele>
        <time>2020-07-27T09:55:27Z</time>
      </trkpt>
      <trkpt lat="44.65213" lon="-0.07674">
        <ele>76.08</ele>
        <time>2020-07-27T09:55:45Z</time>
      </trkpt>
      <trkpt lat="44.65211" lon="-0.07678">
        <ele>78</ele>
        <time>2020-07-27T09:55:47Z</time>
      </trkpt>
      <trkpt lat="44.65209" lon="-0.07681">
        <ele>76.56</ele>
        <time>2020-07-27T09:55:49Z</time>
      </trkpt>
      <trkpt lat="44.65206" lon="-0.07686">
        <ele>77.52</ele>
        <time>2020-07-27T09:55:54Z</time>
      </trkpt>
      <trkpt lat="44.65191" lon="-0.07712">
        <ele>78</ele>
        <time>2020-07-27T09:56:12Z</time>
      </trkpt>
      <trkpt lat="44.65183" lon="-0.07736">
        <ele>76.08</ele>
        <time>2020-07-27T09:56:28Z</time>
      </trkpt>
      <trkpt lat="44.65181" lon="-0.07757">
        <ele>76.08</ele>
        <time>2020-07-27T09:56:40Z</time>
      </trkpt>
      <trkpt lat="44.6518" lon="-0.07762">
        <ele>73.68</ele>
        <time>2020-07-27T09:56:43Z</time>
      </trkpt>
      <trkpt lat="44.65179" lon="-0.07764">
        <ele>75.12</ele>
        <time>2020-07-27T09:56:45Z</time>
      </trkpt>
      <trkpt lat="44.65176" lon="-0.07778">
        <ele>73.68</ele>
        <time>2020-07-27T09:56:53Z</time>
      </trkpt>
      <trkpt lat="44.65168" lon="-0.07802">
        <ele>74.16</ele>
        <time>2020-07-27T09:57:07Z</time>
      </trkpt>
      <trkpt lat="44.65167" lon="-0.07805">
        <ele>72.72</ele>
        <time>2020-07-27T09:57:09Z</time>
      </trkpt>
      <trkpt lat="44.65161" lon="-0.07823">
        <ele>72.72</ele>
        <time>2020-07-27T09:57:21Z</time>
      </trkpt>
      <trkpt lat="44.65157" lon="-0.0783">
        <ele>71.27</ele>
        <time>2020-07-27T09:57:26Z</time>
      </trkpt>
      <trkpt lat="44.65155" lon="-0.07838">
        <ele>72.72</ele>
        <time>2020-07-27T09:57:30Z</time>
      </trkpt>
      <trkpt lat="44.65152" lon="-0.07849">
        <ele>71.27</ele>
        <time>2020-07-27T09:57:36Z</time>
      </trkpt>
      <trkpt lat="44.65144" lon="-0.07877">
        <ele>70.79</ele>
        <time>2020-07-27T09:57:52Z</time>
      </trkpt>
      <trkpt lat="44.65135" lon="-0.07901">
        <ele>70.31</ele>
        <time>2020-07-27T09:58:08Z</time>
      </trkpt>
      <trkpt lat="44.65131" lon="-0.07928">
        <ele>69.83</ele>
        <time>2020-07-27T09:58:23Z</time>
      </trkpt>
      <trkpt lat="44.6513" lon="-0.07932">
        <ele>71.27</ele>
        <time>2020-07-27T09:58:25Z</time>
      </trkpt>
      <trkpt lat="44.65126" lon="-0.07953">
        <ele>70.31</ele>
        <time>2020-07-27T09:58:37Z</time>
      </trkpt>
      <trkpt lat="44.65123" lon="-0.07984">
        <ele>70.31</ele>
        <time>2020-07-27T09:58:53Z</time>
      </trkpt>
      <trkpt lat="44.6512" lon="-0.08008">
        <ele>70.31</ele>
        <time>2020-07-27T09:59:08Z</time>
      </trkpt>
      <trkpt lat="44.65121" lon="-0.0801">
        <ele>70.31</ele>
        <time>2020-07-27T09:59:22Z</time>
      </trkpt>
      <trkpt lat="44.65118" lon="-0.08027">
        <ele>70.79</ele>
        <time>2020-07-27T09:59:32Z</time>
      </trkpt>
      <trkpt lat="44.65114" lon="-0.0804">
        <ele>70.79</ele>
        <time>2020-07-27T09:59:41Z</time>
      </trkpt>
      <trkpt lat="44.65115" lon="-0.08051">
        <ele>70.79</ele>
        <time>2020-07-27T09:59:47Z</time>
      </trkpt>
      <trkpt lat="44.6511" lon="-0.08074">
        <ele>70.31</ele>
        <time>2020-07-27T10:00:02Z</time>
      </trkpt>
      <trkpt lat="44.65108" lon="-0.08086">
        <ele>69.83</ele>
        <time>2020-07-27T10:00:10Z</time>
      </trkpt>
      <trkpt lat="44.65102" lon="-0.08111">
        <ele>71.27</ele>
        <time>2020-07-27T10:00:27Z</time>
      </trkpt>
      <trkpt lat="44.65105" lon="-0.08125">
        <ele>71.27</ele>
        <time>2020-07-27T10:00:43Z</time>
      </trkpt>
      <trkpt lat="44.651" lon="-0.08126">
        <ele>71.27</ele>
        <time>2020-07-27T10:01:10Z</time>
      </trkpt>
      <trkpt lat="44.65103" lon="-0.08128">
        <ele>71.27</ele>
        <time>2020-07-27T10:01:33Z</time>
      </trkpt>
      <trkpt lat="44.65102" lon="-0.08129">
        <ele>70.31</ele>
        <time>2020-07-27T10:01:39Z</time>
      </trkpt>
      <trkpt lat="44.65103" lon="-0.08124">
        <ele>71.27</ele>
        <time>2020-07-27T10:01:59Z</time>
      </trkpt>
      <trkpt lat="44.65102" lon="-0.08128">
        <ele>71.27</ele>
        <time>2020-07-27T10:02:20Z</time>
      </trkpt>
      <trkpt lat="44.65099" lon="-0.08138">
        <ele>71.27</ele>
        <time>2020-07-27T10:02:26Z</time>
      </trkpt>
      <trkpt lat="44.65097" lon="-0.08141">
        <ele>71.27</ele>
        <time>2020-07-27T10:02:28Z</time>
      </trkpt>
      <trkpt lat="44.65094" lon="-0.08149">
        <ele>71.27</ele>
        <time>2020-07-27T10:02:33Z</time>
      </trkpt>
      <trkpt lat="44.65087" lon="-0.08176">
        <ele>72.72</ele>
        <time>2020-07-27T10:02:50Z</time>
      </trkpt>
      <trkpt lat="44.65081" lon="-0.08204">
        <ele>72.24</ele>
        <time>2020-07-27T10:03:07Z</time>
      </trkpt>
      <trkpt lat="44.65077" lon="-0.0822">
        <ele>73.68</ele>
        <time>2020-07-27T10:03:28Z</time>
      </trkpt>
      <trkpt lat="44.65073" lon="-0.08212">
        <ele>74.16</ele>
        <time>2020-07-27T10:03:57Z</time>
      </trkpt>
      <trkpt lat="44.65077" lon="-0.08219">
        <ele>74.16</ele>
        <time>2020-07-27T10:04:25Z</time>
      </trkpt>
      <trkpt lat="44.65076" lon="-0.08236">
        <ele>74.64</ele>
        <time>2020-07-27T10:04:42Z</time>
      </trkpt>
      <trkpt lat="44.65075" lon="-0.08248">
        <ele>75.12</ele>
        <time>2020-07-27T10:04:49Z</time>
      </trkpt>
      <trkpt lat="44.65077" lon="-0.08263">
        <ele>75.12</ele>
        <time>2020-07-27T10:04:58Z</time>
      </trkpt>
      <trkpt lat="44.65074" lon="-0.08301">
        <ele>76.56</ele>
        <time>2020-07-27T10:05:18Z</time>
      </trkpt>
      <trkpt lat="44.65074" lon="-0.08335">
        <ele>78.48</ele>
        <time>2020-07-27T10:05:38Z</time>
      </trkpt>
      <trkpt lat="44.65072" lon="-0.08371">
        <ele>78.97</ele>
        <time>2020-07-27T10:05:59Z</time>
      </trkpt>
      <trkpt lat="44.65071" lon="-0.08407">
        <ele>79.45</ele>
        <time>2020-07-27T10:06:18Z</time>
      </trkpt>
      <trkpt lat="44.65066" lon="-0.08435">
        <ele>80.41</ele>
        <time>2020-07-27T10:06:36Z</time>
      </trkpt>
      <trkpt lat="44.65066" lon="-0.08465">
        <ele>80.89</ele>
        <time>2020-07-27T10:06:53Z</time>
      </trkpt>
      <trkpt lat="44.65066" lon="-0.08501">
        <ele>81.85</ele>
        <time>2020-07-27T10:07:14Z</time>
      </trkpt>
      <trkpt lat="44.65067" lon="-0.08514">
        <ele>81.85</ele>
        <time>2020-07-27T10:07:27Z</time>
      </trkpt>
      <trkpt lat="44.65067" lon="-0.08524">
        <ele>80.41</ele>
        <time>2020-07-27T10:07:33Z</time>
      </trkpt>
      <trkpt lat="44.65068" lon="-0.08532">
        <ele>81.85</ele>
        <time>2020-07-27T10:07:49Z</time>
      </trkpt>
      <trkpt lat="44.65067" lon="-0.08535">
        <ele>79.93</ele>
        <time>2020-07-27T10:08:11Z</time>
      </trkpt>
      <trkpt lat="44.65067" lon="-0.08536">
        <ele>79.93</ele>
        <time>2020-07-27T10:08:12Z</time>
      </trkpt>
      <trkpt lat="44.65061" lon="-0.08542">
        <ele>79.93</ele>
        <time>2020-07-27T10:08:22Z</time>
      </trkpt>
      <trkpt lat="44.65048" lon="-0.08545">
        <ele>79.93</ele>
        <time>2020-07-27T10:08:42Z</time>
      </trkpt>
      <trkpt lat="44.65039" lon="-0.08544">
        <ele>79.45</ele>
        <time>2020-07-27T10:09:03Z</time>
      </trkpt>
      <trkpt lat="44.65021" lon="-0.08549">
        <ele>78.97</ele>
        <time>2020-07-27T10:09:20Z</time>
      </trkpt>
      <trkpt lat="44.65016" lon="-0.0855">
        <ele>78.97</ele>
        <time>2020-07-27T10:09:37Z</time>
      </trkpt>
      <trkpt lat="44.65002" lon="-0.08544">
        <ele>78</ele>
        <time>2020-07-27T10:09:55Z</time>
      </trkpt>
      <trkpt lat="44.64979" lon="-0.08537">
        <ele>78.97</ele>
        <time>2020-07-27T10:10:17Z</time>
      </trkpt>
      <trkpt lat="44.64973" lon="-0.08537">
        <ele>78</ele>
        <time>2020-07-27T10:10:25Z</time>
      </trkpt>
      <trkpt lat="44.64972" lon="-0.08539">
        <ele>78</ele>
        <time>2020-07-27T10:10:51Z</time>
      </trkpt>
      <trkpt lat="44.64974" lon="-0.08537">
        <ele>78.97</ele>
        <time>2020-07-27T10:11:24Z</time>
      </trkpt>
      <trkpt lat="44.64958" lon="-0.08533">
        <ele>77.52</ele>
        <time>2020-07-27T10:11:41Z</time>
      </trkpt>
      <trkpt lat="44.64956" lon="-0.08536">
        <ele>78.97</ele>
        <time>2020-07-27T10:11:44Z</time>
      </trkpt>
      <trkpt lat="44.64957" lon="-0.08537">
        <ele>78.97</ele>
        <time>2020-07-27T10:12:08Z</time>
      </trkpt>
      <trkpt lat="44.64948" lon="-0.08526">
        <ele>78.97</ele>
        <time>2020-07-27T10:12:21Z</time>
      </trkpt>
      <trkpt lat="44.64928" lon="-0.08516">
        <ele>77.52</ele>
        <time>2020-07-27T10:12:40Z</time>
      </trkpt>
      <trkpt lat="44.64927" lon="-0.08516">
        <ele>77.52</ele>
        <time>2020-07-27T10:12:41Z</time>
      </trkpt>
      <trkpt lat="44.64916" lon="-0.08512">
        <ele>77.04</ele>
        <time>2020-07-27T10:12:51Z</time>
      </trkpt>
      <trkpt lat="44.64912" lon="-0.08514">
        <ele>77.04</ele>
        <time>2020-07-27T10:13:07Z</time>
      </trkpt>
      <trkpt lat="44.6491" lon="-0.08515">
        <ele>77.04</ele>
        <time>2020-07-27T10:13:35Z</time>
      </trkpt>
      <trkpt lat="44.64909" lon="-0.08514">
        <ele>77.04</ele>
        <time>2020-07-27T10:13:56Z</time>
      </trkpt>
      <trkpt lat="44.64904" lon="-0.0851">
        <ele>77.04</ele>
        <time>2020-07-27T10:14:01Z</time>
      </trkpt>
      <trkpt lat="44.64884" lon="-0.08509">
        <ele>78.48</ele>
        <time>2020-07-27T10:14:19Z</time>
      </trkpt>
      <trkpt lat="44.64878" lon="-0.08509">
        <ele>78.48</ele>
        <time>2020-07-27T10:14:25Z</time>
      </trkpt>
      <trkpt lat="44.64855" lon="-0.08506">
        <ele>78</ele>
        <time>2020-07-27T10:14:44Z</time>
      </trkpt>
      <trkpt lat="44.64851" lon="-0.08506">
        <ele>78</ele>
        <time>2020-07-27T10:14:48Z</time>
      </trkpt>
      <trkpt lat="44.64837" lon="-0.08505">
        <ele>76.56</ele>
        <time>2020-07-27T10:14:58Z</time>
      </trkpt>
      <trkpt lat="44.64811" lon="-0.08513">
        <ele>77.04</ele>
        <time>2020-07-27T10:15:18Z</time>
      </trkpt>
      <trkpt lat="44.6479" lon="-0.08518">
        <ele>77.04</ele>
        <time>2020-07-27T10:15:36Z</time>
      </trkpt>
      <trkpt lat="44.64785" lon="-0.08518">
        <ele>77.04</ele>
        <time>2020-07-27T10:15:40Z</time>
      </trkpt>
      <trkpt lat="44.64761" lon="-0.08519">
        <ele>77.52</ele>
        <time>2020-07-27T10:16:00Z</time>
      </trkpt>
      <trkpt lat="44.64743" lon="-0.08527">
        <ele>76.56</ele>
        <time>2020-07-27T10:16:17Z</time>
      </trkpt>
      <trkpt lat="44.64721" lon="-0.08535">
        <ele>77.04</ele>
        <time>2020-07-27T10:16:36Z</time>
      </trkpt>
      <trkpt lat="44.64715" lon="-0.08538">
        <ele>75.12</ele>
        <time>2020-07-27T10:16:43Z</time>
      </trkpt>
      <trkpt lat="44.64703" lon="-0.08542">
        <ele>75.12</ele>
        <time>2020-07-27T10:17:01Z</time>
      </trkpt>
      <trkpt lat="44.64698" lon="-0.08543">
        <ele>75.12</ele>
        <time>2020-07-27T10:17:06Z</time>
      </trkpt>
      <trkpt lat="44.64682" lon="-0.08548">
        <ele>74.64</ele>
        <time>2020-07-27T10:17:20Z</time>
      </trkpt>
      <trkpt lat="44.64671" lon="-0.08549">
        <ele>76.08</ele>
        <time>2020-07-27T10:17:28Z</time>
      </trkpt>
      <trkpt lat="44.64664" lon="-0.0855">
        <ele>74.16</ele>
        <time>2020-07-27T10:17:34Z</time>
      </trkpt>
      <trkpt lat="44.64645" lon="-0.08553">
        <ele>74.16</ele>
        <time>2020-07-27T10:17:52Z</time>
      </trkpt>
      <trkpt lat="44.64644" lon="-0.08554">
        <ele>74.16</ele>
        <time>2020-07-27T10:17:53Z</time>
      </trkpt>
      <trkpt lat="44.6464" lon="-0.08554">
        <ele>75.12</ele>
        <time>2020-07-27T10:17:56Z</time>
      </trkpt>
      <trkpt lat="44.64637" lon="-0.08554">
        <ele>74.16</ele>
        <time>2020-07-27T10:17:58Z</time>
      </trkpt>
      <trkpt lat="44.6462" lon="-0.08558">
        <ele>74.16</ele>
        <time>2020-07-27T10:18:17Z</time>
      </trkpt>
      <trkpt lat="44.64619" lon="-0.08558">
        <ele>74.16</ele>
        <time>2020-07-27T10:18:42Z</time>
      </trkpt>
      <trkpt lat="44.64618" lon="-0.08558">
        <ele>74.64</ele>
        <time>2020-07-27T10:18:59Z</time>
      </trkpt>
      <trkpt lat="44.64609" lon="-0.08555">
        <ele>72.72</ele>
        <time>2020-07-27T10:19:13Z</time>
      </trkpt>
      <trkpt lat="44.64587" lon="-0.08548">
        <ele>71.27</ele>
        <time>2020-07-27T10:19:31Z</time>
      </trkpt>
      <trkpt lat="44.64567" lon="-0.08537">
        <ele>69.35</ele>
        <time>2020-07-27T10:19:50Z</time>
      </trkpt>
      <trkpt lat="44.64564" lon="-0.08533">
        <ele>69.35</ele>
        <time>2020-07-27T10:19:53Z</time>
      </trkpt>
      <trkpt lat="44.6456" lon="-0.0853">
        <ele>70.79</ele>
        <time>2020-07-27T10:20:08Z</time>
      </trkpt>
      <trkpt lat="44.64549" lon="-0.08528">
        <ele>70.31</ele>
        <time>2020-07-27T10:20:21Z</time>
      </trkpt>
      <trkpt lat="44.64539" lon="-0.08532">
        <ele>69.35</ele>
        <time>2020-07-27T10:20:34Z</time>
      </trkpt>
      <trkpt lat="44.64531" lon="-0.08544">
        <ele>68.87</ele>
        <time>2020-07-27T10:20:47Z</time>
      </trkpt>
      <trkpt lat="44.64526" lon="-0.08552">
        <ele>68.87</ele>
        <time>2020-07-27T10:20:58Z</time>
      </trkpt>
      <trkpt lat="44.64525" lon="-0.08553">
        <ele>68.39</ele>
        <time>2020-07-27T10:21:09Z</time>
      </trkpt>
      <trkpt lat="44.64529" lon="-0.08548">
        <ele>67.91</ele>
        <time>2020-07-27T10:21:34Z</time>
      </trkpt>
      <trkpt lat="44.64521" lon="-0.08556">
        <ele>68.39</ele>
        <time>2020-07-27T10:21:55Z</time>
      </trkpt>
      <trkpt lat="44.64518" lon="-0.08553">
        <ele>67.91</ele>
        <time>2020-07-27T10:22:11Z</time>
      </trkpt>
      <trkpt lat="44.64504" lon="-0.08575">
        <ele>67.91</ele>
        <time>2020-07-27T10:22:29Z</time>
      </trkpt>
      <trkpt lat="44.64495" lon="-0.08589">
        <ele>68.87</ele>
        <time>2020-07-27T10:22:41Z</time>
      </trkpt>
      <trkpt lat="44.64493" lon="-0.08592">
        <ele>67.43</ele>
        <time>2020-07-27T10:22:44Z</time>
      </trkpt>
      <trkpt lat="44.6449" lon="-0.08596">
        <ele>68.87</ele>
        <time>2020-07-27T10:22:48Z</time>
      </trkpt>
      <trkpt lat="44.64469" lon="-0.08612">
        <ele>69.35</ele>
        <time>2020-07-27T10:23:07Z</time>
      </trkpt>
      <trkpt lat="44.64462" lon="-0.08618">
        <ele>68.87</ele>
        <time>2020-07-27T10:23:13Z</time>
      </trkpt>
      <trkpt lat="44.64445" lon="-0.08638">
        <ele>70.79</ele>
        <time>2020-07-27T10:23:35Z</time>
      </trkpt>
      <trkpt lat="44.64428" lon="-0.08653">
        <ele>70.79</ele>
        <time>2020-07-27T10:23:56Z</time>
      </trkpt>
      <trkpt lat="44.64406" lon="-0.08671">
        <ele>72.72</ele>
        <time>2020-07-27T10:24:20Z</time>
      </trkpt>
      <trkpt lat="44.64396" lon="-0.08684">
        <ele>74.16</ele>
        <time>2020-07-27T10:24:37Z</time>
      </trkpt>
      <trkpt lat="44.64398" lon="-0.08705">
        <ele>74.64</ele>
        <time>2020-07-27T10:24:56Z</time>
      </trkpt>
      <trkpt lat="44.64402" lon="-0.08725">
        <ele>76.08</ele>
        <time>2020-07-27T10:25:10Z</time>
      </trkpt>
      <trkpt lat="44.64405" lon="-0.08756">
        <ele>77.52</ele>
        <time>2020-07-27T10:25:30Z</time>
      </trkpt>
      <trkpt lat="44.64403" lon="-0.08763">
        <ele>77.04</ele>
        <time>2020-07-27T10:25:52Z</time>
      </trkpt>
      <trkpt lat="44.64403" lon="-0.0876">
        <ele>78.48</ele>
        <time>2020-07-27T10:26:14Z</time>
      </trkpt>
      <trkpt lat="44.64406" lon="-0.08761">
        <ele>78.48</ele>
        <time>2020-07-27T10:26:46Z</time>
      </trkpt>
      <trkpt lat="44.64409" lon="-0.08786">
        <ele>78.97</ele>
        <time>2020-07-27T10:27:05Z</time>
      </trkpt>
      <trkpt lat="44.64409" lon="-0.08792">
        <ele>78.97</ele>
        <time>2020-07-27T10:27:08Z</time>
      </trkpt>
      <trkpt lat="44.64412" lon="-0.08815">
        <ele>79.45</ele>
        <time>2020-07-27T10:27:24Z</time>
      </trkpt>
      <trkpt lat="44.64412" lon="-0.08826">
        <ele>79.45</ele>
        <time>2020-07-27T10:27:44Z</time>
      </trkpt>
      <trkpt lat="44.64412" lon="-0.08829">
        <ele>79.45</ele>
        <time>2020-07-27T10:27:58Z</time>
      </trkpt>
      <trkpt lat="44.64409" lon="-0.08827">
        <ele>79.45</ele>
        <time>2020-07-27T10:28:16Z</time>
      </trkpt>
      <trkpt lat="44.64409" lon="-0.08831">
        <ele>79.45</ele>
        <time>2020-07-27T10:28:51Z</time>
      </trkpt>
      <trkpt lat="44.64405" lon="-0.0883">
        <ele>79.45</ele>
        <time>2020-07-27T10:29:22Z</time>
      </trkpt>
      <trkpt lat="44.64401" lon="-0.08825">
        <ele>79.45</ele>
        <time>2020-07-27T10:29:39Z</time>
      </trkpt>
      <trkpt lat="44.644" lon="-0.08824">
        <ele>79.93</ele>
        <time>2020-07-27T10:29:41Z</time>
      </trkpt>
      <trkpt lat="44.64387" lon="-0.08815">
        <ele>78.97</ele>
        <time>2020-07-27T10:29:53Z</time>
      </trkpt>
      <trkpt lat="44.64382" lon="-0.08812">
        <ele>80.41</ele>
        <time>2020-07-27T10:29:58Z</time>
      </trkpt>
      <trkpt lat="44.64376" lon="-0.08807">
        <ele>80.89</ele>
        <time>2020-07-27T10:30:05Z</time>
      </trkpt>
      <trkpt lat="44.64349" lon="-0.08793">
        <ele>80.41</ele>
        <time>2020-07-27T10:30:28Z</time>
      </trkpt>
      <trkpt lat="44.64343" lon="-0.0879">
        <ele>81.85</ele>
        <time>2020-07-27T10:30:33Z</time>
      </trkpt>
      <trkpt lat="44.64338" lon="-0.08786">
        <ele>80.41</ele>
        <time>2020-07-27T10:30:38Z</time>
      </trkpt>
      <trkpt lat="44.64335" lon="-0.08784">
        <ele>81.85</ele>
        <time>2020-07-27T10:30:41Z</time>
      </trkpt>
      <trkpt lat="44.6431" lon="-0.08771">
        <ele>82.33</ele>
        <time>2020-07-27T10:31:00Z</time>
      </trkpt>
      <trkpt lat="44.64287" lon="-0.08757">
        <ele>82.81</ele>
        <time>2020-07-27T10:31:20Z</time>
      </trkpt>
      <trkpt lat="44.64284" lon="-0.08754">
        <ele>81.37</ele>
        <time>2020-07-27T10:31:23Z</time>
      </trkpt>
      <trkpt lat="44.64282" lon="-0.08753">
        <ele>83.29</ele>
        <time>2020-07-27T10:31:25Z</time>
      </trkpt>
      <trkpt lat="44.6426" lon="-0.08746">
        <ele>83.77</ele>
        <time>2020-07-27T10:31:46Z</time>
      </trkpt>
      <trkpt lat="44.64258" lon="-0.08752">
        <ele>83.77</ele>
        <time>2020-07-27T10:32:05Z</time>
      </trkpt>
      <trkpt lat="44.64255" lon="-0.08755">
        <ele>83.77</ele>
        <time>2020-07-27T10:32:39Z</time>
      </trkpt>
      <trkpt lat="44.64252" lon="-0.08759">
        <ele>83.77</ele>
        <time>2020-07-27T10:33:08Z</time>
      </trkpt>
      <trkpt lat="44.64252" lon="-0.08754">
        <ele>83.77</ele>
        <time>2020-07-27T10:33:18Z</time>
      </trkpt>
      <trkpt lat="44.64252" lon="-0.08752">
        <ele>83.77</ele>
        <time>2020-07-27T10:33:23Z</time>
      </trkpt>
      <trkpt lat="44.64236" lon="-0.0873">
        <ele>82.81</ele>
        <time>2020-07-27T10:33:42Z</time>
      </trkpt>
      <trkpt lat="44.6422" lon="-0.08719">
        <ele>84.73</ele>
        <time>2020-07-27T10:33:57Z</time>
      </trkpt>
      <trkpt lat="44.64196" lon="-0.08704">
        <ele>85.21</ele>
        <time>2020-07-27T10:34:18Z</time>
      </trkpt>
      <trkpt lat="44.64171" lon="-0.08691">
        <ele>85.69</ele>
        <time>2020-07-27T10:34:36Z</time>
      </trkpt>
      <trkpt lat="44.64153" lon="-0.08681">
        <ele>86.18</ele>
        <time>2020-07-27T10:34:51Z</time>
      </trkpt>
      <trkpt lat="44.64146" lon="-0.08678">
        <ele>84.25</ele>
        <time>2020-07-27T10:34:56Z</time>
      </trkpt>
      <trkpt lat="44.64143" lon="-0.08676">
        <ele>85.69</ele>
        <time>2020-07-27T10:34:58Z</time>
      </trkpt>
      <trkpt lat="44.64139" lon="-0.08672">
        <ele>85.69</ele>
        <time>2020-07-27T10:35:02Z</time>
      </trkpt>
      <trkpt lat="44.64119" lon="-0.08666">
        <ele>86.18</ele>
        <time>2020-07-27T10:35:20Z</time>
      </trkpt>
      <trkpt lat="44.64106" lon="-0.08684">
        <ele>84.25</ele>
        <time>2020-07-27T10:35:36Z</time>
      </trkpt>
      <trkpt lat="44.64106" lon="-0.08687">
        <ele>84.25</ele>
        <time>2020-07-27T10:35:38Z</time>
      </trkpt>
      <trkpt lat="44.64103" lon="-0.08693">
        <ele>84.25</ele>
        <time>2020-07-27T10:35:42Z</time>
      </trkpt>
      <trkpt lat="44.64099" lon="-0.08709">
        <ele>83.77</ele>
        <time>2020-07-27T10:35:58Z</time>
      </trkpt>
      <trkpt lat="44.64101" lon="-0.08713">
        <ele>82.33</ele>
        <time>2020-07-27T10:36:16Z</time>
      </trkpt>
      <trkpt lat="44.64099" lon="-0.08737">
        <ele>79.93</ele>
        <time>2020-07-27T10:36:34Z</time>
      </trkpt>
      <trkpt lat="44.64095" lon="-0.08764">
        <ele>80.41</ele>
        <time>2020-07-27T10:36:53Z</time>
      </trkpt>
      <trkpt lat="44.64094" lon="-0.08772">
        <ele>77.52</ele>
        <time>2020-07-27T10:36:59Z</time>
      </trkpt>
      <trkpt lat="44.64094" lon="-0.08775">
        <ele>78.97</ele>
        <time>2020-07-27T10:37:01Z</time>
      </trkpt>
      <trkpt lat="44.64093" lon="-0.08793">
        <ele>77.04</ele>
        <time>2020-07-27T10:37:17Z</time>
      </trkpt>
      <trkpt lat="44.64094" lon="-0.0882">
        <ele>76.08</ele>
        <time>2020-07-27T10:37:37Z</time>
      </trkpt>
      <trkpt lat="44.64094" lon="-0.08833">
        <ele>76.56</ele>
        <time>2020-07-27T10:37:43Z</time>
      </trkpt>
      <trkpt lat="44.64092" lon="-0.08845">
        <ele>75.12</ele>
        <time>2020-07-27T10:37:48Z</time>
      </trkpt>
      <trkpt lat="44.64094" lon="-0.08869">
        <ele>74.16</ele>
        <time>2020-07-27T10:38:06Z</time>
      </trkpt>
      <trkpt lat="44.64106" lon="-0.08904">
        <ele>74.64</ele>
        <time>2020-07-27T10:38:29Z</time>
      </trkpt>
      <trkpt lat="44.64111" lon="-0.08914">
        <ele>73.68</ele>
        <time>2020-07-27T10:38:38Z</time>
      </trkpt>
      <trkpt lat="44.64118" lon="-0.08926">
        <ele>74.16</ele>
        <time>2020-07-27T10:38:52Z</time>
      </trkpt>
      <trkpt lat="44.64124" lon="-0.08932">
        <ele>72.72</ele>
        <time>2020-07-27T10:39:00Z</time>
      </trkpt>
      <trkpt lat="44.64138" lon="-0.08946">
        <ele>71.27</ele>
        <time>2020-07-27T10:39:16Z</time>
      </trkpt>
      <trkpt lat="44.64159" lon="-0.08974">
        <ele>69.35</ele>
        <time>2020-07-27T10:39:40Z</time>
      </trkpt>
      <trkpt lat="44.64176" lon="-0.08991">
        <ele>68.87</ele>
        <time>2020-07-27T10:40:00Z</time>
      </trkpt>
      <trkpt lat="44.64181" lon="-0.09021">
        <ele>67.91</ele>
        <time>2020-07-27T10:40:20Z</time>
      </trkpt>
      <trkpt lat="44.64178" lon="-0.09044">
        <ele>67.91</ele>
        <time>2020-07-27T10:40:36Z</time>
      </trkpt>
      <trkpt lat="44.64178" lon="-0.09066">
        <ele>67.43</ele>
        <time>2020-07-27T10:40:59Z</time>
      </trkpt>
      <trkpt lat="44.6418" lon="-0.09084">
        <ele>66.47</ele>
        <time>2020-07-27T10:41:20Z</time>
      </trkpt>
      <trkpt lat="44.64176" lon="-0.09099">
        <ele>64.55</ele>
        <time>2020-07-27T10:41:39Z</time>
      </trkpt>
      <trkpt lat="44.64171" lon="-0.09111">
        <ele>63.1</ele>
        <time>2020-07-27T10:41:53Z</time>
      </trkpt>
      <trkpt lat="44.64169" lon="-0.09113">
        <ele>64.07</ele>
        <time>2020-07-27T10:41:55Z</time>
      </trkpt>
      <trkpt lat="44.64169" lon="-0.09119">
        <ele>62.62</ele>
        <time>2020-07-27T10:42:01Z</time>
      </trkpt>
      <trkpt lat="44.6417" lon="-0.09133">
        <ele>62.14</ele>
        <time>2020-07-27T10:42:12Z</time>
      </trkpt>
      <trkpt lat="44.6417" lon="-0.09155">
        <ele>61.66</ele>
        <time>2020-07-27T10:42:28Z</time>
      </trkpt>
      <trkpt lat="44.64171" lon="-0.09192">
        <ele>60.7</ele>
        <time>2020-07-27T10:42:46Z</time>
      </trkpt>
      <trkpt lat="44.64174" lon="-0.09203">
        <ele>60.22</ele>
        <time>2020-07-27T10:42:54Z</time>
      </trkpt>
      <trkpt lat="44.64176" lon="-0.09218">
        <ele>61.18</ele>
        <time>2020-07-27T10:43:03Z</time>
      </trkpt>
      <trkpt lat="44.6418" lon="-0.09239">
        <ele>59.74</ele>
        <time>2020-07-27T10:43:21Z</time>
      </trkpt>
      <trkpt lat="44.64181" lon="-0.09271">
        <ele>59.26</ele>
        <time>2020-07-27T10:43:40Z</time>
      </trkpt>
      <trkpt lat="44.64184" lon="-0.0929">
        <ele>59.74</ele>
        <time>2020-07-27T10:43:59Z</time>
      </trkpt>
      <trkpt lat="44.64185" lon="-0.09317">
        <ele>57.82</ele>
        <time>2020-07-27T10:44:15Z</time>
      </trkpt>
      <trkpt lat="44.64185" lon="-0.0934">
        <ele>56.86</ele>
        <time>2020-07-27T10:44:32Z</time>
      </trkpt>
      <trkpt lat="44.64189" lon="-0.09363">
        <ele>56.37</ele>
        <time>2020-07-27T10:44:49Z</time>
      </trkpt>
      <trkpt lat="44.64189" lon="-0.09396">
        <ele>54.93</ele>
        <time>2020-07-27T10:45:09Z</time>
      </trkpt>
      <trkpt lat="44.64193" lon="-0.0943">
        <ele>53.49</ele>
        <time>2020-07-27T10:45:29Z</time>
      </trkpt>
      <trkpt lat="44.64205" lon="-0.09462">
        <ele>53.49</ele>
        <time>2020-07-27T10:45:47Z</time>
      </trkpt>
      <trkpt lat="44.64214" lon="-0.09488">
        <ele>53.01</ele>
        <time>2020-07-27T10:46:07Z</time>
      </trkpt>
      <trkpt lat="44.64219" lon="-0.09509">
        <ele>53.01</ele>
        <time>2020-07-27T10:46:25Z</time>
      </trkpt>
      <trkpt lat="44.64237" lon="-0.09528">
        <ele>52.53</ele>
        <time>2020-07-27T10:46:42Z</time>
      </trkpt>
      <trkpt lat="44.6424" lon="-0.09535">
        <ele>53.01</ele>
        <time>2020-07-27T10:47:02Z</time>
      </trkpt>
      <trkpt lat="44.64236" lon="-0.09536">
        <ele>53.01</ele>
        <time>2020-07-27T10:47:27Z</time>
      </trkpt>
      <trkpt lat="44.64226" lon="-0.09557">
        <ele>54.45</ele>
        <time>2020-07-27T10:47:50Z</time>
      </trkpt>
      <trkpt lat="44.64211" lon="-0.09573">
        <ele>55.89</ele>
        <time>2020-07-27T10:48:12Z</time>
      </trkpt>
      <trkpt lat="44.64211" lon="-0.09571">
        <ele>55.41</ele>
        <time>2020-07-27T10:48:37Z</time>
      </trkpt>
      <trkpt lat="44.64206" lon="-0.09573">
        <ele>55.89</ele>
        <time>2020-07-27T10:48:57Z</time>
      </trkpt>
      <trkpt lat="44.64202" lon="-0.09565">
        <ele>56.37</ele>
        <time>2020-07-27T10:49:13Z</time>
      </trkpt>
      <trkpt lat="44.64203" lon="-0.09579">
        <ele>54.93</ele>
        <time>2020-07-27T10:49:35Z</time>
      </trkpt>
      <trkpt lat="44.64201" lon="-0.0958">
        <ele>56.37</ele>
        <time>2020-07-27T10:49:37Z</time>
      </trkpt>
      <trkpt lat="44.64189" lon="-0.09572">
        <ele>56.37</ele>
        <time>2020-07-27T10:49:54Z</time>
      </trkpt>
      <trkpt lat="44.64185" lon="-0.09555">
        <ele>56.86</ele>
        <time>2020-07-27T10:50:06Z</time>
      </trkpt>
      <trkpt lat="44.64182" lon="-0.0955">
        <ele>55.89</ele>
        <time>2020-07-27T10:50:11Z</time>
      </trkpt>
      <trkpt lat="44.64172" lon="-0.09518">
        <ele>58.3</ele>
        <time>2020-07-27T10:50:29Z</time>
      </trkpt>
      <trkpt lat="44.64164" lon="-0.09492">
        <ele>59.26</ele>
        <time>2020-07-27T10:50:48Z</time>
      </trkpt>
      <trkpt lat="44.64156" lon="-0.09468">
        <ele>59.74</ele>
        <time>2020-07-27T10:51:07Z</time>
      </trkpt>
      <trkpt lat="44.6415" lon="-0.09463">
        <ele>59.74</ele>
        <time>2020-07-27T10:51:29Z</time>
      </trkpt>
      <trkpt lat="44.64142" lon="-0.09467">
        <ele>60.22</ele>
        <time>2020-07-27T10:51:39Z</time>
      </trkpt>
      <trkpt lat="44.6412" lon="-0.09478">
        <ele>60.22</ele>
        <time>2020-07-27T10:52:00Z</time>
      </trkpt>
      <trkpt lat="44.64101" lon="-0.09491">
        <ele>60.22</ele>
        <time>2020-07-27T10:52:22Z</time>
      </trkpt>
      <trkpt lat="44.64096" lon="-0.09496">
        <ele>60.22</ele>
        <time>2020-07-27T10:52:42Z</time>
      </trkpt>
      <trkpt lat="44.64093" lon="-0.09495">
        <ele>60.22</ele>
        <time>2020-07-27T10:53:07Z</time>
      </trkpt>
      <trkpt lat="44.64095" lon="-0.09491">
        <ele>60.22</ele>
        <time>2020-07-27T10:53:33Z</time>
      </trkpt>
      <trkpt lat="44.64096" lon="-0.09493">
        <ele>60.22</ele>
        <time>2020-07-27T10:53:55Z</time>
      </trkpt>
      <trkpt lat="44.64095" lon="-0.09497">
        <ele>60.22</ele>
        <time>2020-07-27T10:54:22Z</time>
      </trkpt>
      <trkpt lat="44.64094" lon="-0.09499">
        <ele>60.22</ele>
        <time>2020-07-27T10:54:47Z</time>
      </trkpt>
      <trkpt lat="44.64096" lon="-0.09497">
        <ele>60.22</ele>
        <time>2020-07-27T10:55:17Z</time>
      </trkpt>
      <trkpt lat="44.64094" lon="-0.09495">
        <ele>60.22</ele>
        <time>2020-07-27T10:55:49Z</time>
      </trkpt>
      <trkpt lat="44.64094" lon="-0.09495">
        <ele>60.22</ele>
        <time>2020-07-27T10:56:12Z</time>
      </trkpt>
      <trkpt lat="44.64093" lon="-0.09498">
        <ele>60.22</ele>
        <time>2020-07-27T10:56:36Z</time>
      </trkpt>
      <trkpt lat="44.64093" lon="-0.09495">
        <ele>58.78</ele>
        <time>2020-07-27T10:56:57Z</time>
      </trkpt>
      <trkpt lat="44.64092" lon="-0.0949">
        <ele>58.78</ele>
        <time>2020-07-27T10:57:31Z</time>
      </trkpt>
      <trkpt lat="44.64092" lon="-0.09493">
        <ele>58.78</ele>
        <time>2020-07-27T10:58:06Z</time>
      </trkpt>
      <trkpt lat="44.64093" lon="-0.09494">
        <ele>58.78</ele>
        <time>2020-07-27T10:58:36Z</time>
      </trkpt>
      <trkpt lat="44.64088" lon="-0.09496">
        <ele>58.78</ele>
        <time>2020-07-27T10:59:14Z</time>
      </trkpt>
      <trkpt lat="44.64092" lon="-0.09495">
        <ele>58.78</ele>
        <time>2020-07-27T10:59:49Z</time>
      </trkpt>
      <trkpt lat="44.6409" lon="-0.09496">
        <ele>58.78</ele>
        <time>2020-07-27T11:00:26Z</time>
      </trkpt>
      <trkpt lat="44.64091" lon="-0.09497">
        <ele>58.78</ele>
        <time>2020-07-27T11:00:59Z</time>
      </trkpt>
      <trkpt lat="44.64089" lon="-0.09496">
        <ele>58.78</ele>
        <time>2020-07-27T11:01:34Z</time>
      </trkpt>
      <trkpt lat="44.64091" lon="-0.09498">
        <ele>58.78</ele>
        <time>2020-07-27T11:02:10Z</time>
      </trkpt>
      <trkpt lat="44.6409" lon="-0.09496">
        <ele>58.78</ele>
        <time>2020-07-27T11:02:46Z</time>
      </trkpt>
      <trkpt lat="44.64087" lon="-0.09493">
        <ele>58.78</ele>
        <time>2020-07-27T11:03:16Z</time>
      </trkpt>
      <trkpt lat="44.64091" lon="-0.09491">
        <ele>58.78</ele>
        <time>2020-07-27T11:03:44Z</time>
      </trkpt>
      <trkpt lat="44.64092" lon="-0.09488">
        <ele>58.78</ele>
        <time>2020-07-27T11:04:23Z</time>
      </trkpt>
      <trkpt lat="44.64091" lon="-0.09493">
        <ele>58.78</ele>
        <time>2020-07-27T11:05:03Z</time>
      </trkpt>
      <trkpt lat="44.64093" lon="-0.09491">
        <ele>58.78</ele>
        <time>2020-07-27T11:05:29Z</time>
      </trkpt>
      <trkpt lat="44.64093" lon="-0.09491">
        <ele>58.3</ele>
        <time>2020-07-27T11:05:52Z</time>
      </trkpt>
      <trkpt lat="44.64092" lon="-0.0949">
        <ele>58.3</ele>
        <time>2020-07-27T11:06:21Z</time>
      </trkpt>
      <trkpt lat="44.64093" lon="-0.09494">
        <ele>58.3</ele>
        <time>2020-07-27T11:07:02Z</time>
      </trkpt>
      <trkpt lat="44.64093" lon="-0.09494">
        <ele>58.3</ele>
        <time>2020-07-27T11:07:34Z</time>
      </trkpt>
      <trkpt lat="44.64091" lon="-0.09494">
        <ele>58.3</ele>
        <time>2020-07-27T11:08:12Z</time>
      </trkpt>
      <trkpt lat="44.64091" lon="-0.09491">
        <ele>57.82</ele>
        <time>2020-07-27T11:08:46Z</time>
      </trkpt>
      <trkpt lat="44.64092" lon="-0.09495">
        <ele>57.82</ele>
        <time>2020-07-27T11:09:19Z</time>
      </trkpt>
      <trkpt lat="44.64094" lon="-0.09494">
        <ele>57.82</ele>
        <time>2020-07-27T11:09:54Z</time>
      </trkpt>
      <trkpt lat="44.64093" lon="-0.09495">
        <ele>57.82</ele>
        <time>2020-07-27T11:10:27Z</time>
      </trkpt>
      <trkpt lat="44.64093" lon="-0.09493">
        <ele>57.82</ele>
        <time>2020-07-27T11:10:56Z</time>
      </trkpt>
      <trkpt lat="44.64091" lon="-0.09495">
        <ele>57.82</ele>
        <time>2020-07-27T11:11:20Z</time>
      </trkpt>
      <trkpt lat="44.6409" lon="-0.09494">
        <ele>57.82</ele>
        <time>2020-07-27T11:11:52Z</time>
      </trkpt>
      <trkpt lat="44.6409" lon="-0.09492">
        <ele>57.82</ele>
        <time>2020-07-27T11:12:26Z</time>
      </trkpt>
      <trkpt lat="44.64093" lon="-0.09492">
        <ele>57.82</ele>
        <time>2020-07-27T11:12:58Z</time>
      </trkpt>
      <trkpt lat="44.64092" lon="-0.09491">
        <ele>57.82</ele>
        <time>2020-07-27T11:13:37Z</time>
      </trkpt>
      <trkpt lat="44.64092" lon="-0.09493">
        <ele>57.82</ele>
        <time>2020-07-27T11:14:03Z</time>
      </trkpt>
      <trkpt lat="44.64093" lon="-0.09496">
        <ele>57.34</ele>
        <time>2020-07-27T11:14:38Z</time>
      </trkpt>
      <trkpt lat="44.6409" lon="-0.09496">
        <ele>57.34</ele>
        <time>2020-07-27T11:15:15Z</time>
      </trkpt>
      <trkpt lat="44.64091" lon="-0.09496">
        <ele>57.34</ele>
        <time>2020-07-27T11:15:43Z</time>
      </trkpt>
      <trkpt lat="44.6409" lon="-0.09494">
        <ele>57.34</ele>
        <time>2020-07-27T11:16:22Z</time>
      </trkpt>
      <trkpt lat="44.64088" lon="-0.09493">
        <ele>57.34</ele>
        <time>2020-07-27T11:16:58Z</time>
      </trkpt>
      <trkpt lat="44.6409" lon="-0.09495">
        <ele>57.34</ele>
        <time>2020-07-27T11:17:30Z</time>
      </trkpt>
      <trkpt lat="44.64093" lon="-0.09494">
        <ele>57.34</ele>
        <time>2020-07-27T11:18:04Z</time>
      </trkpt>
      <trkpt lat="44.64091" lon="-0.09496">
        <ele>57.34</ele>
        <time>2020-07-27T11:18:38Z</time>
      </trkpt>
      <trkpt lat="44.6409" lon="-0.09494">
        <ele>57.34</ele>
        <time>2020-07-27T11:19:10Z</time>
      </trkpt>
      <trkpt lat="44.6409" lon="-0.09493">
        <ele>57.34</ele>
        <time>2020-07-27T11:19:44Z</time>
      </trkpt>
      <trkpt lat="44.6409" lon="-0.09493">
        <ele>57.34</ele>
        <time>2020-07-27T11:20:17Z</time>
      </trkpt>
      <trkpt lat="44.64089" lon="-0.09494">
        <ele>58.3</ele>
        <time>2020-07-27T11:20:49Z</time>
      </trkpt>
      <trkpt lat="44.64089" lon="-0.09495">
        <ele>58.3</ele>
        <time>2020-07-27T11:21:25Z</time>
      </trkpt>
      <trkpt lat="44.64089" lon="-0.09494">
        <ele>58.3</ele>
        <time>2020-07-27T11:21:59Z</time>
      </trkpt>
      <trkpt lat="44.6409" lon="-0.09495">
        <ele>58.3</ele>
        <time>2020-07-27T11:22:33Z</time>
      </trkpt>
      <trkpt lat="44.64089" lon="-0.09495">
        <ele>58.3</ele>
        <time>2020-07-27T11:22:57Z</time>
      </trkpt>
      <trkpt lat="44.64089" lon="-0.09495">
        <ele>58.3</ele>
        <time>2020-07-27T11:23:25Z</time>
      </trkpt>
      <trkpt lat="44.64089" lon="-0.0949">
        <ele>58.3</ele>
        <time>2020-07-27T11:23:52Z</time>
      </trkpt>
      <trkpt lat="44.6409" lon="-0.09491">
        <ele>57.82</ele>
        <time>2020-07-27T11:24:29Z</time>
      </trkpt>
      <trkpt lat="44.6409" lon="-0.09494">
        <ele>57.82</ele>
        <time>2020-07-27T11:24:58Z</time>
      </trkpt>
      <trkpt lat="44.64089" lon="-0.09493">
        <ele>57.82</ele>
        <time>2020-07-27T11:25:24Z</time>
      </trkpt>
      <trkpt lat="44.64087" lon="-0.09495">
        <ele>57.82</ele>
        <time>2020-07-27T11:26:02Z</time>
      </trkpt>
      <trkpt lat="44.64087" lon="-0.09493">
        <ele>58.3</ele>
        <time>2020-07-27T11:26:41Z</time>
      </trkpt>
      <trkpt lat="44.64091" lon="-0.09493">
        <ele>58.3</ele>
        <time>2020-07-27T11:26:58Z</time>
      </trkpt>
      <trkpt lat="44.64091" lon="-0.09495">
        <ele>58.3</ele>
        <time>2020-07-27T11:27:24Z</time>
      </trkpt>
      <trkpt lat="44.64092" lon="-0.09495">
        <ele>57.82</ele>
        <time>2020-07-27T11:27:42Z</time>
      </trkpt>
      <trkpt lat="44.64095" lon="-0.09493">
        <ele>57.82</ele>
        <time>2020-07-27T11:28:15Z</time>
      </trkpt>
      <trkpt lat="44.64094" lon="-0.09496">
        <ele>57.82</ele>
        <time>2020-07-27T11:28:48Z</time>
      </trkpt>
      <trkpt lat="44.6409" lon="-0.09495">
        <ele>57.82</ele>
        <time>2020-07-27T11:29:13Z</time>
      </trkpt>
      <trkpt lat="44.64088" lon="-0.09497">
        <ele>57.82</ele>
        <time>2020-07-27T11:29:48Z</time>
      </trkpt>
      <trkpt lat="44.64088" lon="-0.09497">
        <ele>58.3</ele>
        <time>2020-07-27T11:30:28Z</time>
      </trkpt>
      <trkpt lat="44.64088" lon="-0.09498">
        <ele>58.3</ele>
        <time>2020-07-27T11:30:59Z</time>
      </trkpt>
      <trkpt lat="44.64089" lon="-0.09495">
        <ele>58.3</ele>
        <time>2020-07-27T11:31:30Z</time>
      </trkpt>
      <trkpt lat="44.64092" lon="-0.09495">
        <ele>58.3</ele>
        <time>2020-07-27T11:32:09Z</time>
      </trkpt>
      <trkpt lat="44.64092" lon="-0.09499">
        <ele>58.3</ele>
        <time>2020-07-27T11:32:44Z</time>
      </trkpt>
      <trkpt lat="44.64089" lon="-0.09499">
        <ele>58.3</ele>
        <time>2020-07-27T11:33:25Z</time>
      </trkpt>
      <trkpt lat="44.64087" lon="-0.09499">
        <ele>58.3</ele>
        <time>2020-07-27T11:33:53Z</time>
      </trkpt>
      <trkpt lat="44.64088" lon="-0.09497">
        <ele>58.3</ele>
        <time>2020-07-27T11:34:14Z</time>
      </trkpt>
      <trkpt lat="44.64092" lon="-0.09497">
        <ele>58.3</ele>
        <time>2020-07-27T11:34:46Z</time>
      </trkpt>
      <trkpt lat="44.6409" lon="-0.09496">
        <ele>58.3</ele>
        <time>2020-07-27T11:35:11Z</time>
      </trkpt>
      <trkpt lat="44.64091" lon="-0.09494">
        <ele>58.3</ele>
        <time>2020-07-27T11:35:35Z</time>
      </trkpt>
      <trkpt lat="44.64092" lon="-0.09495">
        <ele>58.3</ele>
        <time>2020-07-27T11:36:03Z</time>
      </trkpt>
      <trkpt lat="44.64091" lon="-0.09496">
        <ele>58.3</ele>
        <time>2020-07-27T11:36:27Z</time>
      </trkpt>
      <trkpt lat="44.64091" lon="-0.09496">
        <ele>58.78</ele>
        <time>2020-07-27T11:36:45Z</time>
      </trkpt>
      <trkpt lat="44.6409" lon="-0.09494">
        <ele>58.78</ele>
        <time>2020-07-27T11:37:12Z</time>
      </trkpt>
      <trkpt lat="44.6409" lon="-0.09492">
        <ele>58.78</ele>
        <time>2020-07-27T11:37:41Z</time>
      </trkpt>
      <trkpt lat="44.64089" lon="-0.09494">
        <ele>58.78</ele>
        <time>2020-07-27T11:38:26Z</time>
      </trkpt>
      <trkpt lat="44.64089" lon="-0.09498">
        <ele>58.78</ele>
        <time>2020-07-27T11:39:11Z</time>
      </trkpt>
      <trkpt lat="44.6409" lon="-0.09499">
        <ele>58.78</ele>
        <time>2020-07-27T11:39:51Z</time>
      </trkpt>
      <trkpt lat="44.6409" lon="-0.09499">
        <ele>58.78</ele>
        <time>2020-07-27T11:40:26Z</time>
      </trkpt>
      <trkpt lat="44.64089" lon="-0.09498">
        <ele>58.78</ele>
        <time>2020-07-27T11:40:51Z</time>
      </trkpt>
      <trkpt lat="44.6409" lon="-0.09498">
        <ele>58.78</ele>
        <time>2020-07-27T11:41:18Z</time>
      </trkpt>
      <trkpt lat="44.64089" lon="-0.09496">
        <ele>58.78</ele>
        <time>2020-07-27T11:41:47Z</time>
      </trkpt>
      <trkpt lat="44.6409" lon="-0.09496">
        <ele>58.78</ele>
        <time>2020-07-27T11:42:23Z</time>
      </trkpt>
      <trkpt lat="44.64091" lon="-0.09496">
        <ele>58.78</ele>
        <time>2020-07-27T11:42:56Z</time>
      </trkpt>
      <trkpt lat="44.6409" lon="-0.09495">
        <ele>59.26</ele>
        <time>2020-07-27T11:43:34Z</time>
      </trkpt>
      <trkpt lat="44.64089" lon="-0.09497">
        <ele>59.26</ele>
        <time>2020-07-27T11:44:05Z</time>
      </trkpt>
      <trkpt lat="44.64088" lon="-0.09495">
        <ele>59.26</ele>
        <time>2020-07-27T11:44:39Z</time>
      </trkpt>
      <trkpt lat="44.64089" lon="-0.09497">
        <ele>59.26</ele>
        <time>2020-07-27T11:45:18Z</time>
      </trkpt>
      <trkpt lat="44.64087" lon="-0.095">
        <ele>59.26</ele>
        <time>2020-07-27T11:45:57Z</time>
      </trkpt>
      <trkpt lat="44.64087" lon="-0.095">
        <ele>59.26</ele>
        <time>2020-07-27T11:46:31Z</time>
      </trkpt>
      <trkpt lat="44.64088" lon="-0.09498">
        <ele>59.26</ele>
        <time>2020-07-27T11:47:13Z</time>
      </trkpt>
      <trkpt lat="44.6409" lon="-0.095">
        <ele>59.74</ele>
        <time>2020-07-27T11:47:51Z</time>
      </trkpt>
      <trkpt lat="44.64092" lon="-0.09499">
        <ele>59.74</ele>
        <time>2020-07-27T11:48:19Z</time>
      </trkpt>
      <trkpt lat="44.64088" lon="-0.09499">
        <ele>59.74</ele>
        <time>2020-07-27T11:48:55Z</time>
      </trkpt>
      <trkpt lat="44.64088" lon="-0.09502">
        <ele>59.74</ele>
        <time>2020-07-27T11:49:27Z</time>
      </trkpt>
      <trkpt lat="44.6409" lon="-0.095">
        <ele>60.7</ele>
        <time>2020-07-27T11:50:09Z</time>
      </trkpt>
      <trkpt lat="44.64089" lon="-0.09499">
        <ele>60.7</ele>
        <time>2020-07-27T11:50:43Z</time>
      </trkpt>
      <trkpt lat="44.64087" lon="-0.09496">
        <ele>60.7</ele>
        <time>2020-07-27T11:51:18Z</time>
      </trkpt>
      <trkpt lat="44.64086" lon="-0.09494">
        <ele>60.7</ele>
        <time>2020-07-27T11:51:44Z</time>
      </trkpt>
      <trkpt lat="44.64086" lon="-0.09497">
        <ele>60.7</ele>
        <time>2020-07-27T11:52:09Z</time>
      </trkpt>
      <trkpt lat="44.6409" lon="-0.09496">
        <ele>60.7</ele>
        <time>2020-07-27T11:52:49Z</time>
      </trkpt>
      <trkpt lat="44.6409" lon="-0.09496">
        <ele>60.7</ele>
        <time>2020-07-27T11:53:31Z</time>
      </trkpt>
      <trkpt lat="44.64091" lon="-0.09495">
        <ele>60.7</ele>
        <time>2020-07-27T11:54:18Z</time>
      </trkpt>
      <trkpt lat="44.64092" lon="-0.09496">
        <ele>60.7</ele>
        <time>2020-07-27T11:54:47Z</time>
      </trkpt>
      <trkpt lat="44.64092" lon="-0.09498">
        <ele>60.7</ele>
        <time>2020-07-27T11:55:12Z</time>
      </trkpt>
      <trkpt lat="44.64092" lon="-0.09496">
        <ele>60.7</ele>
        <time>2020-07-27T11:55:34Z</time>
      </trkpt>
      <trkpt lat="44.64093" lon="-0.09497">
        <ele>60.7</ele>
        <time>2020-07-27T11:56:05Z</time>
      </trkpt>
      <trkpt lat="44.64092" lon="-0.09496">
        <ele>60.7</ele>
        <time>2020-07-27T11:56:30Z</time>
      </trkpt>
      <trkpt lat="44.64089" lon="-0.09497">
        <ele>60.7</ele>
        <time>2020-07-27T11:57:11Z</time>
      </trkpt>
      <trkpt lat="44.64088" lon="-0.09498">
        <ele>60.7</ele>
        <time>2020-07-27T11:57:43Z</time>
      </trkpt>
      <trkpt lat="44.64088" lon="-0.09496">
        <ele>61.18</ele>
        <time>2020-07-27T11:58:21Z</time>
      </trkpt>
      <trkpt lat="44.64088" lon="-0.09497">
        <ele>61.66</ele>
        <time>2020-07-27T11:58:59Z</time>
      </trkpt>
      <trkpt lat="44.64088" lon="-0.09497">
        <ele>61.66</ele>
        <time>2020-07-27T11:59:34Z</time>
      </trkpt>
      <trkpt lat="44.6409" lon="-0.09495">
        <ele>61.66</ele>
        <time>2020-07-27T12:00:05Z</time>
      </trkpt>
      <trkpt lat="44.64092" lon="-0.09496">
        <ele>61.66</ele>
        <time>2020-07-27T12:00:42Z</time>
      </trkpt>
      <trkpt lat="44.64091" lon="-0.09497">
        <ele>61.66</ele>
        <time>2020-07-27T12:01:14Z</time>
      </trkpt>
      <trkpt lat="44.6409" lon="-0.09498">
        <ele>61.18</ele>
        <time>2020-07-27T12:01:43Z</time>
      </trkpt>
      <trkpt lat="44.64092" lon="-0.09495">
        <ele>61.18</ele>
        <time>2020-07-27T12:02:12Z</time>
      </trkpt>
      <trkpt lat="44.64092" lon="-0.09495">
        <ele>61.18</ele>
        <time>2020-07-27T12:02:53Z</time>
      </trkpt>
      <trkpt lat="44.64094" lon="-0.09496">
        <ele>61.66</ele>
        <time>2020-07-27T12:03:31Z</time>
      </trkpt>
      <trkpt lat="44.64094" lon="-0.09498">
        <ele>61.18</ele>
        <time>2020-07-27T12:04:09Z</time>
      </trkpt>
      <trkpt lat="44.64089" lon="-0.09499">
        <ele>61.18</ele>
        <time>2020-07-27T12:04:40Z</time>
      </trkpt>
      <trkpt lat="44.6409" lon="-0.09498">
        <ele>61.66</ele>
        <time>2020-07-27T12:05:19Z</time>
      </trkpt>
      <trkpt lat="44.64091" lon="-0.09498">
        <ele>61.66</ele>
        <time>2020-07-27T12:05:52Z</time>
      </trkpt>
      <trkpt lat="44.6409" lon="-0.09496">
        <ele>61.66</ele>
        <time>2020-07-27T12:06:13Z</time>
      </trkpt>
      <trkpt lat="44.6409" lon="-0.09494">
        <ele>61.66</ele>
        <time>2020-07-27T12:06:48Z</time>
      </trkpt>
      <trkpt lat="44.64091" lon="-0.09495">
        <ele>61.66</ele>
        <time>2020-07-27T12:07:28Z</time>
      </trkpt>
      <trkpt lat="44.6409" lon="-0.09493">
        <ele>61.66</ele>
        <time>2020-07-27T12:07:59Z</time>
      </trkpt>
      <trkpt lat="44.64092" lon="-0.09494">
        <ele>61.66</ele>
        <time>2020-07-27T12:08:35Z</time>
      </trkpt>
      <trkpt lat="44.64092" lon="-0.09498">
        <ele>61.66</ele>
        <time>2020-07-27T12:09:06Z</time>
      </trkpt>
      <trkpt lat="44.64093" lon="-0.09495">
        <ele>61.66</ele>
        <time>2020-07-27T12:09:37Z</time>
      </trkpt>
      <trkpt lat="44.64091" lon="-0.09494">
        <ele>61.66</ele>
        <time>2020-07-27T12:10:13Z</time>
      </trkpt>
      <trkpt lat="44.64091" lon="-0.09495">
        <ele>61.18</ele>
        <time>2020-07-27T12:10:44Z</time>
      </trkpt>
      <trkpt lat="44.64092" lon="-0.09495">
        <ele>61.66</ele>
        <time>2020-07-27T12:11:01Z</time>
      </trkpt>
      <trkpt lat="44.64091" lon="-0.09497">
        <ele>61.66</ele>
        <time>2020-07-27T12:11:31Z</time>
      </trkpt>
      <trkpt lat="44.64092" lon="-0.095">
        <ele>61.66</ele>
        <time>2020-07-27T12:11:58Z</time>
      </trkpt>
      <trkpt lat="44.64088" lon="-0.09498">
        <ele>62.14</ele>
        <time>2020-07-27T12:12:29Z</time>
      </trkpt>
      <trkpt lat="44.64093" lon="-0.09495">
        <ele>62.14</ele>
        <time>2020-07-27T12:13:00Z</time>
      </trkpt>
      <trkpt lat="44.64093" lon="-0.09494">
        <ele>62.14</ele>
        <time>2020-07-27T12:13:27Z</time>
      </trkpt>
      <trkpt lat="44.64091" lon="-0.09497">
        <ele>62.14</ele>
        <time>2020-07-27T12:13:51Z</time>
      </trkpt>
      <trkpt lat="44.64092" lon="-0.095">
        <ele>62.14</ele>
        <time>2020-07-27T12:14:28Z</time>
      </trkpt>
      <trkpt lat="44.64091" lon="-0.09495">
        <ele>62.14</ele>
        <time>2020-07-27T12:14:56Z</time>
      </trkpt>
      <trkpt lat="44.64085" lon="-0.09498">
        <ele>61.66</ele>
        <time>2020-07-27T12:15:28Z</time>
      </trkpt>
      <trkpt lat="44.64077" lon="-0.09506">
        <ele>61.66</ele>
        <time>2020-07-27T12:15:46Z</time>
      </trkpt>
      <trkpt lat="44.6407" lon="-0.09512">
        <ele>61.66</ele>
        <time>2020-07-27T12:16:00Z</time>
      </trkpt>
      <trkpt lat="44.64068" lon="-0.09514">
        <ele>60.22</ele>
        <time>2020-07-27T12:16:02Z</time>
      </trkpt>
      <trkpt lat="44.64056" lon="-0.09524">
        <ele>60.22</ele>
        <time>2020-07-27T12:16:16Z</time>
      </trkpt>
      <trkpt lat="44.64052" lon="-0.09527">
        <ele>60.22</ele>
        <time>2020-07-27T12:16:20Z</time>
      </trkpt>
      <trkpt lat="44.64049" lon="-0.0953">
        <ele>60.22</ele>
        <time>2020-07-27T12:16:23Z</time>
      </trkpt>
      <trkpt lat="44.64037" lon="-0.09539">
        <ele>60.22</ele>
        <time>2020-07-27T12:16:36Z</time>
      </trkpt>
      <trkpt lat="44.64022" lon="-0.09551">
        <ele>58.78</ele>
        <time>2020-07-27T12:16:53Z</time>
      </trkpt>
      <trkpt lat="44.6402" lon="-0.09553">
        <ele>58.78</ele>
        <time>2020-07-27T12:17:15Z</time>
      </trkpt>
      <trkpt lat="44.64026" lon="-0.09546">
        <ele>58.78</ele>
        <time>2020-07-27T12:17:31Z</time>
      </trkpt>
      <trkpt lat="44.6403" lon="-0.09542">
        <ele>59.74</ele>
        <time>2020-07-27T12:17:34Z</time>
      </trkpt>
      <trkpt lat="44.64047" lon="-0.0953">
        <ele>60.7</ele>
        <time>2020-07-27T12:17:51Z</time>
      </trkpt>
      <trkpt lat="44.64064" lon="-0.09515">
        <ele>60.7</ele>
        <time>2020-07-27T12:18:10Z</time>
      </trkpt>
      <trkpt lat="44.6408" lon="-0.09502">
        <ele>61.18</ele>
        <time>2020-07-27T12:18:28Z</time>
      </trkpt>
      <trkpt lat="44.64099" lon="-0.09488">
        <ele>62.14</ele>
        <time>2020-07-27T12:18:48Z</time>
      </trkpt>
      <trkpt lat="44.64107" lon="-0.09489">
        <ele>62.14</ele>
        <time>2020-07-27T12:19:05Z</time>
      </trkpt>
      <trkpt lat="44.64119" lon="-0.09482">
        <ele>62.62</ele>
        <time>2020-07-27T12:19:21Z</time>
      </trkpt>
      <trkpt lat="44.64131" lon="-0.09473">
        <ele>62.62</ele>
        <time>2020-07-27T12:19:34Z</time>
      </trkpt>
      <trkpt lat="44.64142" lon="-0.09467">
        <ele>62.62</ele>
        <time>2020-07-27T12:19:45Z</time>
      </trkpt>
      <trkpt lat="44.64149" lon="-0.09464">
        <ele>62.62</ele>
        <time>2020-07-27T12:19:52Z</time>
      </trkpt>
      <trkpt lat="44.64156" lon="-0.09451">
        <ele>61.66</ele>
        <time>2020-07-27T12:20:06Z</time>
      </trkpt>
      <trkpt lat="44.6414" lon="-0.09423">
        <ele>64.07</ele>
        <time>2020-07-27T12:20:29Z</time>
      </trkpt>
      <trkpt lat="44.6412" lon="-0.09423">
        <ele>65.03</ele>
        <time>2020-07-27T12:20:50Z</time>
      </trkpt>
      <trkpt lat="44.64099" lon="-0.09435">
        <ele>62.62</ele>
        <time>2020-07-27T12:21:11Z</time>
      </trkpt>
      <trkpt lat="44.64092" lon="-0.09438">
        <ele>62.14</ele>
        <time>2020-07-27T12:21:19Z</time>
      </trkpt>
      <trkpt lat="44.64091" lon="-0.09439">
        <ele>63.58</ele>
        <time>2020-07-27T12:21:21Z</time>
      </trkpt>
      <trkpt lat="44.64075" lon="-0.09427">
        <ele>63.58</ele>
        <time>2020-07-27T12:21:40Z</time>
      </trkpt>
      <trkpt lat="44.64066" lon="-0.09407">
        <ele>64.55</ele>
        <time>2020-07-27T12:21:58Z</time>
      </trkpt>
      <trkpt lat="44.64041" lon="-0.09405">
        <ele>65.51</ele>
        <time>2020-07-27T12:22:18Z</time>
      </trkpt>
      <trkpt lat="44.64034" lon="-0.0941">
        <ele>65.51</ele>
        <time>2020-07-27T12:22:40Z</time>
      </trkpt>
      <trkpt lat="44.64025" lon="-0.09415">
        <ele>63.58</ele>
        <time>2020-07-27T12:23:04Z</time>
      </trkpt>
      <trkpt lat="44.64013" lon="-0.09418">
        <ele>64.07</ele>
        <time>2020-07-27T12:23:14Z</time>
      </trkpt>
      <trkpt lat="44.64003" lon="-0.09427">
        <ele>65.03</ele>
        <time>2020-07-27T12:23:37Z</time>
      </trkpt>
      <trkpt lat="44.63992" lon="-0.09432">
        <ele>65.51</ele>
        <time>2020-07-27T12:24:02Z</time>
      </trkpt>
      <trkpt lat="44.63967" lon="-0.09447">
        <ele>65.03</ele>
        <time>2020-07-27T12:24:23Z</time>
      </trkpt>
      <trkpt lat="44.63964" lon="-0.0945">
        <ele>65.03</ele>
        <time>2020-07-27T12:24:25Z</time>
      </trkpt>
      <trkpt lat="44.63962" lon="-0.09452">
        <ele>65.03</ele>
        <time>2020-07-27T12:24:28Z</time>
      </trkpt>
      <trkpt lat="44.63961" lon="-0.09461">
        <ele>63.58</ele>
        <time>2020-07-27T12:24:34Z</time>
      </trkpt>
      <trkpt lat="44.63962" lon="-0.09463">
        <ele>63.58</ele>
        <time>2020-07-27T12:24:36Z</time>
      </trkpt>
      <trkpt lat="44.63968" lon="-0.09487">
        <ele>61.66</ele>
        <time>2020-07-27T12:24:52Z</time>
      </trkpt>
      <trkpt lat="44.63975" lon="-0.09518">
        <ele>59.74</ele>
        <time>2020-07-27T12:25:12Z</time>
      </trkpt>
      <trkpt lat="44.63976" lon="-0.09521">
        <ele>59.74</ele>
        <time>2020-07-27T12:25:25Z</time>
      </trkpt>
      <trkpt lat="44.63983" lon="-0.09552">
        <ele>58.3</ele>
        <time>2020-07-27T12:25:45Z</time>
      </trkpt>
      <trkpt lat="44.63985" lon="-0.09559">
        <ele>58.3</ele>
        <time>2020-07-27T12:25:49Z</time>
      </trkpt>
      <trkpt lat="44.63978" lon="-0.09573">
        <ele>57.34</ele>
        <time>2020-07-27T12:26:00Z</time>
      </trkpt>
      <trkpt lat="44.63954" lon="-0.09585">
        <ele>54.45</ele>
        <time>2020-07-27T12:26:20Z</time>
      </trkpt>
      <trkpt lat="44.63931" lon="-0.09597">
        <ele>53.01</ele>
        <time>2020-07-27T12:26:40Z</time>
      </trkpt>
      <trkpt lat="44.63912" lon="-0.09613">
        <ele>50.61</ele>
        <time>2020-07-27T12:26:58Z</time>
      </trkpt>
      <trkpt lat="44.63909" lon="-0.09615">
        <ele>52.05</ele>
        <time>2020-07-27T12:27:01Z</time>
      </trkpt>
      <trkpt lat="44.63898" lon="-0.09621">
        <ele>51.09</ele>
        <time>2020-07-27T12:27:12Z</time>
      </trkpt>
      <trkpt lat="44.63889" lon="-0.09625">
        <ele>52.05</ele>
        <time>2020-07-27T12:27:25Z</time>
      </trkpt>
      <trkpt lat="44.63876" lon="-0.09648">
        <ele>54.93</ele>
        <time>2020-07-27T12:27:45Z</time>
      </trkpt>
      <trkpt lat="44.63872" lon="-0.09651">
        <ele>55.41</ele>
        <time>2020-07-27T12:27:50Z</time>
      </trkpt>
      <trkpt lat="44.63857" lon="-0.09668">
        <ele>57.82</ele>
        <time>2020-07-27T12:28:09Z</time>
      </trkpt>
      <trkpt lat="44.63848" lon="-0.0969">
        <ele>60.22</ele>
        <time>2020-07-27T12:28:28Z</time>
      </trkpt>
      <trkpt lat="44.6384" lon="-0.09713">
        <ele>60.22</ele>
        <time>2020-07-27T12:28:46Z</time>
      </trkpt>
      <trkpt lat="44.63836" lon="-0.09739">
        <ele>61.18</ele>
        <time>2020-07-27T12:29:02Z</time>
      </trkpt>
      <trkpt lat="44.63834" lon="-0.09758">
        <ele>61.18</ele>
        <time>2020-07-27T12:29:15Z</time>
      </trkpt>
      <trkpt lat="44.63833" lon="-0.09766">
        <ele>61.18</ele>
        <time>2020-07-27T12:29:19Z</time>
      </trkpt>
      <trkpt lat="44.6383" lon="-0.09781">
        <ele>59.74</ele>
        <time>2020-07-27T12:29:27Z</time>
      </trkpt>
      <trkpt lat="44.6382" lon="-0.09801">
        <ele>58.3</ele>
        <time>2020-07-27T12:29:41Z</time>
      </trkpt>
      <trkpt lat="44.63816" lon="-0.09804">
        <ele>58.3</ele>
        <time>2020-07-27T12:29:45Z</time>
      </trkpt>
      <trkpt lat="44.63806" lon="-0.09809">
        <ele>57.82</ele>
        <time>2020-07-27T12:29:55Z</time>
      </trkpt>
      <trkpt lat="44.63783" lon="-0.09821">
        <ele>56.86</ele>
        <time>2020-07-27T12:30:13Z</time>
      </trkpt>
      <trkpt lat="44.6376" lon="-0.0983">
        <ele>56.37</ele>
        <time>2020-07-27T12:30:31Z</time>
      </trkpt>
      <trkpt lat="44.63749" lon="-0.09836">
        <ele>55.41</ele>
        <time>2020-07-27T12:30:42Z</time>
      </trkpt>
      <trkpt lat="44.63747" lon="-0.09837">
        <ele>56.37</ele>
        <time>2020-07-27T12:30:44Z</time>
      </trkpt>
      <trkpt lat="44.63737" lon="-0.09843">
        <ele>55.41</ele>
        <time>2020-07-27T12:30:52Z</time>
      </trkpt>
      <trkpt lat="44.63734" lon="-0.09845">
        <ele>56.86</ele>
        <time>2020-07-27T12:30:54Z</time>
      </trkpt>
      <trkpt lat="44.63728" lon="-0.09849">
        <ele>55.89</ele>
        <time>2020-07-27T12:30:59Z</time>
      </trkpt>
      <trkpt lat="44.63725" lon="-0.0985">
        <ele>56.86</ele>
        <time>2020-07-27T12:31:01Z</time>
      </trkpt>
      <trkpt lat="44.63706" lon="-0.09857">
        <ele>57.34</ele>
        <time>2020-07-27T12:31:17Z</time>
      </trkpt>
      <trkpt lat="44.63704" lon="-0.09858">
        <ele>55.89</ele>
        <time>2020-07-27T12:31:19Z</time>
      </trkpt>
      <trkpt lat="44.63695" lon="-0.09861">
        <ele>56.86</ele>
        <time>2020-07-27T12:31:26Z</time>
      </trkpt>
      <trkpt lat="44.63692" lon="-0.09863">
        <ele>55.41</ele>
        <time>2020-07-27T12:31:28Z</time>
      </trkpt>
      <trkpt lat="44.63686" lon="-0.09866">
        <ele>55.89</ele>
        <time>2020-07-27T12:31:33Z</time>
      </trkpt>
      <trkpt lat="44.63666" lon="-0.09875">
        <ele>53.01</ele>
        <time>2020-07-27T12:31:49Z</time>
      </trkpt>
      <trkpt lat="44.63649" lon="-0.09883">
        <ele>52.05</ele>
        <time>2020-07-27T12:32:03Z</time>
      </trkpt>
      <trkpt lat="44.63646" lon="-0.09884">
        <ele>53.49</ele>
        <time>2020-07-27T12:32:05Z</time>
      </trkpt>
      <trkpt lat="44.63623" lon="-0.09887">
        <ele>52.05</ele>
        <time>2020-07-27T12:32:25Z</time>
      </trkpt>
      <trkpt lat="44.63618" lon="-0.09887">
        <ele>50.13</ele>
        <time>2020-07-27T12:32:29Z</time>
      </trkpt>
      <trkpt lat="44.63612" lon="-0.09887">
        <ele>51.57</ele>
        <time>2020-07-27T12:32:33Z</time>
      </trkpt>
      <trkpt lat="44.63588" lon="-0.09885">
        <ele>51.09</ele>
        <time>2020-07-27T12:32:52Z</time>
      </trkpt>
      <trkpt lat="44.63577" lon="-0.09883">
        <ele>49.65</ele>
        <time>2020-07-27T12:33:00Z</time>
      </trkpt>
      <trkpt lat="44.63555" lon="-0.09886">
        <ele>49.65</ele>
        <time>2020-07-27T12:33:16Z</time>
      </trkpt>
      <trkpt lat="44.63546" lon="-0.09885">
        <ele>48.2</ele>
        <time>2020-07-27T12:33:25Z</time>
      </trkpt>
      <trkpt lat="44.63545" lon="-0.09884">
        <ele>48.2</ele>
        <time>2020-07-27T12:33:26Z</time>
      </trkpt>
      <trkpt lat="44.63542" lon="-0.09884">
        <ele>49.65</ele>
        <time>2020-07-27T12:33:28Z</time>
      </trkpt>
      <trkpt lat="44.63538" lon="-0.09885">
        <ele>49.65</ele>
        <time>2020-07-27T12:33:30Z</time>
      </trkpt>
      <trkpt lat="44.63515" lon="-0.09888">
        <ele>48.2</ele>
        <time>2020-07-27T12:33:49Z</time>
      </trkpt>
      <trkpt lat="44.63497" lon="-0.09891">
        <ele>48.2</ele>
        <time>2020-07-27T12:34:02Z</time>
      </trkpt>
      <trkpt lat="44.63495" lon="-0.09891">
        <ele>49.65</ele>
        <time>2020-07-27T12:34:04Z</time>
      </trkpt>
      <trkpt lat="44.63486" lon="-0.09892">
        <ele>47.72</ele>
        <time>2020-07-27T12:34:10Z</time>
      </trkpt>
      <trkpt lat="44.63484" lon="-0.09893">
        <ele>49.16</ele>
        <time>2020-07-27T12:34:12Z</time>
      </trkpt>
      <trkpt lat="44.63464" lon="-0.09896">
        <ele>49.16</ele>
        <time>2020-07-27T12:34:29Z</time>
      </trkpt>
      <trkpt lat="44.63452" lon="-0.09896">
        <ele>46.76</ele>
        <time>2020-07-27T12:34:38Z</time>
      </trkpt>
      <trkpt lat="44.63449" lon="-0.09897">
        <ele>48.2</ele>
        <time>2020-07-27T12:34:40Z</time>
      </trkpt>
      <trkpt lat="44.63442" lon="-0.09897">
        <ele>47.72</ele>
        <time>2020-07-27T12:34:49Z</time>
      </trkpt>
      <trkpt lat="44.63429" lon="-0.09893">
        <ele>46.28</ele>
        <time>2020-07-27T12:34:58Z</time>
      </trkpt>
      <trkpt lat="44.63426" lon="-0.09893">
        <ele>47.24</ele>
        <time>2020-07-27T12:35:00Z</time>
      </trkpt>
      <trkpt lat="44.63423" lon="-0.09892">
        <ele>45.8</ele>
        <time>2020-07-27T12:35:02Z</time>
      </trkpt>
      <trkpt lat="44.63421" lon="-0.09891">
        <ele>47.24</ele>
        <time>2020-07-27T12:35:04Z</time>
      </trkpt>
      <trkpt lat="44.63415" lon="-0.09889">
        <ele>45.8</ele>
        <time>2020-07-27T12:35:09Z</time>
      </trkpt>
      <trkpt lat="44.63412" lon="-0.09889">
        <ele>47.24</ele>
        <time>2020-07-27T12:35:12Z</time>
      </trkpt>
      <trkpt lat="44.63406" lon="-0.09888">
        <ele>47.24</ele>
        <time>2020-07-27T12:35:19Z</time>
      </trkpt>
      <trkpt lat="44.63386" lon="-0.09892">
        <ele>48.2</ele>
        <time>2020-07-27T12:35:35Z</time>
      </trkpt>
      <trkpt lat="44.63378" lon="-0.09893">
        <ele>47.24</ele>
        <time>2020-07-27T12:35:41Z</time>
      </trkpt>
      <trkpt lat="44.63357" lon="-0.09897">
        <ele>49.16</ele>
        <time>2020-07-27T12:35:57Z</time>
      </trkpt>
      <trkpt lat="44.63344" lon="-0.09898">
        <ele>48.2</ele>
        <time>2020-07-27T12:36:06Z</time>
      </trkpt>
      <trkpt lat="44.63322" lon="-0.09902">
        <ele>49.65</ele>
        <time>2020-07-27T12:36:22Z</time>
      </trkpt>
      <trkpt lat="44.63318" lon="-0.09903">
        <ele>48.2</ele>
        <time>2020-07-27T12:36:26Z</time>
      </trkpt>
      <trkpt lat="44.63316" lon="-0.09903">
        <ele>49.65</ele>
        <time>2020-07-27T12:36:28Z</time>
      </trkpt>
      <trkpt lat="44.63298" lon="-0.09903">
        <ele>50.13</ele>
        <time>2020-07-27T12:36:43Z</time>
      </trkpt>
      <trkpt lat="44.63275" lon="-0.09898">
        <ele>49.65</ele>
        <time>2020-07-27T12:37:01Z</time>
      </trkpt>
      <trkpt lat="44.63268" lon="-0.099">
        <ele>49.65</ele>
        <time>2020-07-27T12:37:07Z</time>
      </trkpt>
      <trkpt lat="44.63261" lon="-0.09902">
        <ele>51.09</ele>
        <time>2020-07-27T12:37:12Z</time>
      </trkpt>
      <trkpt lat="44.63239" lon="-0.09903">
        <ele>52.05</ele>
        <time>2020-07-27T12:37:31Z</time>
      </trkpt>
      <trkpt lat="44.63222" lon="-0.09904">
        <ele>52.53</ele>
        <time>2020-07-27T12:37:46Z</time>
      </trkpt>
      <trkpt lat="44.63212" lon="-0.09904">
        <ele>53.01</ele>
        <time>2020-07-27T12:38:07Z</time>
      </trkpt>
      <trkpt lat="44.63194" lon="-0.09905">
        <ele>51.57</ele>
        <time>2020-07-27T12:38:24Z</time>
      </trkpt>
      <trkpt lat="44.63188" lon="-0.09905">
        <ele>53.01</ele>
        <time>2020-07-27T12:38:29Z</time>
      </trkpt>
      <trkpt lat="44.63172" lon="-0.09901">
        <ele>51.57</ele>
        <time>2020-07-27T12:38:44Z</time>
      </trkpt>
      <trkpt lat="44.63167" lon="-0.09899">
        <ele>53.01</ele>
        <time>2020-07-27T12:38:49Z</time>
      </trkpt>
      <trkpt lat="44.63146" lon="-0.0989">
        <ele>51.09</ele>
        <time>2020-07-27T12:39:08Z</time>
      </trkpt>
      <trkpt lat="44.6314" lon="-0.09891">
        <ele>49.65</ele>
        <time>2020-07-27T12:39:12Z</time>
      </trkpt>
      <trkpt lat="44.63138" lon="-0.09892">
        <ele>50.61</ele>
        <time>2020-07-27T12:39:14Z</time>
      </trkpt>
      <trkpt lat="44.6313" lon="-0.09893">
        <ele>49.16</ele>
        <time>2020-07-27T12:39:24Z</time>
      </trkpt>
      <trkpt lat="44.63109" lon="-0.09898">
        <ele>48.68</ele>
        <time>2020-07-27T12:39:42Z</time>
      </trkpt>
      <trkpt lat="44.63106" lon="-0.09899">
        <ele>48.2</ele>
        <time>2020-07-27T12:39:44Z</time>
      </trkpt>
      <trkpt lat="44.6309" lon="-0.09906">
        <ele>48.2</ele>
        <time>2020-07-27T12:39:56Z</time>
      </trkpt>
      <trkpt lat="44.63088" lon="-0.09907">
        <ele>49.65</ele>
        <time>2020-07-27T12:39:58Z</time>
      </trkpt>
      <trkpt lat="44.6308" lon="-0.0991">
        <ele>49.65</ele>
        <time>2020-07-27T12:40:04Z</time>
      </trkpt>
      <trkpt lat="44.63078" lon="-0.09911">
        <ele>47.72</ele>
        <time>2020-07-27T12:40:06Z</time>
      </trkpt>
      <trkpt lat="44.63076" lon="-0.09911">
        <ele>49.65</ele>
        <time>2020-07-27T12:40:08Z</time>
      </trkpt>
      <trkpt lat="44.63074" lon="-0.09912">
        <ele>47.72</ele>
        <time>2020-07-27T12:40:10Z</time>
      </trkpt>
      <trkpt lat="44.63072" lon="-0.09913">
        <ele>49.65</ele>
        <time>2020-07-27T12:40:12Z</time>
      </trkpt>
      <trkpt lat="44.6305" lon="-0.09928">
        <ele>50.13</ele>
        <time>2020-07-27T12:40:30Z</time>
      </trkpt>
      <trkpt lat="44.63042" lon="-0.09931">
        <ele>48.2</ele>
        <time>2020-07-27T12:40:36Z</time>
      </trkpt>
      <trkpt lat="44.63038" lon="-0.09934">
        <ele>49.65</ele>
        <time>2020-07-27T12:40:40Z</time>
      </trkpt>
      <trkpt lat="44.63018" lon="-0.09949">
        <ele>50.13</ele>
        <time>2020-07-27T12:40:57Z</time>
      </trkpt>
      <trkpt lat="44.6301" lon="-0.09956">
        <ele>48.68</ele>
        <time>2020-07-27T12:41:05Z</time>
      </trkpt>
      <trkpt lat="44.63007" lon="-0.09958">
        <ele>50.13</ele>
        <time>2020-07-27T12:41:09Z</time>
      </trkpt>
      <trkpt lat="44.6299" lon="-0.09968">
        <ele>48.2</ele>
        <time>2020-07-27T12:41:23Z</time>
      </trkpt>
      <trkpt lat="44.62973" lon="-0.09977">
        <ele>48.2</ele>
        <time>2020-07-27T12:41:39Z</time>
      </trkpt>
      <trkpt lat="44.62958" lon="-0.09984">
        <ele>46.76</ele>
        <time>2020-07-27T12:41:50Z</time>
      </trkpt>
      <trkpt lat="44.62937" lon="-0.09992">
        <ele>46.76</ele>
        <time>2020-07-27T12:42:07Z</time>
      </trkpt>
      <trkpt lat="44.62936" lon="-0.09992">
        <ele>46.76</ele>
        <time>2020-07-27T12:42:08Z</time>
      </trkpt>
      <trkpt lat="44.62917" lon="-0.1">
        <ele>46.76</ele>
        <time>2020-07-27T12:42:24Z</time>
      </trkpt>
      <trkpt lat="44.62902" lon="-0.10008">
        <ele>46.28</ele>
        <time>2020-07-27T12:42:36Z</time>
      </trkpt>
      <trkpt lat="44.62901" lon="-0.10015">
        <ele>46.28</ele>
        <time>2020-07-27T12:42:52Z</time>
      </trkpt>
      <trkpt lat="44.62901" lon="-0.10028">
        <ele>44.84</ele>
        <time>2020-07-27T12:43:08Z</time>
      </trkpt>
      <trkpt lat="44.62907" lon="-0.10055">
        <ele>44.36</ele>
        <time>2020-07-27T12:43:28Z</time>
      </trkpt>
      <trkpt lat="44.6291" lon="-0.10058">
        <ele>44.36</ele>
        <time>2020-07-27T12:43:47Z</time>
      </trkpt>
      <trkpt lat="44.62908" lon="-0.1006">
        <ele>44.36</ele>
        <time>2020-07-27T12:44:05Z</time>
      </trkpt>
      <trkpt lat="44.62908" lon="-0.10061">
        <ele>44.36</ele>
        <time>2020-07-27T12:44:06Z</time>
      </trkpt>
      <trkpt lat="44.62904" lon="-0.10067">
        <ele>44.36</ele>
        <time>2020-07-27T12:44:12Z</time>
      </trkpt>
      <trkpt lat="44.62889" lon="-0.1008">
        <ele>45.32</ele>
        <time>2020-07-27T12:44:26Z</time>
      </trkpt>
      <trkpt lat="44.62885" lon="-0.10084">
        <ele>46.28</ele>
        <time>2020-07-27T12:44:32Z</time>
      </trkpt>
      <trkpt lat="44.62882" lon="-0.10087">
        <ele>46.28</ele>
        <time>2020-07-27T12:44:36Z</time>
      </trkpt>
      <trkpt lat="44.62867" lon="-0.10099">
        <ele>47.24</ele>
        <time>2020-07-27T12:44:53Z</time>
      </trkpt>
      <trkpt lat="44.62865" lon="-0.101">
        <ele>47.24</ele>
        <time>2020-07-27T12:44:55Z</time>
      </trkpt>
      <trkpt lat="44.62853" lon="-0.10111">
        <ele>48.68</ele>
        <time>2020-07-27T12:45:09Z</time>
      </trkpt>
      <trkpt lat="44.6285" lon="-0.10113">
        <ele>49.16</ele>
        <time>2020-07-27T12:45:12Z</time>
      </trkpt>
      <trkpt lat="44.62843" lon="-0.10118">
        <ele>50.13</ele>
        <time>2020-07-27T12:45:19Z</time>
      </trkpt>
      <trkpt lat="44.6283" lon="-0.10129">
        <ele>51.09</ele>
        <time>2020-07-27T12:45:34Z</time>
      </trkpt>
      <trkpt lat="44.62815" lon="-0.10145">
        <ele>53.01</ele>
        <time>2020-07-27T12:45:54Z</time>
      </trkpt>
      <trkpt lat="44.628" lon="-0.10161">
        <ele>54.93</ele>
        <time>2020-07-27T12:46:12Z</time>
      </trkpt>
      <trkpt lat="44.62798" lon="-0.10168">
        <ele>55.41</ele>
        <time>2020-07-27T12:46:32Z</time>
      </trkpt>
      <trkpt lat="44.62799" lon="-0.10174">
        <ele>55.41</ele>
        <time>2020-07-27T12:47:04Z</time>
      </trkpt>
      <trkpt lat="44.62788" lon="-0.10184">
        <ele>55.89</ele>
        <time>2020-07-27T12:47:20Z</time>
      </trkpt>
      <trkpt lat="44.62772" lon="-0.10204">
        <ele>56.86</ele>
        <time>2020-07-27T12:47:41Z</time>
      </trkpt>
      <trkpt lat="44.62752" lon="-0.10216">
        <ele>55.41</ele>
        <time>2020-07-27T12:47:58Z</time>
      </trkpt>
      <trkpt lat="44.62741" lon="-0.10227">
        <ele>55.41</ele>
        <time>2020-07-27T12:48:09Z</time>
      </trkpt>
      <trkpt lat="44.62738" lon="-0.1023">
        <ele>54.45</ele>
        <time>2020-07-27T12:48:13Z</time>
      </trkpt>
      <trkpt lat="44.62736" lon="-0.10232">
        <ele>55.41</ele>
        <time>2020-07-27T12:48:15Z</time>
      </trkpt>
      <trkpt lat="44.62725" lon="-0.10243">
        <ele>53.97</ele>
        <time>2020-07-27T12:48:26Z</time>
      </trkpt>
      <trkpt lat="44.62704" lon="-0.10262">
        <ele>52.53</ele>
        <time>2020-07-27T12:48:47Z</time>
      </trkpt>
      <trkpt lat="44.62693" lon="-0.10274">
        <ele>52.05</ele>
        <time>2020-07-27T12:48:59Z</time>
      </trkpt>
      <trkpt lat="44.62687" lon="-0.10282">
        <ele>50.13</ele>
        <time>2020-07-27T12:49:06Z</time>
      </trkpt>
      <trkpt lat="44.62681" lon="-0.10286">
        <ele>49.65</ele>
        <time>2020-07-27T12:49:12Z</time>
      </trkpt>
      <trkpt lat="44.62679" lon="-0.10288">
        <ele>51.09</ele>
        <time>2020-07-27T12:49:14Z</time>
      </trkpt>
      <trkpt lat="44.62678" lon="-0.10289">
        <ele>49.65</ele>
        <time>2020-07-27T12:49:15Z</time>
      </trkpt>
      <trkpt lat="44.62672" lon="-0.10293">
        <ele>49.16</ele>
        <time>2020-07-27T12:49:20Z</time>
      </trkpt>
      <trkpt lat="44.62656" lon="-0.10309">
        <ele>48.2</ele>
        <time>2020-07-27T12:49:39Z</time>
      </trkpt>
      <trkpt lat="44.62651" lon="-0.1031">
        <ele>48.2</ele>
        <time>2020-07-27T12:49:44Z</time>
      </trkpt>
      <trkpt lat="44.62641" lon="-0.10306">
        <ele>48.2</ele>
        <time>2020-07-27T12:49:59Z</time>
      </trkpt>
      <trkpt lat="44.62642" lon="-0.10308">
        <ele>48.2</ele>
        <time>2020-07-27T12:50:32Z</time>
      </trkpt>
      <trkpt lat="44.62642" lon="-0.10306">
        <ele>48.2</ele>
        <time>2020-07-27T12:51:05Z</time>
      </trkpt>
      <trkpt lat="44.62642" lon="-0.1031">
        <ele>48.2</ele>
        <time>2020-07-27T12:51:29Z</time>
      </trkpt>
      <trkpt lat="44.62642" lon="-0.10306">
        <ele>48.2</ele>
        <time>2020-07-27T12:51:52Z</time>
      </trkpt>
      <trkpt lat="44.62647" lon="-0.10312">
        <ele>48.2</ele>
        <time>2020-07-27T12:52:02Z</time>
      </trkpt>
      <trkpt lat="44.62652" lon="-0.10318">
        <ele>48.2</ele>
        <time>2020-07-27T12:52:21Z</time>
      </trkpt>
      <trkpt lat="44.62651" lon="-0.10326">
        <ele>48.2</ele>
        <time>2020-07-27T12:52:41Z</time>
      </trkpt>
      <trkpt lat="44.62651" lon="-0.10327">
        <ele>48.2</ele>
        <time>2020-07-27T12:53:06Z</time>
      </trkpt>
      <trkpt lat="44.62652" lon="-0.10326">
        <ele>48.2</ele>
        <time>2020-07-27T12:53:27Z</time>
      </trkpt>
      <trkpt lat="44.62653" lon="-0.10337">
        <ele>46.76</ele>
        <time>2020-07-27T12:53:43Z</time>
      </trkpt>
      <trkpt lat="44.62652" lon="-0.10353">
        <ele>46.76</ele>
        <time>2020-07-27T12:53:57Z</time>
      </trkpt>
      <trkpt lat="44.62645" lon="-0.10358">
        <ele>45.8</ele>
        <time>2020-07-27T12:54:15Z</time>
      </trkpt>
      <trkpt lat="44.62648" lon="-0.10353">
        <ele>45.8</ele>
        <time>2020-07-27T12:54:43Z</time>
      </trkpt>
      <trkpt lat="44.62653" lon="-0.10372">
        <ele>45.8</ele>
        <time>2020-07-27T12:55:07Z</time>
      </trkpt>
      <trkpt lat="44.62654" lon="-0.10347">
        <ele>46.76</ele>
        <time>2020-07-27T12:55:20Z</time>
      </trkpt>
      <trkpt lat="44.62651" lon="-0.10329">
        <ele>48.2</ele>
        <time>2020-07-27T12:55:35Z</time>
      </trkpt>
      <trkpt lat="44.6265" lon="-0.10325">
        <ele>48.68</ele>
        <time>2020-07-27T12:55:51Z</time>
      </trkpt>
      <trkpt lat="44.62649" lon="-0.10324">
        <ele>48.68</ele>
        <time>2020-07-27T12:56:09Z</time>
      </trkpt>
      <trkpt lat="44.62649" lon="-0.10316">
        <ele>49.65</ele>
        <time>2020-07-27T12:56:25Z</time>
      </trkpt>
      <trkpt lat="44.62647" lon="-0.10308">
        <ele>49.16</ele>
        <time>2020-07-27T12:56:42Z</time>
      </trkpt>
      <trkpt lat="44.62642" lon="-0.10305">
        <ele>49.16</ele>
        <time>2020-07-27T12:57:01Z</time>
      </trkpt>
      <trkpt lat="44.62638" lon="-0.10302">
        <ele>49.16</ele>
        <time>2020-07-27T12:57:18Z</time>
      </trkpt>
      <trkpt lat="44.62631" lon="-0.10292">
        <ele>47.72</ele>
        <time>2020-07-27T12:57:28Z</time>
      </trkpt>
      <trkpt lat="44.62628" lon="-0.10287">
        <ele>49.16</ele>
        <time>2020-07-27T12:57:32Z</time>
      </trkpt>
      <trkpt lat="44.62616" lon="-0.10261">
        <ele>48.68</ele>
        <time>2020-07-27T12:57:49Z</time>
      </trkpt>
      <trkpt lat="44.62602" lon="-0.10233">
        <ele>48.68</ele>
        <time>2020-07-27T12:58:06Z</time>
      </trkpt>
      <trkpt lat="44.62594" lon="-0.10215">
        <ele>47.24</ele>
        <time>2020-07-27T12:58:18Z</time>
      </trkpt>
      <trkpt lat="44.62593" lon="-0.10211">
        <ele>48.68</ele>
        <time>2020-07-27T12:58:21Z</time>
      </trkpt>
      <trkpt lat="44.62585" lon="-0.10193">
        <ele>47.72</ele>
        <time>2020-07-27T12:58:32Z</time>
      </trkpt>
      <trkpt lat="44.62583" lon="-0.10187">
        <ele>49.16</ele>
        <time>2020-07-27T12:58:36Z</time>
      </trkpt>
      <trkpt lat="44.62582" lon="-0.10182">
        <ele>47.72</ele>
        <time>2020-07-27T12:58:40Z</time>
      </trkpt>
      <trkpt lat="44.6258" lon="-0.10177">
        <ele>49.16</ele>
        <time>2020-07-27T12:58:44Z</time>
      </trkpt>
      <trkpt lat="44.6257" lon="-0.10158">
        <ele>48.2</ele>
        <time>2020-07-27T12:58:57Z</time>
      </trkpt>
      <trkpt lat="44.62567" lon="-0.10156">
        <ele>49.16</ele>
        <time>2020-07-27T12:59:17Z</time>
      </trkpt>
      <trkpt lat="44.62562" lon="-0.10148">
        <ele>49.65</ele>
        <time>2020-07-27T12:59:50Z</time>
      </trkpt>
      <trkpt lat="44.6255" lon="-0.10122">
        <ele>51.09</ele>
        <time>2020-07-27T13:00:09Z</time>
      </trkpt>
      <trkpt lat="44.62547" lon="-0.10118">
        <ele>49.65</ele>
        <time>2020-07-27T13:00:12Z</time>
      </trkpt>
      <trkpt lat="44.62545" lon="-0.10116">
        <ele>50.61</ele>
        <time>2020-07-27T13:00:14Z</time>
      </trkpt>
      <trkpt lat="44.62541" lon="-0.10111">
        <ele>50.61</ele>
        <time>2020-07-27T13:00:18Z</time>
      </trkpt>
      <trkpt lat="44.6253" lon="-0.1009">
        <ele>49.65</ele>
        <time>2020-07-27T13:00:31Z</time>
      </trkpt>
      <trkpt lat="44.62529" lon="-0.10088">
        <ele>51.09</ele>
        <time>2020-07-27T13:00:33Z</time>
      </trkpt>
      <trkpt lat="44.62523" lon="-0.10077">
        <ele>50.61</ele>
        <time>2020-07-27T13:00:42Z</time>
      </trkpt>
      <trkpt lat="44.6252" lon="-0.1007">
        <ele>51.09</ele>
        <time>2020-07-27T13:00:46Z</time>
      </trkpt>
      <trkpt lat="44.62502" lon="-0.10038">
        <ele>51.57</ele>
        <time>2020-07-27T13:01:06Z</time>
      </trkpt>
      <trkpt lat="44.62499" lon="-0.10026">
        <ele>52.05</ele>
        <time>2020-07-27T13:01:15Z</time>
      </trkpt>
      <trkpt lat="44.62496" lon="-0.09996">
        <ele>49.65</ele>
        <time>2020-07-27T13:01:32Z</time>
      </trkpt>
      <trkpt lat="44.62495" lon="-0.09982">
        <ele>50.13</ele>
        <time>2020-07-27T13:01:38Z</time>
      </trkpt>
      <trkpt lat="44.62495" lon="-0.09978">
        <ele>50.13</ele>
        <time>2020-07-27T13:01:40Z</time>
      </trkpt>
      <trkpt lat="44.6249" lon="-0.09958">
        <ele>50.13</ele>
        <time>2020-07-27T13:01:52Z</time>
      </trkpt>
      <trkpt lat="44.62489" lon="-0.09948">
        <ele>51.09</ele>
        <time>2020-07-27T13:01:57Z</time>
      </trkpt>
      <trkpt lat="44.62489" lon="-0.09937">
        <ele>49.65</ele>
        <time>2020-07-27T13:02:03Z</time>
      </trkpt>
      <trkpt lat="44.62488" lon="-0.09925">
        <ele>50.13</ele>
        <time>2020-07-27T13:02:09Z</time>
      </trkpt>
      <trkpt lat="44.62478" lon="-0.09898">
        <ele>50.61</ele>
        <time>2020-07-27T13:02:27Z</time>
      </trkpt>
      <trkpt lat="44.62468" lon="-0.09898">
        <ele>49.65</ele>
        <time>2020-07-27T13:02:40Z</time>
      </trkpt>
      <trkpt lat="44.62463" lon="-0.09895">
        <ele>49.65</ele>
        <time>2020-07-27T13:02:50Z</time>
      </trkpt>
      <trkpt lat="44.62461" lon="-0.09893">
        <ele>49.65</ele>
        <time>2020-07-27T13:03:03Z</time>
      </trkpt>
      <trkpt lat="44.62453" lon="-0.099">
        <ele>50.13</ele>
        <time>2020-07-27T13:03:16Z</time>
      </trkpt>
      <trkpt lat="44.62445" lon="-0.09901">
        <ele>48.68</ele>
        <time>2020-07-27T13:03:22Z</time>
      </trkpt>
      <trkpt lat="44.62433" lon="-0.09908">
        <ele>48.68</ele>
        <time>2020-07-27T13:03:33Z</time>
      </trkpt>
      <trkpt lat="44.62425" lon="-0.09911">
        <ele>49.16</ele>
        <time>2020-07-27T13:03:41Z</time>
      </trkpt>
      <trkpt lat="44.62416" lon="-0.09917">
        <ele>47.24</ele>
        <time>2020-07-27T13:03:48Z</time>
      </trkpt>
      <trkpt lat="44.62413" lon="-0.0992">
        <ele>48.2</ele>
        <time>2020-07-27T13:04:02Z</time>
      </trkpt>
      <trkpt lat="44.62413" lon="-0.09921">
        <ele>48.2</ele>
        <time>2020-07-27T13:04:05Z</time>
      </trkpt>
      <trkpt lat="44.6242" lon="-0.09917">
        <ele>48.2</ele>
        <time>2020-07-27T13:04:18Z</time>
      </trkpt>
      <trkpt lat="44.62441" lon="-0.09903">
        <ele>49.16</ele>
        <time>2020-07-27T13:04:39Z</time>
      </trkpt>
      <trkpt lat="44.62461" lon="-0.09897">
        <ele>49.65</ele>
        <time>2020-07-27T13:04:58Z</time>
      </trkpt>
      <trkpt lat="44.62476" lon="-0.09898">
        <ele>49.65</ele>
        <time>2020-07-27T13:05:18Z</time>
      </trkpt>
      <trkpt lat="44.6248" lon="-0.09893">
        <ele>49.65</ele>
        <time>2020-07-27T13:05:41Z</time>
      </trkpt>
      <trkpt lat="44.62478" lon="-0.09886">
        <ele>50.13</ele>
        <time>2020-07-27T13:06:06Z</time>
      </trkpt>
      <trkpt lat="44.62476" lon="-0.09852">
        <ele>49.16</ele>
        <time>2020-07-27T13:06:24Z</time>
      </trkpt>
      <trkpt lat="44.62476" lon="-0.0985">
        <ele>51.09</ele>
        <time>2020-07-27T13:06:26Z</time>
      </trkpt>
      <trkpt lat="44.62471" lon="-0.09825">
        <ele>51.09</ele>
        <time>2020-07-27T13:06:40Z</time>
      </trkpt>
      <trkpt lat="44.62468" lon="-0.09792">
        <ele>51.57</ele>
        <time>2020-07-27T13:06:59Z</time>
      </trkpt>
      <trkpt lat="44.62467" lon="-0.09757">
        <ele>52.05</ele>
        <time>2020-07-27T13:07:18Z</time>
      </trkpt>
      <trkpt lat="44.62465" lon="-0.09729">
        <ele>52.53</ele>
        <time>2020-07-27T13:07:35Z</time>
      </trkpt>
      <trkpt lat="44.62463" lon="-0.09696">
        <ele>53.01</ele>
        <time>2020-07-27T13:07:53Z</time>
      </trkpt>
      <trkpt lat="44.62462" lon="-0.09664">
        <ele>53.97</ele>
        <time>2020-07-27T13:08:11Z</time>
      </trkpt>
      <trkpt lat="44.62462" lon="-0.0966">
        <ele>52.53</ele>
        <time>2020-07-27T13:08:14Z</time>
      </trkpt>
      <trkpt lat="44.62462" lon="-0.09657">
        <ele>53.97</ele>
        <time>2020-07-27T13:08:16Z</time>
      </trkpt>
      <trkpt lat="44.62461" lon="-0.09631">
        <ele>53.01</ele>
        <time>2020-07-27T13:08:30Z</time>
      </trkpt>
      <trkpt lat="44.62461" lon="-0.09623">
        <ele>54.93</ele>
        <time>2020-07-27T13:08:35Z</time>
      </trkpt>
      <trkpt lat="44.62462" lon="-0.09594">
        <ele>53.49</ele>
        <time>2020-07-27T13:08:51Z</time>
      </trkpt>
      <trkpt lat="44.62464" lon="-0.09587">
        <ele>53.49</ele>
        <time>2020-07-27T13:08:55Z</time>
      </trkpt>
      <trkpt lat="44.62473" lon="-0.09561">
        <ele>53.49</ele>
        <time>2020-07-27T13:09:14Z</time>
      </trkpt>
      <trkpt lat="44.62483" lon="-0.09535">
        <ele>53.01</ele>
        <time>2020-07-27T13:09:31Z</time>
      </trkpt>
      <trkpt lat="44.62493" lon="-0.09506">
        <ele>53.01</ele>
        <time>2020-07-27T13:09:48Z</time>
      </trkpt>
      <trkpt lat="44.62497" lon="-0.09491">
        <ele>51.09</ele>
        <time>2020-07-27T13:09:57Z</time>
      </trkpt>
      <trkpt lat="44.62497" lon="-0.09488">
        <ele>52.53</ele>
        <time>2020-07-27T13:09:59Z</time>
      </trkpt>
      <trkpt lat="44.62497" lon="-0.09484">
        <ele>51.09</ele>
        <time>2020-07-27T13:10:01Z</time>
      </trkpt>
      <trkpt lat="44.62496" lon="-0.0948">
        <ele>53.01</ele>
        <time>2020-07-27T13:10:03Z</time>
      </trkpt>
      <trkpt lat="44.62491" lon="-0.09447">
        <ele>53.01</ele>
        <time>2020-07-27T13:10:21Z</time>
      </trkpt>
      <trkpt lat="44.62482" lon="-0.0941">
        <ele>53.01</ele>
        <time>2020-07-27T13:10:43Z</time>
      </trkpt>
      <trkpt lat="44.62476" lon="-0.0938">
        <ele>53.97</ele>
        <time>2020-07-27T13:11:01Z</time>
      </trkpt>
      <trkpt lat="44.62476" lon="-0.09375">
        <ele>54.45</ele>
        <time>2020-07-27T13:11:04Z</time>
      </trkpt>
      <trkpt lat="44.62476" lon="-0.0937">
        <ele>53.01</ele>
        <time>2020-07-27T13:11:07Z</time>
      </trkpt>
      <trkpt lat="44.62476" lon="-0.09368">
        <ele>54.45</ele>
        <time>2020-07-27T13:11:08Z</time>
      </trkpt>
      <trkpt lat="44.62477" lon="-0.09339">
        <ele>54.93</ele>
        <time>2020-07-27T13:11:26Z</time>
      </trkpt>
      <trkpt lat="44.6248" lon="-0.09325">
        <ele>54.93</ele>
        <time>2020-07-27T13:11:35Z</time>
      </trkpt>
      <trkpt lat="44.62481" lon="-0.09316">
        <ele>54.93</ele>
        <time>2020-07-27T13:11:40Z</time>
      </trkpt>
      <trkpt lat="44.62482" lon="-0.09312">
        <ele>56.37</ele>
        <time>2020-07-27T13:11:42Z</time>
      </trkpt>
      <trkpt lat="44.62483" lon="-0.09309">
        <ele>54.93</ele>
        <time>2020-07-27T13:11:44Z</time>
      </trkpt>
      <trkpt lat="44.62486" lon="-0.09303">
        <ele>55.89</ele>
        <time>2020-07-27T13:11:48Z</time>
      </trkpt>
      <trkpt lat="44.62494" lon="-0.09289">
        <ele>55.41</ele>
        <time>2020-07-27T13:11:59Z</time>
      </trkpt>
      <trkpt lat="44.62497" lon="-0.09283">
        <ele>57.34</ele>
        <time>2020-07-27T13:12:03Z</time>
      </trkpt>
      <trkpt lat="44.62499" lon="-0.09276">
        <ele>57.34</ele>
        <time>2020-07-27T13:12:07Z</time>
      </trkpt>
      <trkpt lat="44.62508" lon="-0.09251">
        <ele>58.3</ele>
        <time>2020-07-27T13:12:22Z</time>
      </trkpt>
      <trkpt lat="44.62509" lon="-0.09248">
        <ele>58.3</ele>
        <time>2020-07-27T13:12:24Z</time>
      </trkpt>
      <trkpt lat="44.62507" lon="-0.09241">
        <ele>58.78</ele>
        <time>2020-07-27T13:12:31Z</time>
      </trkpt>
      <trkpt lat="44.62509" lon="-0.0921">
        <ele>59.74</ele>
        <time>2020-07-27T13:12:50Z</time>
      </trkpt>
      <trkpt lat="44.62508" lon="-0.09172">
        <ele>58.3</ele>
        <time>2020-07-27T13:13:11Z</time>
      </trkpt>
      <trkpt lat="44.62508" lon="-0.09169">
        <ele>59.74</ele>
        <time>2020-07-27T13:13:13Z</time>
      </trkpt>
      <trkpt lat="44.62506" lon="-0.09157">
        <ele>58.3</ele>
        <time>2020-07-27T13:13:20Z</time>
      </trkpt>
      <trkpt lat="44.62505" lon="-0.09153">
        <ele>59.74</ele>
        <time>2020-07-27T13:13:22Z</time>
      </trkpt>
      <trkpt lat="44.62499" lon="-0.09122">
        <ele>57.82</ele>
        <time>2020-07-27T13:13:38Z</time>
      </trkpt>
      <trkpt lat="44.62498" lon="-0.09113">
        <ele>58.78</ele>
        <time>2020-07-27T13:13:43Z</time>
      </trkpt>
      <trkpt lat="44.62493" lon="-0.09089">
        <ele>58.3</ele>
        <time>2020-07-27T13:14:00Z</time>
      </trkpt>
      <trkpt lat="44.62493" lon="-0.09085">
        <ele>56.86</ele>
        <time>2020-07-27T13:14:02Z</time>
      </trkpt>
      <trkpt lat="44.62492" lon="-0.09082">
        <ele>58.3</ele>
        <time>2020-07-27T13:14:04Z</time>
      </trkpt>
      <trkpt lat="44.62484" lon="-0.0905">
        <ele>56.37</ele>
        <time>2020-07-27T13:14:22Z</time>
      </trkpt>
      <trkpt lat="44.62484" lon="-0.09047">
        <ele>56.37</ele>
        <time>2020-07-27T13:14:23Z</time>
      </trkpt>
      <trkpt lat="44.62482" lon="-0.09044">
        <ele>58.3</ele>
        <time>2020-07-27T13:14:25Z</time>
      </trkpt>
      <trkpt lat="44.62475" lon="-0.09015">
        <ele>56.86</ele>
        <time>2020-07-27T13:14:41Z</time>
      </trkpt>
      <trkpt lat="44.62476" lon="-0.09">
        <ele>56.37</ele>
        <time>2020-07-27T13:14:50Z</time>
      </trkpt>
      <trkpt lat="44.62476" lon="-0.08997">
        <ele>57.82</ele>
        <time>2020-07-27T13:14:52Z</time>
      </trkpt>
      <trkpt lat="44.62478" lon="-0.08985">
        <ele>56.37</ele>
        <time>2020-07-27T13:15:00Z</time>
      </trkpt>
      <trkpt lat="44.62479" lon="-0.08981">
        <ele>57.82</ele>
        <time>2020-07-27T13:15:02Z</time>
      </trkpt>
      <trkpt lat="44.62479" lon="-0.08945">
        <ele>57.34</ele>
        <time>2020-07-27T13:15:21Z</time>
      </trkpt>
      <trkpt lat="44.6248" lon="-0.0894">
        <ele>55.89</ele>
        <time>2020-07-27T13:15:24Z</time>
      </trkpt>
      <trkpt lat="44.6248" lon="-0.08932">
        <ele>57.34</ele>
        <time>2020-07-27T13:15:29Z</time>
      </trkpt>
      <trkpt lat="44.62481" lon="-0.08929">
        <ele>55.41</ele>
        <time>2020-07-27T13:15:31Z</time>
      </trkpt>
      <trkpt lat="44.62482" lon="-0.08921">
        <ele>56.86</ele>
        <time>2020-07-27T13:15:36Z</time>
      </trkpt>
      <trkpt lat="44.62482" lon="-0.08906">
        <ele>55.41</ele>
        <time>2020-07-27T13:15:44Z</time>
      </trkpt>
      <trkpt lat="44.62482" lon="-0.08902">
        <ele>56.86</ele>
        <time>2020-07-27T13:15:46Z</time>
      </trkpt>
      <trkpt lat="44.62481" lon="-0.08891">
        <ele>54.93</ele>
        <time>2020-07-27T13:15:52Z</time>
      </trkpt>
      <trkpt lat="44.62479" lon="-0.08885">
        <ele>54.93</ele>
        <time>2020-07-27T13:15:56Z</time>
      </trkpt>
      <trkpt lat="44.62477" lon="-0.08872">
        <ele>54.93</ele>
        <time>2020-07-27T13:16:03Z</time>
      </trkpt>
      <trkpt lat="44.62477" lon="-0.08868">
        <ele>55.89</ele>
        <time>2020-07-27T13:16:06Z</time>
      </trkpt>
      <trkpt lat="44.62471" lon="-0.08842">
        <ele>54.93</ele>
        <time>2020-07-27T13:16:22Z</time>
      </trkpt>
      <trkpt lat="44.62462" lon="-0.08825">
        <ele>53.97</ele>
        <time>2020-07-27T13:16:37Z</time>
      </trkpt>
      <trkpt lat="44.6246" lon="-0.08816">
        <ele>54.93</ele>
        <time>2020-07-27T13:17:01Z</time>
      </trkpt>
      <trkpt lat="44.62452" lon="-0.08789">
        <ele>54.93</ele>
        <time>2020-07-27T13:17:19Z</time>
      </trkpt>
      <trkpt lat="44.62451" lon="-0.08783">
        <ele>54.93</ele>
        <time>2020-07-27T13:17:32Z</time>
      </trkpt>
      <trkpt lat="44.62447" lon="-0.0877">
        <ele>53.49</ele>
        <time>2020-07-27T13:17:43Z</time>
      </trkpt>
      <trkpt lat="44.62445" lon="-0.0876">
        <ele>54.45</ele>
        <time>2020-07-27T13:17:49Z</time>
      </trkpt>
      <trkpt lat="44.62436" lon="-0.08736">
        <ele>54.45</ele>
        <time>2020-07-27T13:18:06Z</time>
      </trkpt>
      <trkpt lat="44.62431" lon="-0.08721">
        <ele>53.01</ele>
        <time>2020-07-27T13:18:16Z</time>
      </trkpt>
      <trkpt lat="44.62421" lon="-0.08692">
        <ele>52.53</ele>
        <time>2020-07-27T13:18:35Z</time>
      </trkpt>
      <trkpt lat="44.62412" lon="-0.08667">
        <ele>52.05</ele>
        <time>2020-07-27T13:18:51Z</time>
      </trkpt>
      <trkpt lat="44.62404" lon="-0.0864">
        <ele>50.61</ele>
        <time>2020-07-27T13:19:09Z</time>
      </trkpt>
      <trkpt lat="44.62402" lon="-0.08632">
        <ele>52.05</ele>
        <time>2020-07-27T13:19:13Z</time>
      </trkpt>
      <trkpt lat="44.62396" lon="-0.0861">
        <ele>49.65</ele>
        <time>2020-07-27T13:19:27Z</time>
      </trkpt>
      <trkpt lat="44.62389" lon="-0.08583">
        <ele>50.13</ele>
        <time>2020-07-27T13:19:43Z</time>
      </trkpt>
      <trkpt lat="44.62386" lon="-0.08571">
        <ele>48.2</ele>
        <time>2020-07-27T13:19:52Z</time>
      </trkpt>
      <trkpt lat="44.62377" lon="-0.08537">
        <ele>48.2</ele>
        <time>2020-07-27T13:20:12Z</time>
      </trkpt>
      <trkpt lat="44.62377" lon="-0.08534">
        <ele>49.16</ele>
        <time>2020-07-27T13:20:14Z</time>
      </trkpt>
      <trkpt lat="44.62372" lon="-0.08507">
        <ele>47.24</ele>
        <time>2020-07-27T13:20:31Z</time>
      </trkpt>
      <trkpt lat="44.62366" lon="-0.08477">
        <ele>47.24</ele>
        <time>2020-07-27T13:20:49Z</time>
      </trkpt>
      <trkpt lat="44.62365" lon="-0.0847">
        <ele>46.76</ele>
        <time>2020-07-27T13:20:55Z</time>
      </trkpt>
      <trkpt lat="44.62361" lon="-0.08453">
        <ele>46.76</ele>
        <time>2020-07-27T13:21:11Z</time>
      </trkpt>
      <trkpt lat="44.62355" lon="-0.08424">
        <ele>45.8</ele>
        <time>2020-07-27T13:21:29Z</time>
      </trkpt>
      <trkpt lat="44.62352" lon="-0.08398">
        <ele>44.84</ele>
        <time>2020-07-27T13:21:46Z</time>
      </trkpt>
      <trkpt lat="44.62347" lon="-0.08373">
        <ele>43.88</ele>
        <time>2020-07-27T13:22:02Z</time>
      </trkpt>
      <trkpt lat="44.6234" lon="-0.08345">
        <ele>43.4</ele>
        <time>2020-07-27T13:22:18Z</time>
      </trkpt>
      <trkpt lat="44.62335" lon="-0.08317">
        <ele>42.44</ele>
        <time>2020-07-27T13:22:35Z</time>
      </trkpt>
      <trkpt lat="44.62327" lon="-0.08289">
        <ele>41.47</ele>
        <time>2020-07-27T13:22:52Z</time>
      </trkpt>
      <trkpt lat="44.62324" lon="-0.08262">
        <ele>40.99</ele>
        <time>2020-07-27T13:23:09Z</time>
      </trkpt>
      <trkpt lat="44.62319" lon="-0.08239">
        <ele>40.51</ele>
        <time>2020-07-27T13:23:25Z</time>
      </trkpt>
      <trkpt lat="44.62314" lon="-0.08208">
        <ele>40.03</ele>
        <time>2020-07-27T13:23:45Z</time>
      </trkpt>
      <trkpt lat="44.62309" lon="-0.08181">
        <ele>39.07</ele>
        <time>2020-07-27T13:24:01Z</time>
      </trkpt>
      <trkpt lat="44.62307" lon="-0.08168">
        <ele>37.63</ele>
        <time>2020-07-27T13:24:10Z</time>
      </trkpt>
      <trkpt lat="44.623" lon="-0.08132">
        <ele>37.15</ele>
        <time>2020-07-27T13:24:32Z</time>
      </trkpt>
      <trkpt lat="44.62292" lon="-0.08103">
        <ele>37.15</ele>
        <time>2020-07-27T13:24:49Z</time>
      </trkpt>
      <trkpt lat="44.62291" lon="-0.08098">
        <ele>35.71</ele>
        <time>2020-07-27T13:24:52Z</time>
      </trkpt>
      <trkpt lat="44.62285" lon="-0.08067">
        <ele>34.74</ele>
        <time>2020-07-27T13:25:11Z</time>
      </trkpt>
      <trkpt lat="44.62279" lon="-0.08041">
        <ele>36.19</ele>
        <time>2020-07-27T13:25:27Z</time>
      </trkpt>
      <trkpt lat="44.62275" lon="-0.0803">
        <ele>33.78</ele>
        <time>2020-07-27T13:25:35Z</time>
      </trkpt>
      <trkpt lat="44.62274" lon="-0.08027">
        <ele>35.23</ele>
        <time>2020-07-27T13:25:37Z</time>
      </trkpt>
      <trkpt lat="44.6226" lon="-0.07996">
        <ele>33.3</ele>
        <time>2020-07-27T13:25:57Z</time>
      </trkpt>
      <trkpt lat="44.62255" lon="-0.07985">
        <ele>33.3</ele>
        <time>2020-07-27T13:26:04Z</time>
      </trkpt>
      <trkpt lat="44.62242" lon="-0.07955">
        <ele>32.82</ele>
        <time>2020-07-27T13:26:24Z</time>
      </trkpt>
      <trkpt lat="44.62234" lon="-0.07941">
        <ele>32.34</ele>
        <time>2020-07-27T13:26:33Z</time>
      </trkpt>
      <trkpt lat="44.62233" lon="-0.07939">
        <ele>33.78</ele>
        <time>2020-07-27T13:26:35Z</time>
      </trkpt>
      <trkpt lat="44.62228" lon="-0.07929">
        <ele>31.86</ele>
        <time>2020-07-27T13:26:41Z</time>
      </trkpt>
      <trkpt lat="44.62227" lon="-0.07926">
        <ele>33.3</ele>
        <time>2020-07-27T13:26:43Z</time>
      </trkpt>
      <trkpt lat="44.62216" lon="-0.07898">
        <ele>31.38</ele>
        <time>2020-07-27T13:27:03Z</time>
      </trkpt>
      <trkpt lat="44.62205" lon="-0.07871">
        <ele>30.9</ele>
        <time>2020-07-27T13:27:19Z</time>
      </trkpt>
      <trkpt lat="44.62201" lon="-0.07864">
        <ele>31.86</ele>
        <time>2020-07-27T13:27:24Z</time>
      </trkpt>
      <trkpt lat="44.62197" lon="-0.07857">
        <ele>30.42</ele>
        <time>2020-07-27T13:27:29Z</time>
      </trkpt>
      <trkpt lat="44.62196" lon="-0.07853">
        <ele>31.38</ele>
        <time>2020-07-27T13:27:31Z</time>
      </trkpt>
      <trkpt lat="44.6219" lon="-0.07837">
        <ele>29.46</ele>
        <time>2020-07-27T13:27:42Z</time>
      </trkpt>
      <trkpt lat="44.62189" lon="-0.07835">
        <ele>30.9</ele>
        <time>2020-07-27T13:27:44Z</time>
      </trkpt>
      <trkpt lat="44.62175" lon="-0.07811">
        <ele>28.98</ele>
        <time>2020-07-27T13:28:00Z</time>
      </trkpt>
      <trkpt lat="44.62174" lon="-0.07809">
        <ele>30.42</ele>
        <time>2020-07-27T13:28:02Z</time>
      </trkpt>
      <trkpt lat="44.6216" lon="-0.0779">
        <ele>29.46</ele>
        <time>2020-07-27T13:28:16Z</time>
      </trkpt>
      <trkpt lat="44.62154" lon="-0.07782">
        <ele>29.94</ele>
        <time>2020-07-27T13:28:22Z</time>
      </trkpt>
      <trkpt lat="44.62144" lon="-0.07768">
        <ele>28.02</ele>
        <time>2020-07-27T13:28:35Z</time>
      </trkpt>
      <trkpt lat="44.6214" lon="-0.07762">
        <ele>29.46</ele>
        <time>2020-07-27T13:28:40Z</time>
      </trkpt>
      <trkpt lat="44.62131" lon="-0.0775">
        <ele>27.53</ele>
        <time>2020-07-27T13:28:49Z</time>
      </trkpt>
      <trkpt lat="44.62115" lon="-0.07726">
        <ele>28.02</ele>
        <time>2020-07-27T13:29:06Z</time>
      </trkpt>
      <trkpt lat="44.62105" lon="-0.07716">
        <ele>26.09</ele>
        <time>2020-07-27T13:29:15Z</time>
      </trkpt>
      <trkpt lat="44.62103" lon="-0.07713">
        <ele>27.53</ele>
        <time>2020-07-27T13:29:17Z</time>
      </trkpt>
      <trkpt lat="44.62091" lon="-0.07699">
        <ele>25.61</ele>
        <time>2020-07-27T13:29:30Z</time>
      </trkpt>
      <trkpt lat="44.6209" lon="-0.07696">
        <ele>27.05</ele>
        <time>2020-07-27T13:29:32Z</time>
      </trkpt>
      <trkpt lat="44.62082" lon="-0.07683">
        <ele>25.13</ele>
        <time>2020-07-27T13:29:43Z</time>
      </trkpt>
      <trkpt lat="44.62069" lon="-0.07669">
        <ele>24.65</ele>
        <time>2020-07-27T13:29:54Z</time>
      </trkpt>
      <trkpt lat="44.62055" lon="-0.07644">
        <ele>23.69</ele>
        <time>2020-07-27T13:30:12Z</time>
      </trkpt>
      <trkpt lat="44.62054" lon="-0.07639">
        <ele>22.73</ele>
        <time>2020-07-27T13:30:16Z</time>
      </trkpt>
      <trkpt lat="44.62053" lon="-0.07637">
        <ele>22.73</ele>
        <time>2020-07-27T13:30:18Z</time>
      </trkpt>
      <trkpt lat="44.62051" lon="-0.07635">
        <ele>22.73</ele>
        <time>2020-07-27T13:30:33Z</time>
      </trkpt>
      <trkpt lat="44.62052" lon="-0.07635">
        <ele>22.73</ele>
        <time>2020-07-27T13:30:59Z</time>
      </trkpt>
      <trkpt lat="44.62055" lon="-0.07633">
        <ele>22.73</ele>
        <time>2020-07-27T13:31:21Z</time>
      </trkpt>
      <trkpt lat="44.62051" lon="-0.07632">
        <ele>22.73</ele>
        <time>2020-07-27T13:31:35Z</time>
      </trkpt>
      <trkpt lat="44.6204" lon="-0.07626">
        <ele>22.25</ele>
        <time>2020-07-27T13:31:51Z</time>
      </trkpt>
      <trkpt lat="44.62039" lon="-0.07625">
        <ele>22.73</ele>
        <time>2020-07-27T13:32:03Z</time>
      </trkpt>
      <trkpt lat="44.62046" lon="-0.07635">
        <ele>22.73</ele>
        <time>2020-07-27T13:32:24Z</time>
      </trkpt>
      <trkpt lat="44.62044" lon="-0.07637">
        <ele>22.73</ele>
        <time>2020-07-27T13:32:50Z</time>
      </trkpt>
      <trkpt lat="44.62049" lon="-0.07635">
        <ele>22.73</ele>
        <time>2020-07-27T13:33:16Z</time>
      </trkpt>
      <trkpt lat="44.62051" lon="-0.07636">
        <ele>22.73</ele>
        <time>2020-07-27T13:33:46Z</time>
      </trkpt>
      <trkpt lat="44.62049" lon="-0.07632">
        <ele>22.25</ele>
        <time>2020-07-27T13:34:26Z</time>
      </trkpt>
      <trkpt lat="44.6205" lon="-0.07637">
        <ele>22.73</ele>
        <time>2020-07-27T13:35:06Z</time>
      </trkpt>
      <trkpt lat="44.62051" lon="-0.07634">
        <ele>22.73</ele>
        <time>2020-07-27T13:35:37Z</time>
      </trkpt>
      <trkpt lat="44.62047" lon="-0.07635">
        <ele>22.73</ele>
        <time>2020-07-27T13:36:11Z</time>
      </trkpt>
      <trkpt lat="44.62049" lon="-0.07637">
        <ele>22.73</ele>
        <time>2020-07-27T13:36:38Z</time>
      </trkpt>
      <trkpt lat="44.62049" lon="-0.07635">
        <ele>22.73</ele>
        <time>2020-07-27T13:37:15Z</time>
      </trkpt>
      <trkpt lat="44.62047" lon="-0.07634">
        <ele>22.73</ele>
        <time>2020-07-27T13:37:41Z</time>
      </trkpt>
      <trkpt lat="44.62049" lon="-0.07635">
        <ele>23.21</ele>
        <time>2020-07-27T13:38:02Z</time>
      </trkpt>
      <trkpt lat="44.6205" lon="-0.07634">
        <ele>23.21</ele>
        <time>2020-07-27T13:38:23Z</time>
      </trkpt>
      <trkpt lat="44.62049" lon="-0.07634">
        <ele>23.21</ele>
        <time>2020-07-27T13:38:54Z</time>
      </trkpt>
      <trkpt lat="44.62049" lon="-0.07634">
        <ele>23.21</ele>
        <time>2020-07-27T13:39:17Z</time>
      </trkpt>
      <trkpt lat="44.62047" lon="-0.07634">
        <ele>22.73</ele>
        <time>2020-07-27T13:39:38Z</time>
      </trkpt>
      <trkpt lat="44.62047" lon="-0.07629">
        <ele>21.77</ele>
        <time>2020-07-27T13:40:03Z</time>
      </trkpt>
      <trkpt lat="44.62042" lon="-0.07624">
        <ele>21.77</ele>
        <time>2020-07-27T13:40:10Z</time>
      </trkpt>
      <trkpt lat="44.6203" lon="-0.0761">
        <ele>20.32</ele>
        <time>2020-07-27T13:40:28Z</time>
      </trkpt>
      <trkpt lat="44.62021" lon="-0.07598">
        <ele>18.88</ele>
        <time>2020-07-27T13:40:41Z</time>
      </trkpt>
      <trkpt lat="44.62009" lon="-0.07574">
        <ele>17.92</ele>
        <time>2020-07-27T13:40:59Z</time>
      </trkpt>
      <trkpt lat="44.61992" lon="-0.07548">
        <ele>16.48</ele>
        <time>2020-07-27T13:41:19Z</time>
      </trkpt>
      <trkpt lat="44.61982" lon="-0.07524">
        <ele>16.48</ele>
        <time>2020-07-27T13:41:36Z</time>
      </trkpt>
      <trkpt lat="44.61981" lon="-0.07523">
        <ele>16.48</ele>
        <time>2020-07-27T13:41:37Z</time>
      </trkpt>
      <trkpt lat="44.61965" lon="-0.07499">
        <ele>16.48</ele>
        <time>2020-07-27T13:41:56Z</time>
      </trkpt>
      <trkpt lat="44.61954" lon="-0.07475">
        <ele>16.48</ele>
        <time>2020-07-27T13:42:15Z</time>
      </trkpt>
      <trkpt lat="44.61938" lon="-0.07453">
        <ele>16.48</ele>
        <time>2020-07-27T13:42:35Z</time>
      </trkpt>
      <trkpt lat="44.61926" lon="-0.0744">
        <ele>17.92</ele>
        <time>2020-07-27T13:42:46Z</time>
      </trkpt>
      <trkpt lat="44.6191" lon="-0.07419">
        <ele>18.4</ele>
        <time>2020-07-27T13:43:08Z</time>
      </trkpt>
      <trkpt lat="44.61898" lon="-0.07406">
        <ele>19.36</ele>
        <time>2020-07-27T13:43:25Z</time>
      </trkpt>
      <trkpt lat="44.61886" lon="-0.07392">
        <ele>19.36</ele>
        <time>2020-07-27T13:43:41Z</time>
      </trkpt>
      <trkpt lat="44.61872" lon="-0.07375">
        <ele>18.88</ele>
        <time>2020-07-27T13:43:58Z</time>
      </trkpt>
      <trkpt lat="44.61866" lon="-0.07369">
        <ele>17.44</ele>
        <time>2020-07-27T13:44:04Z</time>
      </trkpt>
      <trkpt lat="44.61851" lon="-0.07353">
        <ele>17.44</ele>
        <time>2020-07-27T13:44:22Z</time>
      </trkpt>
      <trkpt lat="44.61842" lon="-0.0735">
        <ele>17.92</ele>
        <time>2020-07-27T13:44:30Z</time>
      </trkpt>
      <trkpt lat="44.61818" lon="-0.07342">
        <ele>18.4</ele>
        <time>2020-07-27T13:44:47Z</time>
      </trkpt>
      <trkpt lat="44.61809" lon="-0.0734">
        <ele>16.48</ele>
        <time>2020-07-27T13:44:53Z</time>
      </trkpt>
      <trkpt lat="44.61797" lon="-0.07335">
        <ele>17.44</ele>
        <time>2020-07-27T13:45:03Z</time>
      </trkpt>
      <trkpt lat="44.61785" lon="-0.07327">
        <ele>16</ele>
        <time>2020-07-27T13:45:13Z</time>
      </trkpt>
      <trkpt lat="44.61783" lon="-0.07325">
        <ele>17.92</ele>
        <time>2020-07-27T13:45:15Z</time>
      </trkpt>
      <trkpt lat="44.61763" lon="-0.07303">
        <ele>19.36</ele>
        <time>2020-07-27T13:45:36Z</time>
      </trkpt>
      <trkpt lat="44.61746" lon="-0.07285">
        <ele>19.84</ele>
        <time>2020-07-27T13:45:54Z</time>
      </trkpt>
      <trkpt lat="44.6173" lon="-0.07267">
        <ele>21.29</ele>
        <time>2020-07-27T13:46:13Z</time>
      </trkpt>
      <trkpt lat="44.61714" lon="-0.0725">
        <ele>22.73</ele>
        <time>2020-07-27T13:46:32Z</time>
      </trkpt>
      <trkpt lat="44.61699" lon="-0.07231">
        <ele>24.65</ele>
        <time>2020-07-27T13:46:51Z</time>
      </trkpt>
      <trkpt lat="44.61691" lon="-0.07215">
        <ele>25.61</ele>
        <time>2020-07-27T13:47:08Z</time>
      </trkpt>
      <trkpt lat="44.61671" lon="-0.07197">
        <ele>27.05</ele>
        <time>2020-07-27T13:47:27Z</time>
      </trkpt>
      <trkpt lat="44.61655" lon="-0.07178">
        <ele>28.5</ele>
        <time>2020-07-27T13:47:45Z</time>
      </trkpt>
      <trkpt lat="44.61639" lon="-0.0716">
        <ele>30.42</ele>
        <time>2020-07-27T13:48:03Z</time>
      </trkpt>
      <trkpt lat="44.61636" lon="-0.07156">
        <ele>30.9</ele>
        <time>2020-07-27T13:48:07Z</time>
      </trkpt>
      <trkpt lat="44.61619" lon="-0.07138">
        <ele>32.82</ele>
        <time>2020-07-27T13:48:26Z</time>
      </trkpt>
      <trkpt lat="44.61604" lon="-0.07117">
        <ele>33.78</ele>
        <time>2020-07-27T13:48:45Z</time>
      </trkpt>
      <trkpt lat="44.61594" lon="-0.07103">
        <ele>34.74</ele>
        <time>2020-07-27T13:48:59Z</time>
      </trkpt>
      <trkpt lat="44.61584" lon="-0.07089">
        <ele>35.71</ele>
        <time>2020-07-27T13:49:19Z</time>
      </trkpt>
      <trkpt lat="44.61566" lon="-0.07062">
        <ele>37.15</ele>
        <time>2020-07-27T13:49:39Z</time>
      </trkpt>
      <trkpt lat="44.61556" lon="-0.0705">
        <ele>38.11</ele>
        <time>2020-07-27T13:49:51Z</time>
      </trkpt>
      <trkpt lat="44.61547" lon="-0.0704">
        <ele>38.59</ele>
        <time>2020-07-27T13:50:01Z</time>
      </trkpt>
      <trkpt lat="44.61533" lon="-0.07018">
        <ele>40.99</ele>
        <time>2020-07-27T13:50:21Z</time>
      </trkpt>
      <trkpt lat="44.61521" lon="-0.06994">
        <ele>41.47</ele>
        <time>2020-07-27T13:50:38Z</time>
      </trkpt>
      <trkpt lat="44.61505" lon="-0.06974">
        <ele>43.4</ele>
        <time>2020-07-27T13:50:57Z</time>
      </trkpt>
      <trkpt lat="44.61506" lon="-0.06971">
        <ele>43.4</ele>
        <time>2020-07-27T13:51:23Z</time>
      </trkpt>
      <trkpt lat="44.61499" lon="-0.06959">
        <ele>43.88</ele>
        <time>2020-07-27T13:51:42Z</time>
      </trkpt>
      <trkpt lat="44.61484" lon="-0.06938">
        <ele>44.84</ele>
        <time>2020-07-27T13:52:00Z</time>
      </trkpt>
      <trkpt lat="44.61468" lon="-0.06913">
        <ele>46.28</ele>
        <time>2020-07-27T13:52:20Z</time>
      </trkpt>
      <trkpt lat="44.61457" lon="-0.06897">
        <ele>47.24</ele>
        <time>2020-07-27T13:52:33Z</time>
      </trkpt>
      <trkpt lat="44.61444" lon="-0.06872">
        <ele>48.2</ele>
        <time>2020-07-27T13:52:50Z</time>
      </trkpt>
      <trkpt lat="44.61428" lon="-0.06845">
        <ele>49.65</ele>
        <time>2020-07-27T13:53:10Z</time>
      </trkpt>
      <trkpt lat="44.61416" lon="-0.06828">
        <ele>49.65</ele>
        <time>2020-07-27T13:53:25Z</time>
      </trkpt>
      <trkpt lat="44.61414" lon="-0.06825">
        <ele>50.61</ele>
        <time>2020-07-27T13:53:27Z</time>
      </trkpt>
      <trkpt lat="44.61406" lon="-0.06812">
        <ele>52.05</ele>
        <time>2020-07-27T13:53:36Z</time>
      </trkpt>
      <trkpt lat="44.6139" lon="-0.06786">
        <ele>53.49</ele>
        <time>2020-07-27T13:53:56Z</time>
      </trkpt>
      <trkpt lat="44.61374" lon="-0.06758">
        <ele>54.93</ele>
        <time>2020-07-27T13:54:17Z</time>
      </trkpt>
      <trkpt lat="44.61357" lon="-0.06732">
        <ele>56.86</ele>
        <time>2020-07-27T13:54:37Z</time>
      </trkpt>
      <trkpt lat="44.61351" lon="-0.06721">
        <ele>55.41</ele>
        <time>2020-07-27T13:54:46Z</time>
      </trkpt>
      <trkpt lat="44.61348" lon="-0.06719">
        <ele>56.86</ele>
        <time>2020-07-27T13:54:48Z</time>
      </trkpt>
      <trkpt lat="44.61333" lon="-0.06698">
        <ele>58.78</ele>
        <time>2020-07-27T13:55:06Z</time>
      </trkpt>
      <trkpt lat="44.61316" lon="-0.06676">
        <ele>59.26</ele>
        <time>2020-07-27T13:55:25Z</time>
      </trkpt>
      <trkpt lat="44.61301" lon="-0.06656">
        <ele>59.74</ele>
        <time>2020-07-27T13:55:42Z</time>
      </trkpt>
      <trkpt lat="44.61299" lon="-0.06653">
        <ele>60.22</ele>
        <time>2020-07-27T13:56:02Z</time>
      </trkpt>
      <trkpt lat="44.61287" lon="-0.06644">
        <ele>60.7</ele>
        <time>2020-07-27T13:56:26Z</time>
      </trkpt>
      <trkpt lat="44.61268" lon="-0.06621">
        <ele>61.66</ele>
        <time>2020-07-27T13:56:44Z</time>
      </trkpt>
      <trkpt lat="44.61267" lon="-0.0662">
        <ele>61.66</ele>
        <time>2020-07-27T13:56:45Z</time>
      </trkpt>
      <trkpt lat="44.61262" lon="-0.06613">
        <ele>60.22</ele>
        <time>2020-07-27T13:56:51Z</time>
      </trkpt>
      <trkpt lat="44.6126" lon="-0.0661">
        <ele>61.66</ele>
        <time>2020-07-27T13:56:54Z</time>
      </trkpt>
      <trkpt lat="44.61244" lon="-0.06592">
        <ele>61.66</ele>
        <time>2020-07-27T13:57:10Z</time>
      </trkpt>
      <trkpt lat="44.61237" lon="-0.06583">
        <ele>60.22</ele>
        <time>2020-07-27T13:57:18Z</time>
      </trkpt>
      <trkpt lat="44.61222" lon="-0.06561">
        <ele>62.14</ele>
        <time>2020-07-27T13:57:38Z</time>
      </trkpt>
      <trkpt lat="44.61202" lon="-0.06539">
        <ele>60.7</ele>
        <time>2020-07-27T13:57:55Z</time>
      </trkpt>
      <trkpt lat="44.6119" lon="-0.06528">
        <ele>62.62</ele>
        <time>2020-07-27T13:58:06Z</time>
      </trkpt>
      <trkpt lat="44.61175" lon="-0.06512">
        <ele>61.18</ele>
        <time>2020-07-27T13:58:19Z</time>
      </trkpt>
      <trkpt lat="44.61156" lon="-0.06485">
        <ele>61.18</ele>
        <time>2020-07-27T13:58:41Z</time>
      </trkpt>
      <trkpt lat="44.61146" lon="-0.06474">
        <ele>61.18</ele>
        <time>2020-07-27T13:58:54Z</time>
      </trkpt>
      <trkpt lat="44.61145" lon="-0.06472">
        <ele>62.62</ele>
        <time>2020-07-27T13:58:56Z</time>
      </trkpt>
      <trkpt lat="44.61138" lon="-0.06463">
        <ele>62.62</ele>
        <time>2020-07-27T13:59:04Z</time>
      </trkpt>
      <trkpt lat="44.61137" lon="-0.06453">
        <ele>62.62</ele>
        <time>2020-07-27T13:59:08Z</time>
      </trkpt>
      <trkpt lat="44.61142" lon="-0.06453">
        <ele>63.1</ele>
        <time>2020-07-27T13:59:21Z</time>
      </trkpt>
      <trkpt lat="44.6114" lon="-0.06449">
        <ele>63.1</ele>
        <time>2020-07-27T13:59:51Z</time>
      </trkpt>
      <trkpt lat="44.61133" lon="-0.06447">
        <ele>61.66</ele>
        <time>2020-07-27T14:00:03Z</time>
      </trkpt>
      <trkpt lat="44.61125" lon="-0.0645">
        <ele>62.14</ele>
        <time>2020-07-27T14:00:19Z</time>
      </trkpt>
      <trkpt lat="44.61126" lon="-0.06444">
        <ele>62.14</ele>
        <time>2020-07-27T14:00:46Z</time>
      </trkpt>
      <trkpt lat="44.61122" lon="-0.06445">
        <ele>62.14</ele>
        <time>2020-07-27T14:01:17Z</time>
      </trkpt>
      <trkpt lat="44.61123" lon="-0.06446">
        <ele>62.14</ele>
        <time>2020-07-27T14:01:24Z</time>
      </trkpt>
      <trkpt lat="44.61142" lon="-0.06439">
        <ele>61.66</ele>
        <time>2020-07-27T14:01:41Z</time>
      </trkpt>
      <trkpt lat="44.61144" lon="-0.06436">
        <ele>61.66</ele>
        <time>2020-07-27T14:01:59Z</time>
      </trkpt>
      <trkpt lat="44.61139" lon="-0.06435">
        <ele>61.66</ele>
        <time>2020-07-27T14:02:25Z</time>
      </trkpt>
      <trkpt lat="44.61131" lon="-0.0644">
        <ele>61.66</ele>
        <time>2020-07-27T14:02:41Z</time>
      </trkpt>
      <trkpt lat="44.61131" lon="-0.06454">
        <ele>61.66</ele>
        <time>2020-07-27T14:02:50Z</time>
      </trkpt>
      <trkpt lat="44.61132" lon="-0.06462">
        <ele>60.7</ele>
        <time>2020-07-27T14:02:54Z</time>
      </trkpt>
      <trkpt lat="44.61134" lon="-0.06468">
        <ele>62.14</ele>
        <time>2020-07-27T14:02:59Z</time>
      </trkpt>
      <trkpt lat="44.61142" lon="-0.06486">
        <ele>61.66</ele>
        <time>2020-07-27T14:03:15Z</time>
      </trkpt>
      <trkpt lat="44.61141" lon="-0.06489">
        <ele>61.66</ele>
        <time>2020-07-27T14:03:17Z</time>
      </trkpt>
      <trkpt lat="44.61139" lon="-0.06492">
        <ele>59.74</ele>
        <time>2020-07-27T14:03:19Z</time>
      </trkpt>
      <trkpt lat="44.61127" lon="-0.06507">
        <ele>58.78</ele>
        <time>2020-07-27T14:03:33Z</time>
      </trkpt>
      <trkpt lat="44.61125" lon="-0.06509">
        <ele>60.22</ele>
        <time>2020-07-27T14:03:35Z</time>
      </trkpt>
      <trkpt lat="44.61115" lon="-0.06519">
        <ele>58.3</ele>
        <time>2020-07-27T14:03:45Z</time>
      </trkpt>
      <trkpt lat="44.61114" lon="-0.0652">
        <ele>59.74</ele>
        <time>2020-07-27T14:03:47Z</time>
      </trkpt>
      <trkpt lat="44.6111" lon="-0.06524">
        <ele>58.3</ele>
        <time>2020-07-27T14:03:51Z</time>
      </trkpt>
      <trkpt lat="44.61101" lon="-0.06532">
        <ele>58.3</ele>
        <time>2020-07-27T14:04:00Z</time>
      </trkpt>
      <trkpt lat="44.61099" lon="-0.06535">
        <ele>59.26</ele>
        <time>2020-07-27T14:04:02Z</time>
      </trkpt>
      <trkpt lat="44.61079" lon="-0.06553">
        <ele>59.74</ele>
        <time>2020-07-27T14:04:20Z</time>
      </trkpt>
      <trkpt lat="44.61061" lon="-0.06573">
        <ele>60.22</ele>
        <time>2020-07-27T14:04:39Z</time>
      </trkpt>
      <trkpt lat="44.6105" lon="-0.06582">
        <ele>58.78</ele>
        <time>2020-07-27T14:04:48Z</time>
      </trkpt>
      <trkpt lat="44.61047" lon="-0.06584">
        <ele>61.18</ele>
        <time>2020-07-27T14:04:51Z</time>
      </trkpt>
      <trkpt lat="44.61027" lon="-0.06606">
        <ele>61.18</ele>
        <time>2020-07-27T14:05:12Z</time>
      </trkpt>
      <trkpt lat="44.6102" lon="-0.06616">
        <ele>63.1</ele>
        <time>2020-07-27T14:05:21Z</time>
      </trkpt>
      <trkpt lat="44.61016" lon="-0.06626">
        <ele>63.1</ele>
        <time>2020-07-27T14:05:29Z</time>
      </trkpt>
      <trkpt lat="44.61006" lon="-0.06646">
        <ele>62.62</ele>
        <time>2020-07-27T14:05:45Z</time>
      </trkpt>
      <trkpt lat="44.61005" lon="-0.06649">
        <ele>64.07</ele>
        <time>2020-07-27T14:05:47Z</time>
      </trkpt>
      <trkpt lat="44.61003" lon="-0.06658">
        <ele>64.07</ele>
        <time>2020-07-27T14:05:51Z</time>
      </trkpt>
      <trkpt lat="44.61002" lon="-0.06672">
        <ele>62.62</ele>
        <time>2020-07-27T14:05:58Z</time>
      </trkpt>
      <trkpt lat="44.61003" lon="-0.06676">
        <ele>64.07</ele>
        <time>2020-07-27T14:06:00Z</time>
      </trkpt>
      <trkpt lat="44.61005" lon="-0.06684">
        <ele>62.62</ele>
        <time>2020-07-27T14:06:05Z</time>
      </trkpt>
      <trkpt lat="44.61007" lon="-0.06701">
        <ele>62.14</ele>
        <time>2020-07-27T14:06:15Z</time>
      </trkpt>
      <trkpt lat="44.61015" lon="-0.06733">
        <ele>64.55</ele>
        <time>2020-07-27T14:06:33Z</time>
      </trkpt>
      <trkpt lat="44.61017" lon="-0.06751">
        <ele>63.1</ele>
        <time>2020-07-27T14:06:44Z</time>
      </trkpt>
      <trkpt lat="44.61022" lon="-0.06769">
        <ele>63.1</ele>
        <time>2020-07-27T14:06:56Z</time>
      </trkpt>
      <trkpt lat="44.61026" lon="-0.06785">
        <ele>63.1</ele>
        <time>2020-07-27T14:07:06Z</time>
      </trkpt>
      <trkpt lat="44.61022" lon="-0.06793">
        <ele>63.1</ele>
        <time>2020-07-27T14:07:11Z</time>
      </trkpt>
      <trkpt lat="44.6102" lon="-0.06794">
        <ele>64.07</ele>
        <time>2020-07-27T14:07:13Z</time>
      </trkpt>
      <trkpt lat="44.61004" lon="-0.06805">
        <ele>63.1</ele>
        <time>2020-07-27T14:07:28Z</time>
      </trkpt>
      <trkpt lat="44.60996" lon="-0.06806">
        <ele>64.07</ele>
        <time>2020-07-27T14:07:34Z</time>
      </trkpt>
      <trkpt lat="44.60984" lon="-0.06807">
        <ele>62.62</ele>
        <time>2020-07-27T14:07:43Z</time>
      </trkpt>
      <trkpt lat="44.60981" lon="-0.06807">
        <ele>64.07</ele>
        <time>2020-07-27T14:07:46Z</time>
      </trkpt>
      <trkpt lat="44.60972" lon="-0.06812">
        <ele>64.07</ele>
        <time>2020-07-27T14:08:03Z</time>
      </trkpt>
      <trkpt lat="44.60972" lon="-0.06813">
        <ele>64.07</ele>
        <time>2020-07-27T14:08:24Z</time>
      </trkpt>
      <trkpt lat="44.60975" lon="-0.06805">
        <ele>64.07</ele>
        <time>2020-07-27T14:08:46Z</time>
      </trkpt>
      <trkpt lat="44.60973" lon="-0.06808">
        <ele>64.07</ele>
        <time>2020-07-27T14:09:15Z</time>
      </trkpt>
      <trkpt lat="44.60971" lon="-0.06815">
        <ele>64.07</ele>
        <time>2020-07-27T14:09:32Z</time>
      </trkpt>
      <trkpt lat="44.60972" lon="-0.06809">
        <ele>64.07</ele>
        <time>2020-07-27T14:09:52Z</time>
      </trkpt>
      <trkpt lat="44.60976" lon="-0.06812">
        <ele>64.07</ele>
        <time>2020-07-27T14:10:13Z</time>
      </trkpt>
      <trkpt lat="44.60976" lon="-0.0681">
        <ele>64.55</ele>
        <time>2020-07-27T14:10:35Z</time>
      </trkpt>
      <trkpt lat="44.60977" lon="-0.06813">
        <ele>64.55</ele>
        <time>2020-07-27T14:10:59Z</time>
      </trkpt>
      <trkpt lat="44.60977" lon="-0.06813">
        <ele>64.55</ele>
        <time>2020-07-27T14:11:27Z</time>
      </trkpt>
      <trkpt lat="44.60979" lon="-0.06816">
        <ele>64.07</ele>
        <time>2020-07-27T14:11:56Z</time>
      </trkpt>
      <trkpt lat="44.60977" lon="-0.06812">
        <ele>64.07</ele>
        <time>2020-07-27T14:12:23Z</time>
      </trkpt>
      <trkpt lat="44.60977" lon="-0.06805">
        <ele>64.07</ele>
        <time>2020-07-27T14:12:53Z</time>
      </trkpt>
      <trkpt lat="44.60981" lon="-0.06796">
        <ele>64.07</ele>
        <time>2020-07-27T14:13:20Z</time>
      </trkpt>
      <trkpt lat="44.60978" lon="-0.06798">
        <ele>63.58</ele>
        <time>2020-07-27T14:13:47Z</time>
      </trkpt>
      <trkpt lat="44.60975" lon="-0.06809">
        <ele>63.58</ele>
        <time>2020-07-27T14:14:18Z</time>
      </trkpt>
      <trkpt lat="44.60972" lon="-0.06813">
        <ele>63.58</ele>
        <time>2020-07-27T14:14:33Z</time>
      </trkpt>
      <trkpt lat="44.6097" lon="-0.06811">
        <ele>63.58</ele>
        <time>2020-07-27T14:14:46Z</time>
      </trkpt>
      <trkpt lat="44.60974" lon="-0.0681">
        <ele>63.58</ele>
        <time>2020-07-27T14:14:58Z</time>
      </trkpt>
      <trkpt lat="44.60973" lon="-0.0681">
        <ele>63.58</ele>
        <time>2020-07-27T14:15:20Z</time>
      </trkpt>
      <trkpt lat="44.60973" lon="-0.06808">
        <ele>63.58</ele>
        <time>2020-07-27T14:15:48Z</time>
      </trkpt>
      <trkpt lat="44.6097" lon="-0.06812">
        <ele>64.07</ele>
        <time>2020-07-27T14:16:05Z</time>
      </trkpt>
      <trkpt lat="44.60974" lon="-0.06813">
        <ele>64.07</ele>
        <time>2020-07-27T14:16:21Z</time>
      </trkpt>
      <trkpt lat="44.60974" lon="-0.06803">
        <ele>64.07</ele>
        <time>2020-07-27T14:16:44Z</time>
      </trkpt>
      <trkpt lat="44.60976" lon="-0.06798">
        <ele>64.07</ele>
        <time>2020-07-27T14:17:08Z</time>
      </trkpt>
      <trkpt lat="44.60977" lon="-0.06805">
        <ele>63.58</ele>
        <time>2020-07-27T14:17:31Z</time>
      </trkpt>
      <trkpt lat="44.60974" lon="-0.0681">
        <ele>64.07</ele>
        <time>2020-07-27T14:17:58Z</time>
      </trkpt>
      <trkpt lat="44.60977" lon="-0.06807">
        <ele>64.07</ele>
        <time>2020-07-27T14:18:26Z</time>
      </trkpt>
      <trkpt lat="44.60975" lon="-0.06814">
        <ele>62.62</ele>
        <time>2020-07-27T14:18:45Z</time>
      </trkpt>
      <trkpt lat="44.60971" lon="-0.06811">
        <ele>63.58</ele>
        <time>2020-07-27T14:18:59Z</time>
      </trkpt>
      <trkpt lat="44.60973" lon="-0.06815">
        <ele>63.58</ele>
        <time>2020-07-27T14:19:18Z</time>
      </trkpt>
      <trkpt lat="44.60976" lon="-0.06811">
        <ele>63.58</ele>
        <time>2020-07-27T14:19:29Z</time>
      </trkpt>
      <trkpt lat="44.60975" lon="-0.06806">
        <ele>64.55</ele>
        <time>2020-07-27T14:19:51Z</time>
      </trkpt>
      <trkpt lat="44.60977" lon="-0.06804">
        <ele>64.55</ele>
        <time>2020-07-27T14:20:14Z</time>
      </trkpt>
      <trkpt lat="44.60975" lon="-0.06806">
        <ele>64.55</ele>
        <time>2020-07-27T14:20:39Z</time>
      </trkpt>
      <trkpt lat="44.60974" lon="-0.06809">
        <ele>64.55</ele>
        <time>2020-07-27T14:21:04Z</time>
      </trkpt>
      <trkpt lat="44.60975" lon="-0.06813">
        <ele>64.55</ele>
        <time>2020-07-27T14:21:22Z</time>
      </trkpt>
      <trkpt lat="44.60969" lon="-0.06813">
        <ele>63.1</ele>
        <time>2020-07-27T14:21:36Z</time>
      </trkpt>
      <trkpt lat="44.60967" lon="-0.06815">
        <ele>63.1</ele>
        <time>2020-07-27T14:21:42Z</time>
      </trkpt>
      <trkpt lat="44.60981" lon="-0.06817">
        <ele>63.1</ele>
        <time>2020-07-27T14:21:54Z</time>
      </trkpt>
      <trkpt lat="44.60979" lon="-0.06821">
        <ele>63.1</ele>
        <time>2020-07-27T14:21:58Z</time>
      </trkpt>
      <trkpt lat="44.60962" lon="-0.06838">
        <ele>61.18</ele>
        <time>2020-07-27T14:22:14Z</time>
      </trkpt>
      <trkpt lat="44.60938" lon="-0.06832">
        <ele>59.74</ele>
        <time>2020-07-27T14:22:33Z</time>
      </trkpt>
      <trkpt lat="44.60921" lon="-0.06812">
        <ele>60.22</ele>
        <time>2020-07-27T14:22:52Z</time>
      </trkpt>
      <trkpt lat="44.6092" lon="-0.0681">
        <ele>60.22</ele>
        <time>2020-07-27T14:22:53Z</time>
      </trkpt>
      <trkpt lat="44.60913" lon="-0.06799">
        <ele>58.78</ele>
        <time>2020-07-27T14:23:00Z</time>
      </trkpt>
      <trkpt lat="44.60912" lon="-0.06796">
        <ele>60.22</ele>
        <time>2020-07-27T14:23:02Z</time>
      </trkpt>
      <trkpt lat="44.60904" lon="-0.06781">
        <ele>60.7</ele>
        <time>2020-07-27T14:23:12Z</time>
      </trkpt>
      <trkpt lat="44.60894" lon="-0.06756">
        <ele>60.22</ele>
        <time>2020-07-27T14:23:28Z</time>
      </trkpt>
      <trkpt lat="44.60892" lon="-0.0675">
        <ele>61.66</ele>
        <time>2020-07-27T14:23:32Z</time>
      </trkpt>
      <trkpt lat="44.60875" lon="-0.06721">
        <ele>62.62</ele>
        <time>2020-07-27T14:23:52Z</time>
      </trkpt>
      <trkpt lat="44.6087" lon="-0.06716">
        <ele>62.14</ele>
        <time>2020-07-27T14:24:08Z</time>
      </trkpt>
      <trkpt lat="44.60868" lon="-0.06709">
        <ele>61.66</ele>
        <time>2020-07-27T14:24:12Z</time>
      </trkpt>
      <trkpt lat="44.60856" lon="-0.0668">
        <ele>62.62</ele>
        <time>2020-07-27T14:24:29Z</time>
      </trkpt>
      <trkpt lat="44.60839" lon="-0.06658">
        <ele>63.1</ele>
        <time>2020-07-27T14:24:46Z</time>
      </trkpt>
      <trkpt lat="44.60827" lon="-0.06641">
        <ele>63.1</ele>
        <time>2020-07-27T14:24:59Z</time>
      </trkpt>
      <trkpt lat="44.60809" lon="-0.06613">
        <ele>63.58</ele>
        <time>2020-07-27T14:25:21Z</time>
      </trkpt>
      <trkpt lat="44.60794" lon="-0.06591">
        <ele>64.07</ele>
        <time>2020-07-27T14:25:39Z</time>
      </trkpt>
      <trkpt lat="44.60781" lon="-0.06573">
        <ele>62.62</ele>
        <time>2020-07-27T14:25:51Z</time>
      </trkpt>
      <trkpt lat="44.60777" lon="-0.06569">
        <ele>65.03</ele>
        <time>2020-07-27T14:25:54Z</time>
      </trkpt>
      <trkpt lat="44.60758" lon="-0.06541">
        <ele>65.03</ele>
        <time>2020-07-27T14:26:14Z</time>
      </trkpt>
      <trkpt lat="44.60734" lon="-0.0653">
        <ele>65.51</ele>
        <time>2020-07-27T14:26:35Z</time>
      </trkpt>
      <trkpt lat="44.60728" lon="-0.06529">
        <ele>64.55</ele>
        <time>2020-07-27T14:26:40Z</time>
      </trkpt>
      <trkpt lat="44.60726" lon="-0.0653">
        <ele>65.51</ele>
        <time>2020-07-27T14:26:42Z</time>
      </trkpt>
      <trkpt lat="44.60699" lon="-0.06537">
        <ele>65.51</ele>
        <time>2020-07-27T14:27:02Z</time>
      </trkpt>
      <trkpt lat="44.60691" lon="-0.06535">
        <ele>64.07</ele>
        <time>2020-07-27T14:27:09Z</time>
      </trkpt>
      <trkpt lat="44.60684" lon="-0.06532">
        <ele>64.55</ele>
        <time>2020-07-27T14:27:15Z</time>
      </trkpt>
      <trkpt lat="44.60662" lon="-0.06521">
        <ele>64.55</ele>
        <time>2020-07-27T14:27:32Z</time>
      </trkpt>
      <trkpt lat="44.60657" lon="-0.06518">
        <ele>65.99</ele>
        <time>2020-07-27T14:27:35Z</time>
      </trkpt>
      <trkpt lat="44.60649" lon="-0.06513">
        <ele>65.99</ele>
        <time>2020-07-27T14:27:41Z</time>
      </trkpt>
      <trkpt lat="44.60641" lon="-0.06503">
        <ele>66.47</ele>
        <time>2020-07-27T14:27:49Z</time>
      </trkpt>
      <trkpt lat="44.60628" lon="-0.06494">
        <ele>65.99</ele>
        <time>2020-07-27T14:28:00Z</time>
      </trkpt>
      <trkpt lat="44.60601" lon="-0.06484">
        <ele>68.39</ele>
        <time>2020-07-27T14:28:21Z</time>
      </trkpt>
      <trkpt lat="44.60576" lon="-0.06476">
        <ele>68.39</ele>
        <time>2020-07-27T14:28:40Z</time>
      </trkpt>
      <trkpt lat="44.60559" lon="-0.06471">
        <ele>67.91</ele>
        <time>2020-07-27T14:28:54Z</time>
      </trkpt>
      <trkpt lat="44.60557" lon="-0.06471">
        <ele>68.87</ele>
        <time>2020-07-27T14:28:56Z</time>
      </trkpt>
      <trkpt lat="44.60539" lon="-0.06466">
        <ele>68.39</ele>
        <time>2020-07-27T14:29:10Z</time>
      </trkpt>
      <trkpt lat="44.60534" lon="-0.06465">
        <ele>69.83</ele>
        <time>2020-07-27T14:29:13Z</time>
      </trkpt>
      <trkpt lat="44.60523" lon="-0.06466">
        <ele>68.87</ele>
        <time>2020-07-27T14:29:21Z</time>
      </trkpt>
      <trkpt lat="44.60504" lon="-0.06463">
        <ele>69.83</ele>
        <time>2020-07-27T14:29:36Z</time>
      </trkpt>
      <trkpt lat="44.60501" lon="-0.06461">
        <ele>71.27</ele>
        <time>2020-07-27T14:29:39Z</time>
      </trkpt>
      <trkpt lat="44.60478" lon="-0.06459">
        <ele>71.76</ele>
        <time>2020-07-27T14:29:57Z</time>
      </trkpt>
      <trkpt lat="44.60457" lon="-0.06457">
        <ele>72.72</ele>
        <time>2020-07-27T14:30:15Z</time>
      </trkpt>
      <trkpt lat="44.60453" lon="-0.06455">
        <ele>74.16</ele>
        <time>2020-07-27T14:30:19Z</time>
      </trkpt>
      <trkpt lat="44.60448" lon="-0.06452">
        <ele>74.64</ele>
        <time>2020-07-27T14:30:22Z</time>
      </trkpt>
      <trkpt lat="44.60436" lon="-0.06446">
        <ele>75.12</ele>
        <time>2020-07-27T14:30:31Z</time>
      </trkpt>
      <trkpt lat="44.60425" lon="-0.06427">
        <ele>76.56</ele>
        <time>2020-07-27T14:30:49Z</time>
      </trkpt>
      <trkpt lat="44.60423" lon="-0.06422">
        <ele>75.6</ele>
        <time>2020-07-27T14:30:52Z</time>
      </trkpt>
      <trkpt lat="44.60413" lon="-0.06404">
        <ele>77.52</ele>
        <time>2020-07-27T14:31:03Z</time>
      </trkpt>
      <trkpt lat="44.6041" lon="-0.06396">
        <ele>76.08</ele>
        <time>2020-07-27T14:31:08Z</time>
      </trkpt>
      <trkpt lat="44.60408" lon="-0.06393">
        <ele>77.52</ele>
        <time>2020-07-27T14:31:11Z</time>
      </trkpt>
      <trkpt lat="44.60396" lon="-0.06363">
        <ele>78.97</ele>
        <time>2020-07-27T14:31:29Z</time>
      </trkpt>
      <trkpt lat="44.60384" lon="-0.06334">
        <ele>78.97</ele>
        <time>2020-07-27T14:31:47Z</time>
      </trkpt>
      <trkpt lat="44.60371" lon="-0.06308">
        <ele>79.93</ele>
        <time>2020-07-27T14:32:05Z</time>
      </trkpt>
      <trkpt lat="44.60356" lon="-0.06281">
        <ele>80.41</ele>
        <time>2020-07-27T14:32:25Z</time>
      </trkpt>
      <trkpt lat="44.6034" lon="-0.06245">
        <ele>78.97</ele>
        <time>2020-07-27T14:32:47Z</time>
      </trkpt>
      <trkpt lat="44.60323" lon="-0.06213">
        <ele>79.93</ele>
        <time>2020-07-27T14:33:07Z</time>
      </trkpt>
      <trkpt lat="44.60322" lon="-0.0621">
        <ele>79.93</ele>
        <time>2020-07-27T14:33:09Z</time>
      </trkpt>
      <trkpt lat="44.60319" lon="-0.06206">
        <ele>79.93</ele>
        <time>2020-07-27T14:33:12Z</time>
      </trkpt>
      <trkpt lat="44.60314" lon="-0.06207">
        <ele>78.97</ele>
        <time>2020-07-27T14:33:16Z</time>
      </trkpt>
      <trkpt lat="44.60311" lon="-0.06211">
        <ele>78.97</ele>
        <time>2020-07-27T14:33:38Z</time>
      </trkpt>
      <trkpt lat="44.60312" lon="-0.0621">
        <ele>78.97</ele>
        <time>2020-07-27T14:34:11Z</time>
      </trkpt>
      <trkpt lat="44.60314" lon="-0.06208">
        <ele>78.97</ele>
        <time>2020-07-27T14:34:27Z</time>
      </trkpt>
      <trkpt lat="44.60314" lon="-0.06199">
        <ele>78.97</ele>
        <time>2020-07-27T14:34:32Z</time>
      </trkpt>
      <trkpt lat="44.60308" lon="-0.06184">
        <ele>78.97</ele>
        <time>2020-07-27T14:34:41Z</time>
      </trkpt>
      <trkpt lat="44.60293" lon="-0.06156">
        <ele>78.48</ele>
        <time>2020-07-27T14:35:01Z</time>
      </trkpt>
      <trkpt lat="44.60291" lon="-0.06152">
        <ele>79.93</ele>
        <time>2020-07-27T14:35:04Z</time>
      </trkpt>
      <trkpt lat="44.60273" lon="-0.0614">
        <ele>78.97</ele>
        <time>2020-07-27T14:35:18Z</time>
      </trkpt>
      <trkpt lat="44.60268" lon="-0.06138">
        <ele>80.41</ele>
        <time>2020-07-27T14:35:21Z</time>
      </trkpt>
      <trkpt lat="44.60248" lon="-0.06127">
        <ele>79.45</ele>
        <time>2020-07-27T14:35:37Z</time>
      </trkpt>
      <trkpt lat="44.60244" lon="-0.06125">
        <ele>79.45</ele>
        <time>2020-07-27T14:35:40Z</time>
      </trkpt>
      <trkpt lat="44.6022" lon="-0.06107">
        <ele>80.89</ele>
        <time>2020-07-27T14:36:01Z</time>
      </trkpt>
      <trkpt lat="44.60219" lon="-0.06106">
        <ele>80.89</ele>
        <time>2020-07-27T14:36:02Z</time>
      </trkpt>
      <trkpt lat="44.60215" lon="-0.06102">
        <ele>78.97</ele>
        <time>2020-07-27T14:36:05Z</time>
      </trkpt>
      <trkpt lat="44.60206" lon="-0.06087">
        <ele>78.97</ele>
        <time>2020-07-27T14:36:16Z</time>
      </trkpt>
      <trkpt lat="44.60204" lon="-0.06077">
        <ele>80.41</ele>
        <time>2020-07-27T14:36:30Z</time>
      </trkpt>
      <trkpt lat="44.60204" lon="-0.06076">
        <ele>80.41</ele>
        <time>2020-07-27T14:36:31Z</time>
      </trkpt>
      <trkpt lat="44.60202" lon="-0.06071">
        <ele>78.97</ele>
        <time>2020-07-27T14:36:34Z</time>
      </trkpt>
      <trkpt lat="44.60191" lon="-0.06049">
        <ele>79.93</ele>
        <time>2020-07-27T14:36:51Z</time>
      </trkpt>
      <trkpt lat="44.60178" lon="-0.06024">
        <ele>79.45</ele>
        <time>2020-07-27T14:37:08Z</time>
      </trkpt>
      <trkpt lat="44.60177" lon="-0.06022">
        <ele>79.45</ele>
        <time>2020-07-27T14:37:09Z</time>
      </trkpt>
      <trkpt lat="44.60166" lon="-0.0599">
        <ele>77.04</ele>
        <time>2020-07-27T14:37:29Z</time>
      </trkpt>
      <trkpt lat="44.60152" lon="-0.05957">
        <ele>78.48</ele>
        <time>2020-07-27T14:37:48Z</time>
      </trkpt>
      <trkpt lat="44.60137" lon="-0.05924">
        <ele>77.52</ele>
        <time>2020-07-27T14:38:07Z</time>
      </trkpt>
      <trkpt lat="44.60136" lon="-0.05913">
        <ele>78.48</ele>
        <time>2020-07-27T14:38:13Z</time>
      </trkpt>
      <trkpt lat="44.60133" lon="-0.05907">
        <ele>77.04</ele>
        <time>2020-07-27T14:38:17Z</time>
      </trkpt>
      <trkpt lat="44.60122" lon="-0.05883">
        <ele>78.48</ele>
        <time>2020-07-27T14:38:34Z</time>
      </trkpt>
      <trkpt lat="44.60119" lon="-0.0587">
        <ele>79.93</ele>
        <time>2020-07-27T14:38:42Z</time>
      </trkpt>
      <trkpt lat="44.60117" lon="-0.05861">
        <ele>79.93</ele>
        <time>2020-07-27T14:38:47Z</time>
      </trkpt>
      <trkpt lat="44.60108" lon="-0.05825">
        <ele>81.85</ele>
        <time>2020-07-27T14:39:06Z</time>
      </trkpt>
      <trkpt lat="44.60099" lon="-0.05796">
        <ele>83.29</ele>
        <time>2020-07-27T14:39:24Z</time>
      </trkpt>
      <trkpt lat="44.60097" lon="-0.05769">
        <ele>85.21</ele>
        <time>2020-07-27T14:39:41Z</time>
      </trkpt>
      <trkpt lat="44.60086" lon="-0.05743">
        <ele>86.18</ele>
        <time>2020-07-27T14:40:01Z</time>
      </trkpt>
      <trkpt lat="44.60082" lon="-0.05714">
        <ele>87.62</ele>
        <time>2020-07-27T14:40:20Z</time>
      </trkpt>
      <trkpt lat="44.60079" lon="-0.05688">
        <ele>88.1</ele>
        <time>2020-07-27T14:40:37Z</time>
      </trkpt>
      <trkpt lat="44.6007" lon="-0.05651">
        <ele>88.1</ele>
        <time>2020-07-27T14:40:57Z</time>
      </trkpt>
      <trkpt lat="44.60066" lon="-0.05626">
        <ele>88.1</ele>
        <time>2020-07-27T14:41:10Z</time>
      </trkpt>
      <trkpt lat="44.60064" lon="-0.05618">
        <ele>86.18</ele>
        <time>2020-07-27T14:41:16Z</time>
      </trkpt>
      <trkpt lat="44.60062" lon="-0.05609">
        <ele>85.69</ele>
        <time>2020-07-27T14:41:32Z</time>
      </trkpt>
      <trkpt lat="44.60061" lon="-0.05601">
        <ele>86.18</ele>
        <time>2020-07-27T14:41:38Z</time>
      </trkpt>
      <trkpt lat="44.60057" lon="-0.05586">
        <ele>84.25</ele>
        <time>2020-07-27T14:41:48Z</time>
      </trkpt>
      <trkpt lat="44.60057" lon="-0.05581">
        <ele>85.69</ele>
        <time>2020-07-27T14:41:51Z</time>
      </trkpt>
      <trkpt lat="44.60052" lon="-0.05556">
        <ele>83.29</ele>
        <time>2020-07-27T14:42:07Z</time>
      </trkpt>
      <trkpt lat="44.60047" lon="-0.05539">
        <ele>82.81</ele>
        <time>2020-07-27T14:42:18Z</time>
      </trkpt>
      <trkpt lat="44.6004" lon="-0.0552">
        <ele>82.81</ele>
        <time>2020-07-27T14:42:36Z</time>
      </trkpt>
      <trkpt lat="44.6004" lon="-0.0554">
        <ele>83.77</ele>
        <time>2020-07-27T14:42:52Z</time>
      </trkpt>
      <trkpt lat="44.6004" lon="-0.05545">
        <ele>83.77</ele>
        <time>2020-07-27T14:43:10Z</time>
      </trkpt>
      <trkpt lat="44.60038" lon="-0.0554">
        <ele>83.77</ele>
        <time>2020-07-27T14:43:37Z</time>
      </trkpt>
      <trkpt lat="44.60038" lon="-0.05534">
        <ele>83.77</ele>
        <time>2020-07-27T14:44:12Z</time>
      </trkpt>
      <trkpt lat="44.60039" lon="-0.05537">
        <ele>84.25</ele>
        <time>2020-07-27T14:44:45Z</time>
      </trkpt>
      <trkpt lat="44.6004" lon="-0.05543">
        <ele>84.25</ele>
        <time>2020-07-27T14:45:13Z</time>
      </trkpt>
      <trkpt lat="44.6004" lon="-0.05543">
        <ele>84.25</ele>
        <time>2020-07-27T14:45:32Z</time>
      </trkpt>
      <trkpt lat="44.60039" lon="-0.05543">
        <ele>84.25</ele>
        <time>2020-07-27T14:46:02Z</time>
      </trkpt>
      <trkpt lat="44.60039" lon="-0.05545">
        <ele>82.81</ele>
        <time>2020-07-27T14:46:30Z</time>
      </trkpt>
      <trkpt lat="44.6004" lon="-0.05543">
        <ele>82.81</ele>
        <time>2020-07-27T14:47:06Z</time>
      </trkpt>
      <trkpt lat="44.6004" lon="-0.05544">
        <ele>82.81</ele>
        <time>2020-07-27T14:47:37Z</time>
      </trkpt>
      <trkpt lat="44.60039" lon="-0.05544">
        <ele>82.81</ele>
        <time>2020-07-27T14:48:05Z</time>
      </trkpt>
      <trkpt lat="44.60039" lon="-0.05543">
        <ele>82.81</ele>
        <time>2020-07-27T14:48:40Z</time>
      </trkpt>
      <trkpt lat="44.60041" lon="-0.05543">
        <ele>82.81</ele>
        <time>2020-07-27T14:49:16Z</time>
      </trkpt>
      <trkpt lat="44.60041" lon="-0.05545">
        <ele>82.81</ele>
        <time>2020-07-27T14:49:47Z</time>
      </trkpt>
      <trkpt lat="44.60038" lon="-0.05546">
        <ele>82.81</ele>
        <time>2020-07-27T14:50:17Z</time>
      </trkpt>
      <trkpt lat="44.60038" lon="-0.05545">
        <ele>82.81</ele>
        <time>2020-07-27T14:50:53Z</time>
      </trkpt>
      <trkpt lat="44.6004" lon="-0.05545">
        <ele>82.81</ele>
        <time>2020-07-27T14:51:26Z</time>
      </trkpt>
      <trkpt lat="44.60041" lon="-0.05545">
        <ele>82.81</ele>
        <time>2020-07-27T14:52:01Z</time>
      </trkpt>
      <trkpt lat="44.60039" lon="-0.05544">
        <ele>82.81</ele>
        <time>2020-07-27T14:52:34Z</time>
      </trkpt>
      <trkpt lat="44.60038" lon="-0.05544">
        <ele>82.81</ele>
        <time>2020-07-27T14:53:07Z</time>
      </trkpt>
      <trkpt lat="44.60039" lon="-0.05546">
        <ele>82.81</ele>
        <time>2020-07-27T14:53:31Z</time>
      </trkpt>
      <trkpt lat="44.60038" lon="-0.05542">
        <ele>84.25</ele>
        <time>2020-07-27T14:53:49Z</time>
      </trkpt>
      <trkpt lat="44.60038" lon="-0.05542">
        <ele>83.77</ele>
        <time>2020-07-27T14:54:23Z</time>
      </trkpt>
      <trkpt lat="44.60039" lon="-0.05543">
        <ele>83.77</ele>
        <time>2020-07-27T14:54:51Z</time>
      </trkpt>
      <trkpt lat="44.60038" lon="-0.05542">
        <ele>83.77</ele>
        <time>2020-07-27T14:55:15Z</time>
      </trkpt>
      <trkpt lat="44.60037" lon="-0.05542">
        <ele>84.25</ele>
        <time>2020-07-27T14:55:39Z</time>
      </trkpt>
      <trkpt lat="44.60039" lon="-0.05537">
        <ele>82.81</ele>
        <time>2020-07-27T14:55:54Z</time>
      </trkpt>
      <trkpt lat="44.60041" lon="-0.0551">
        <ele>82.33</ele>
        <time>2020-07-27T14:56:10Z</time>
      </trkpt>
      <trkpt lat="44.60036" lon="-0.0549">
        <ele>81.37</ele>
        <time>2020-07-27T14:56:23Z</time>
      </trkpt>
      <trkpt lat="44.6003" lon="-0.05463">
        <ele>79.45</ele>
        <time>2020-07-27T14:56:40Z</time>
      </trkpt>
      <trkpt lat="44.60023" lon="-0.05425">
        <ele>79.45</ele>
        <time>2020-07-27T14:57:02Z</time>
      </trkpt>
      <trkpt lat="44.60021" lon="-0.05418">
        <ele>77.52</ele>
        <time>2020-07-27T14:57:06Z</time>
      </trkpt>
      <trkpt lat="44.6002" lon="-0.05412">
        <ele>78.97</ele>
        <time>2020-07-27T14:57:09Z</time>
      </trkpt>
      <trkpt lat="44.60018" lon="-0.05408">
        <ele>77.52</ele>
        <time>2020-07-27T14:57:11Z</time>
      </trkpt>
      <trkpt lat="44.60018" lon="-0.05405">
        <ele>78.97</ele>
        <time>2020-07-27T14:57:13Z</time>
      </trkpt>
      <trkpt lat="44.60016" lon="-0.0539">
        <ele>76.08</ele>
        <time>2020-07-27T14:57:22Z</time>
      </trkpt>
      <trkpt lat="44.60018" lon="-0.05361">
        <ele>77.52</ele>
        <time>2020-07-27T14:57:41Z</time>
      </trkpt>
      <trkpt lat="44.6002" lon="-0.05355">
        <ele>75.6</ele>
        <time>2020-07-27T14:57:44Z</time>
      </trkpt>
      <trkpt lat="44.6002" lon="-0.05351">
        <ele>77.04</ele>
        <time>2020-07-27T14:57:46Z</time>
      </trkpt>
      <trkpt lat="44.60019" lon="-0.05337">
        <ele>75.12</ele>
        <time>2020-07-27T14:57:53Z</time>
      </trkpt>
      <trkpt lat="44.60018" lon="-0.05333">
        <ele>75.12</ele>
        <time>2020-07-27T14:57:56Z</time>
      </trkpt>
      <trkpt lat="44.60017" lon="-0.05332">
        <ele>75.12</ele>
        <time>2020-07-27T14:57:57Z</time>
      </trkpt>
      <trkpt lat="44.60014" lon="-0.05327">
        <ele>73.68</ele>
        <time>2020-07-27T14:58:01Z</time>
      </trkpt>
      <trkpt lat="44.60012" lon="-0.05325">
        <ele>75.12</ele>
        <time>2020-07-27T14:58:03Z</time>
      </trkpt>
      <trkpt lat="44.60009" lon="-0.05321">
        <ele>73.2</ele>
        <time>2020-07-27T14:58:07Z</time>
      </trkpt>
      <trkpt lat="44.60004" lon="-0.05314">
        <ele>71.76</ele>
        <time>2020-07-27T14:58:13Z</time>
      </trkpt>
      <trkpt lat="44.59994" lon="-0.05304">
        <ele>71.27</ele>
        <time>2020-07-27T14:58:22Z</time>
      </trkpt>
      <trkpt lat="44.59982" lon="-0.05288">
        <ele>69.83</ele>
        <time>2020-07-27T14:58:33Z</time>
      </trkpt>
      <trkpt lat="44.59978" lon="-0.05283">
        <ele>69.83</ele>
        <time>2020-07-27T14:58:38Z</time>
      </trkpt>
      <trkpt lat="44.59976" lon="-0.05277">
        <ele>69.35</ele>
        <time>2020-07-27T14:58:43Z</time>
      </trkpt>
      <trkpt lat="44.59974" lon="-0.05269">
        <ele>67.91</ele>
        <time>2020-07-27T14:58:48Z</time>
      </trkpt>
      <trkpt lat="44.59963" lon="-0.05256">
        <ele>68.39</ele>
        <time>2020-07-27T14:58:58Z</time>
      </trkpt>
      <trkpt lat="44.59948" lon="-0.05236">
        <ele>64.55</ele>
        <time>2020-07-27T14:59:14Z</time>
      </trkpt>
      <trkpt lat="44.59947" lon="-0.05235">
        <ele>64.55</ele>
        <time>2020-07-27T14:59:15Z</time>
      </trkpt>
      <trkpt lat="44.59946" lon="-0.05233">
        <ele>66.47</ele>
        <time>2020-07-27T14:59:17Z</time>
      </trkpt>
      <trkpt lat="44.59944" lon="-0.05231">
        <ele>65.03</ele>
        <time>2020-07-27T14:59:19Z</time>
      </trkpt>
      <trkpt lat="44.59936" lon="-0.05223">
        <ele>63.58</ele>
        <time>2020-07-27T14:59:27Z</time>
      </trkpt>
      <trkpt lat="44.59921" lon="-0.05207">
        <ele>61.66</ele>
        <time>2020-07-27T14:59:41Z</time>
      </trkpt>
      <trkpt lat="44.59919" lon="-0.05205">
        <ele>63.1</ele>
        <time>2020-07-27T14:59:43Z</time>
      </trkpt>
      <trkpt lat="44.59915" lon="-0.052">
        <ele>61.66</ele>
        <time>2020-07-27T14:59:48Z</time>
      </trkpt>
      <trkpt lat="44.59899" lon="-0.05187">
        <ele>59.74</ele>
        <time>2020-07-27T15:00:02Z</time>
      </trkpt>
      <trkpt lat="44.59896" lon="-0.05186">
        <ele>61.18</ele>
        <time>2020-07-27T15:00:04Z</time>
      </trkpt>
      <trkpt lat="44.59874" lon="-0.0517">
        <ele>58.78</ele>
        <time>2020-07-27T15:00:22Z</time>
      </trkpt>
      <trkpt lat="44.5986" lon="-0.0516">
        <ele>57.82</ele>
        <time>2020-07-27T15:00:34Z</time>
      </trkpt>
      <trkpt lat="44.59853" lon="-0.05154">
        <ele>57.34</ele>
        <time>2020-07-27T15:00:40Z</time>
      </trkpt>
      <trkpt lat="44.59848" lon="-0.0515">
        <ele>58.78</ele>
        <time>2020-07-27T15:00:45Z</time>
      </trkpt>
      <trkpt lat="44.59837" lon="-0.0514">
        <ele>57.34</ele>
        <time>2020-07-27T15:00:56Z</time>
      </trkpt>
      <trkpt lat="44.59835" lon="-0.05137">
        <ele>58.78</ele>
        <time>2020-07-27T15:00:58Z</time>
      </trkpt>
      <trkpt lat="44.59819" lon="-0.05116">
        <ele>57.34</ele>
        <time>2020-07-27T15:01:16Z</time>
      </trkpt>
      <trkpt lat="44.59818" lon="-0.05115">
        <ele>57.34</ele>
        <time>2020-07-27T15:01:17Z</time>
      </trkpt>
      <trkpt lat="44.59815" lon="-0.05113">
        <ele>58.78</ele>
        <time>2020-07-27T15:01:19Z</time>
      </trkpt>
      <trkpt lat="44.59801" lon="-0.05095">
        <ele>57.82</ele>
        <time>2020-07-27T15:01:32Z</time>
      </trkpt>
      <trkpt lat="44.59793" lon="-0.05085">
        <ele>59.26</ele>
        <time>2020-07-27T15:01:40Z</time>
      </trkpt>
      <trkpt lat="44.59777" lon="-0.05058">
        <ele>59.26</ele>
        <time>2020-07-27T15:01:59Z</time>
      </trkpt>
      <trkpt lat="44.59773" lon="-0.0505">
        <ele>58.78</ele>
        <time>2020-07-27T15:02:04Z</time>
      </trkpt>
      <trkpt lat="44.59772" lon="-0.05048">
        <ele>60.22</ele>
        <time>2020-07-27T15:02:06Z</time>
      </trkpt>
      <trkpt lat="44.5976" lon="-0.05027">
        <ele>59.26</ele>
        <time>2020-07-27T15:02:23Z</time>
      </trkpt>
      <trkpt lat="44.59753" lon="-0.05018">
        <ele>61.18</ele>
        <time>2020-07-27T15:02:30Z</time>
      </trkpt>
      <trkpt lat="44.5974" lon="-0.04989">
        <ele>62.62</ele>
        <time>2020-07-27T15:02:51Z</time>
      </trkpt>
      <trkpt lat="44.59734" lon="-0.0497">
        <ele>63.1</ele>
        <time>2020-07-27T15:03:05Z</time>
      </trkpt>
      <trkpt lat="44.59725" lon="-0.04942">
        <ele>64.07</ele>
        <time>2020-07-27T15:03:23Z</time>
      </trkpt>
      <trkpt lat="44.59718" lon="-0.0491">
        <ele>65.99</ele>
        <time>2020-07-27T15:03:42Z</time>
      </trkpt>
      <trkpt lat="44.59711" lon="-0.04882">
        <ele>66.95</ele>
        <time>2020-07-27T15:04:00Z</time>
      </trkpt>
      <trkpt lat="44.59707" lon="-0.04863">
        <ele>67.91</ele>
        <time>2020-07-27T15:04:16Z</time>
      </trkpt>
      <trkpt lat="44.597" lon="-0.04835">
        <ele>69.35</ele>
        <time>2020-07-27T15:04:36Z</time>
      </trkpt>
      <trkpt lat="44.59693" lon="-0.0481">
        <ele>70.79</ele>
        <time>2020-07-27T15:04:52Z</time>
      </trkpt>
      <trkpt lat="44.59689" lon="-0.04782">
        <ele>72.72</ele>
        <time>2020-07-27T15:05:10Z</time>
      </trkpt>
      <trkpt lat="44.59678" lon="-0.04759">
        <ele>75.12</ele>
        <time>2020-07-27T15:05:27Z</time>
      </trkpt>
      <trkpt lat="44.59675" lon="-0.04746">
        <ele>76.08</ele>
        <time>2020-07-27T15:05:35Z</time>
      </trkpt>
      <trkpt lat="44.59674" lon="-0.04744">
        <ele>76.08</ele>
        <time>2020-07-27T15:05:36Z</time>
      </trkpt>
      <trkpt lat="44.59673" lon="-0.04743">
        <ele>75.6</ele>
        <time>2020-07-27T15:05:37Z</time>
      </trkpt>
      <trkpt lat="44.59658" lon="-0.04728">
        <ele>77.04</ele>
        <time>2020-07-27T15:05:54Z</time>
      </trkpt>
      <trkpt lat="44.59654" lon="-0.04725">
        <ele>77.04</ele>
        <time>2020-07-27T15:05:58Z</time>
      </trkpt>
      <trkpt lat="44.59653" lon="-0.04725">
        <ele>77.04</ele>
        <time>2020-07-27T15:05:59Z</time>
      </trkpt>
      <trkpt lat="44.59648" lon="-0.04725">
        <ele>77.04</ele>
        <time>2020-07-27T15:06:02Z</time>
      </trkpt>
      <trkpt lat="44.59647" lon="-0.04725">
        <ele>78</ele>
        <time>2020-07-27T15:06:03Z</time>
      </trkpt>
      <trkpt lat="44.59646" lon="-0.04724">
        <ele>78</ele>
        <time>2020-07-27T15:06:04Z</time>
      </trkpt>
      <trkpt lat="44.59645" lon="-0.04724">
        <ele>78</ele>
        <time>2020-07-27T15:06:05Z</time>
      </trkpt>
      <trkpt lat="44.59644" lon="-0.04724">
        <ele>78</ele>
        <time>2020-07-27T15:06:06Z</time>
      </trkpt>
      <trkpt lat="44.59624" lon="-0.04723">
        <ele>77.04</ele>
        <time>2020-07-27T15:06:23Z</time>
      </trkpt>
      <trkpt lat="44.59621" lon="-0.04723">
        <ele>78.48</ele>
        <time>2020-07-27T15:06:26Z</time>
      </trkpt>
      <trkpt lat="44.59602" lon="-0.04725">
        <ele>78.97</ele>
        <time>2020-07-27T15:06:42Z</time>
      </trkpt>
      <trkpt lat="44.59579" lon="-0.04728">
        <ele>80.41</ele>
        <time>2020-07-27T15:07:00Z</time>
      </trkpt>
      <trkpt lat="44.59572" lon="-0.04729">
        <ele>80.41</ele>
        <time>2020-07-27T15:07:05Z</time>
      </trkpt>
      <trkpt lat="44.59571" lon="-0.04731">
        <ele>80.41</ele>
        <time>2020-07-27T15:07:06Z</time>
      </trkpt>
      <trkpt lat="44.5957" lon="-0.04731">
        <ele>80.41</ele>
        <time>2020-07-27T15:07:07Z</time>
      </trkpt>
      <trkpt lat="44.59569" lon="-0.04731">
        <ele>80.41</ele>
        <time>2020-07-27T15:07:08Z</time>
      </trkpt>
      <trkpt lat="44.59568" lon="-0.0473">
        <ele>80.41</ele>
        <time>2020-07-27T15:07:09Z</time>
      </trkpt>
      <trkpt lat="44.59566" lon="-0.0473">
        <ele>80.41</ele>
        <time>2020-07-27T15:07:10Z</time>
      </trkpt>
      <trkpt lat="44.59544" lon="-0.04731">
        <ele>79.93</ele>
        <time>2020-07-27T15:07:29Z</time>
      </trkpt>
      <trkpt lat="44.59521" lon="-0.04734">
        <ele>80.41</ele>
        <time>2020-07-27T15:07:47Z</time>
      </trkpt>
      <trkpt lat="44.59515" lon="-0.04734">
        <ele>80.89</ele>
        <time>2020-07-27T15:07:52Z</time>
      </trkpt>
      <trkpt lat="44.59512" lon="-0.04734">
        <ele>82.33</ele>
        <time>2020-07-27T15:07:55Z</time>
      </trkpt>
      <trkpt lat="44.59492" lon="-0.04736">
        <ele>82.33</ele>
        <time>2020-07-27T15:08:12Z</time>
      </trkpt>
      <trkpt lat="44.59476" lon="-0.04741">
        <ele>83.77</ele>
        <time>2020-07-27T15:08:24Z</time>
      </trkpt>
      <trkpt lat="44.59449" lon="-0.04747">
        <ele>83.77</ele>
        <time>2020-07-27T15:08:46Z</time>
      </trkpt>
      <trkpt lat="44.59437" lon="-0.04749">
        <ele>84.73</ele>
        <time>2020-07-27T15:09:04Z</time>
      </trkpt>
      <trkpt lat="44.59436" lon="-0.04752">
        <ele>83.29</ele>
        <time>2020-07-27T15:09:30Z</time>
      </trkpt>
      <trkpt lat="44.59421" lon="-0.04759">
        <ele>83.77</ele>
        <time>2020-07-27T15:09:49Z</time>
      </trkpt>
      <trkpt lat="44.59416" lon="-0.0476">
        <ele>82.33</ele>
        <time>2020-07-27T15:09:53Z</time>
      </trkpt>
      <trkpt lat="44.59408" lon="-0.04761">
        <ele>81.85</ele>
        <time>2020-07-27T15:09:59Z</time>
      </trkpt>
      <trkpt lat="44.59384" lon="-0.04764">
        <ele>81.37</ele>
        <time>2020-07-27T15:10:17Z</time>
      </trkpt>
      <trkpt lat="44.5938" lon="-0.04762">
        <ele>81.37</ele>
        <time>2020-07-27T15:10:35Z</time>
      </trkpt>
      <trkpt lat="44.59376" lon="-0.0476">
        <ele>80.89</ele>
        <time>2020-07-27T15:10:39Z</time>
      </trkpt>
      <trkpt lat="44.59371" lon="-0.04757">
        <ele>82.33</ele>
        <time>2020-07-27T15:10:43Z</time>
      </trkpt>
      <trkpt lat="44.59367" lon="-0.04756">
        <ele>80.89</ele>
        <time>2020-07-27T15:10:47Z</time>
      </trkpt>
      <trkpt lat="44.59343" lon="-0.04747">
        <ele>81.85</ele>
        <time>2020-07-27T15:11:06Z</time>
      </trkpt>
      <trkpt lat="44.59324" lon="-0.04738">
        <ele>81.85</ele>
        <time>2020-07-27T15:11:22Z</time>
      </trkpt>
      <trkpt lat="44.59314" lon="-0.04734">
        <ele>80.89</ele>
        <time>2020-07-27T15:11:30Z</time>
      </trkpt>
      <trkpt lat="44.59311" lon="-0.04734">
        <ele>82.33</ele>
        <time>2020-07-27T15:11:32Z</time>
      </trkpt>
      <trkpt lat="44.59291" lon="-0.04724">
        <ele>81.85</ele>
        <time>2020-07-27T15:11:51Z</time>
      </trkpt>
      <trkpt lat="44.59285" lon="-0.04722">
        <ele>83.29</ele>
        <time>2020-07-27T15:11:57Z</time>
      </trkpt>
      <trkpt lat="44.59276" lon="-0.04721">
        <ele>81.37</ele>
        <time>2020-07-27T15:12:04Z</time>
      </trkpt>
      <trkpt lat="44.59251" lon="-0.04722">
        <ele>80.89</ele>
        <time>2020-07-27T15:12:21Z</time>
      </trkpt>
      <trkpt lat="44.59249" lon="-0.04721">
        <ele>82.33</ele>
        <time>2020-07-27T15:12:23Z</time>
      </trkpt>
      <trkpt lat="44.59233" lon="-0.04719">
        <ele>81.37</ele>
        <time>2020-07-27T15:12:36Z</time>
      </trkpt>
      <trkpt lat="44.59223" lon="-0.04715">
        <ele>82.81</ele>
        <time>2020-07-27T15:12:44Z</time>
      </trkpt>
      <trkpt lat="44.59211" lon="-0.04711">
        <ele>81.37</ele>
        <time>2020-07-27T15:12:58Z</time>
      </trkpt>
      <trkpt lat="44.5919" lon="-0.04697">
        <ele>81.37</ele>
        <time>2020-07-27T15:13:17Z</time>
      </trkpt>
      <trkpt lat="44.59188" lon="-0.04696">
        <ele>81.37</ele>
        <time>2020-07-27T15:13:18Z</time>
      </trkpt>
      <trkpt lat="44.59175" lon="-0.04683">
        <ele>79.93</ele>
        <time>2020-07-27T15:13:33Z</time>
      </trkpt>
      <trkpt lat="44.59152" lon="-0.0466">
        <ele>77.52</ele>
        <time>2020-07-27T15:13:56Z</time>
      </trkpt>
      <trkpt lat="44.59145" lon="-0.04653">
        <ele>76.08</ele>
        <time>2020-07-27T15:14:03Z</time>
      </trkpt>
      <trkpt lat="44.59144" lon="-0.04652">
        <ele>76.08</ele>
        <time>2020-07-27T15:14:04Z</time>
      </trkpt>
      <trkpt lat="44.59143" lon="-0.0465">
        <ele>76.08</ele>
        <time>2020-07-27T15:14:05Z</time>
      </trkpt>
      <trkpt lat="44.59134" lon="-0.04642">
        <ele>75.6</ele>
        <time>2020-07-27T15:14:13Z</time>
      </trkpt>
      <trkpt lat="44.59123" lon="-0.04625">
        <ele>73.68</ele>
        <time>2020-07-27T15:14:27Z</time>
      </trkpt>
      <trkpt lat="44.59122" lon="-0.04625">
        <ele>73.68</ele>
        <time>2020-07-27T15:14:28Z</time>
      </trkpt>
      <trkpt lat="44.59112" lon="-0.04619">
        <ele>72.72</ele>
        <time>2020-07-27T15:14:43Z</time>
      </trkpt>
      <trkpt lat="44.59105" lon="-0.04597">
        <ele>71.27</ele>
        <time>2020-07-27T15:14:57Z</time>
      </trkpt>
      <trkpt lat="44.591" lon="-0.04591">
        <ele>70.31</ele>
        <time>2020-07-27T15:15:02Z</time>
      </trkpt>
      <trkpt lat="44.59095" lon="-0.04583">
        <ele>70.79</ele>
        <time>2020-07-27T15:15:08Z</time>
      </trkpt>
      <trkpt lat="44.59093" lon="-0.04581">
        <ele>69.83</ele>
        <time>2020-07-27T15:15:10Z</time>
      </trkpt>
      <trkpt lat="44.59079" lon="-0.04553">
        <ele>68.39</ele>
        <time>2020-07-27T15:15:30Z</time>
      </trkpt>
      <trkpt lat="44.5907" lon="-0.04541">
        <ele>67.91</ele>
        <time>2020-07-27T15:15:43Z</time>
      </trkpt>
      <trkpt lat="44.59058" lon="-0.04519">
        <ele>65.99</ele>
        <time>2020-07-27T15:15:59Z</time>
      </trkpt>
      <trkpt lat="44.59055" lon="-0.04514">
        <ele>65.51</ele>
        <time>2020-07-27T15:16:03Z</time>
      </trkpt>
      <trkpt lat="44.59054" lon="-0.04511">
        <ele>65.51</ele>
        <time>2020-07-27T15:16:05Z</time>
      </trkpt>
      <trkpt lat="44.59053" lon="-0.0451">
        <ele>65.03</ele>
        <time>2020-07-27T15:16:06Z</time>
      </trkpt>
      <trkpt lat="44.59052" lon="-0.04508">
        <ele>65.03</ele>
        <time>2020-07-27T15:16:07Z</time>
      </trkpt>
      <trkpt lat="44.59047" lon="-0.04502">
        <ele>64.07</ele>
        <time>2020-07-27T15:16:12Z</time>
      </trkpt>
      <trkpt lat="44.59043" lon="-0.04494">
        <ele>63.58</ele>
        <time>2020-07-27T15:16:19Z</time>
      </trkpt>
      <trkpt lat="44.59033" lon="-0.04482">
        <ele>62.62</ele>
        <time>2020-07-27T15:16:31Z</time>
      </trkpt>
      <trkpt lat="44.59025" lon="-0.04472">
        <ele>61.66</ele>
        <time>2020-07-27T15:16:39Z</time>
      </trkpt>
      <trkpt lat="44.59025" lon="-0.0447">
        <ele>61.66</ele>
        <time>2020-07-27T15:16:40Z</time>
      </trkpt>
      <trkpt lat="44.59024" lon="-0.04469">
        <ele>61.66</ele>
        <time>2020-07-27T15:16:41Z</time>
      </trkpt>
      <trkpt lat="44.59012" lon="-0.04449">
        <ele>59.26</ele>
        <time>2020-07-27T15:16:54Z</time>
      </trkpt>
      <trkpt lat="44.5901" lon="-0.04445">
        <ele>60.7</ele>
        <time>2020-07-27T15:16:56Z</time>
      </trkpt>
      <trkpt lat="44.58999" lon="-0.04428">
        <ele>57.34</ele>
        <time>2020-07-27T15:17:09Z</time>
      </trkpt>
      <trkpt lat="44.5898" lon="-0.04408">
        <ele>55.89</ele>
        <time>2020-07-27T15:17:28Z</time>
      </trkpt>
      <trkpt lat="44.58967" lon="-0.04398">
        <ele>52.05</ele>
        <time>2020-07-27T15:17:40Z</time>
      </trkpt>
      <trkpt lat="44.58948" lon="-0.04383">
        <ele>51.09</ele>
        <time>2020-07-27T15:17:56Z</time>
      </trkpt>
      <trkpt lat="44.5893" lon="-0.04366">
        <ele>48.2</ele>
        <time>2020-07-27T15:18:15Z</time>
      </trkpt>
      <trkpt lat="44.58911" lon="-0.04348">
        <ele>47.24</ele>
        <time>2020-07-27T15:18:32Z</time>
      </trkpt>
      <trkpt lat="44.58903" lon="-0.04342">
        <ele>46.28</ele>
        <time>2020-07-27T15:18:39Z</time>
      </trkpt>
      <trkpt lat="44.589" lon="-0.04339">
        <ele>47.24</ele>
        <time>2020-07-27T15:18:42Z</time>
      </trkpt>
      <trkpt lat="44.58898" lon="-0.04337">
        <ele>45.32</ele>
        <time>2020-07-27T15:18:44Z</time>
      </trkpt>
      <trkpt lat="44.58897" lon="-0.04336">
        <ele>46.76</ele>
        <time>2020-07-27T15:18:45Z</time>
      </trkpt>
      <trkpt lat="44.58895" lon="-0.04335">
        <ele>47.24</ele>
        <time>2020-07-27T15:18:46Z</time>
      </trkpt>
      <trkpt lat="44.58894" lon="-0.04334">
        <ele>45.32</ele>
        <time>2020-07-27T15:18:47Z</time>
      </trkpt>
      <trkpt lat="44.58893" lon="-0.04333">
        <ele>46.76</ele>
        <time>2020-07-27T15:18:48Z</time>
      </trkpt>
      <trkpt lat="44.58892" lon="-0.04332">
        <ele>46.76</ele>
        <time>2020-07-27T15:18:49Z</time>
      </trkpt>
      <trkpt lat="44.58891" lon="-0.04332">
        <ele>46.76</ele>
        <time>2020-07-27T15:18:50Z</time>
      </trkpt>
      <trkpt lat="44.5889" lon="-0.04331">
        <ele>46.76</ele>
        <time>2020-07-27T15:18:51Z</time>
      </trkpt>
      <trkpt lat="44.58885" lon="-0.04328">
        <ele>45.8</ele>
        <time>2020-07-27T15:19:03Z</time>
      </trkpt>
      <trkpt lat="44.58884" lon="-0.04327">
        <ele>44.84</ele>
        <time>2020-07-27T15:19:04Z</time>
      </trkpt>
      <trkpt lat="44.5888" lon="-0.04325">
        <ele>44.84</ele>
        <time>2020-07-27T15:19:08Z</time>
      </trkpt>
      <trkpt lat="44.5886" lon="-0.04309">
        <ele>43.88</ele>
        <time>2020-07-27T15:19:25Z</time>
      </trkpt>
      <trkpt lat="44.58837" lon="-0.04287">
        <ele>42.44</ele>
        <time>2020-07-27T15:19:47Z</time>
      </trkpt>
      <trkpt lat="44.58834" lon="-0.04283">
        <ele>40.51</ele>
        <time>2020-07-27T15:19:50Z</time>
      </trkpt>
      <trkpt lat="44.58829" lon="-0.04276">
        <ele>41.47</ele>
        <time>2020-07-27T15:19:55Z</time>
      </trkpt>
      <trkpt lat="44.58827" lon="-0.04274">
        <ele>40.03</ele>
        <time>2020-07-27T15:19:57Z</time>
      </trkpt>
      <trkpt lat="44.58806" lon="-0.04256">
        <ele>37.63</ele>
        <time>2020-07-27T15:20:17Z</time>
      </trkpt>
      <trkpt lat="44.58805" lon="-0.04256">
        <ele>37.63</ele>
        <time>2020-07-27T15:20:18Z</time>
      </trkpt>
      <trkpt lat="44.58803" lon="-0.04255">
        <ele>39.07</ele>
        <time>2020-07-27T15:20:20Z</time>
      </trkpt>
      <trkpt lat="44.58786" lon="-0.04249">
        <ele>37.15</ele>
        <time>2020-07-27T15:20:34Z</time>
      </trkpt>
      <trkpt lat="44.58764" lon="-0.04246">
        <ele>37.15</ele>
        <time>2020-07-27T15:20:55Z</time>
      </trkpt>
      <trkpt lat="44.58755" lon="-0.04245">
        <ele>36.67</ele>
        <time>2020-07-27T15:21:09Z</time>
      </trkpt>
      <trkpt lat="44.5874" lon="-0.04235">
        <ele>35.71</ele>
        <time>2020-07-27T15:21:25Z</time>
      </trkpt>
      <trkpt lat="44.58737" lon="-0.04234">
        <ele>35.71</ele>
        <time>2020-07-27T15:21:28Z</time>
      </trkpt>
      <trkpt lat="44.58736" lon="-0.04234">
        <ele>35.71</ele>
        <time>2020-07-27T15:21:29Z</time>
      </trkpt>
      <trkpt lat="44.58713" lon="-0.0423">
        <ele>34.74</ele>
        <time>2020-07-27T15:21:48Z</time>
      </trkpt>
      <trkpt lat="44.58702" lon="-0.04234">
        <ele>34.74</ele>
        <time>2020-07-27T15:22:05Z</time>
      </trkpt>
      <trkpt lat="44.58685" lon="-0.04234">
        <ele>34.26</ele>
        <time>2020-07-27T15:22:18Z</time>
      </trkpt>
      <trkpt lat="44.58672" lon="-0.04239">
        <ele>34.74</ele>
        <time>2020-07-27T15:22:29Z</time>
      </trkpt>
      <trkpt lat="44.58655" lon="-0.04227">
        <ele>34.26</ele>
        <time>2020-07-27T15:22:44Z</time>
      </trkpt>
      <trkpt lat="44.58654" lon="-0.04226">
        <ele>34.26</ele>
        <time>2020-07-27T15:22:45Z</time>
      </trkpt>
      <trkpt lat="44.58653" lon="-0.04225">
        <ele>34.26</ele>
        <time>2020-07-27T15:22:46Z</time>
      </trkpt>
      <trkpt lat="44.58643" lon="-0.0422">
        <ele>33.78</ele>
        <time>2020-07-27T15:22:53Z</time>
      </trkpt>
      <trkpt lat="44.5863" lon="-0.04214">
        <ele>33.78</ele>
        <time>2020-07-27T15:23:08Z</time>
      </trkpt>
      <trkpt lat="44.58617" lon="-0.04208">
        <ele>33.3</ele>
        <time>2020-07-27T15:23:20Z</time>
      </trkpt>
      <trkpt lat="44.5861" lon="-0.04205">
        <ele>32.34</ele>
        <time>2020-07-27T15:23:27Z</time>
      </trkpt>
      <trkpt lat="44.58609" lon="-0.04205">
        <ele>32.34</ele>
        <time>2020-07-27T15:23:28Z</time>
      </trkpt>
      <trkpt lat="44.58606" lon="-0.04205">
        <ele>33.78</ele>
        <time>2020-07-27T15:23:30Z</time>
      </trkpt>
      <trkpt lat="44.58587" lon="-0.04192">
        <ele>34.74</ele>
        <time>2020-07-27T15:23:46Z</time>
      </trkpt>
      <trkpt lat="44.58573" lon="-0.04171">
        <ele>35.23</ele>
        <time>2020-07-27T15:24:00Z</time>
      </trkpt>
      <trkpt lat="44.58571" lon="-0.04167">
        <ele>33.78</ele>
        <time>2020-07-27T15:24:03Z</time>
      </trkpt>
      <trkpt lat="44.58571" lon="-0.04163">
        <ele>34.74</ele>
        <time>2020-07-27T15:24:05Z</time>
      </trkpt>
      <trkpt lat="44.58555" lon="-0.04153">
        <ele>35.71</ele>
        <time>2020-07-27T15:24:21Z</time>
      </trkpt>
      <trkpt lat="44.5855" lon="-0.04152">
        <ele>34.74</ele>
        <time>2020-07-27T15:24:26Z</time>
      </trkpt>
      <trkpt lat="44.58546" lon="-0.0415">
        <ele>36.19</ele>
        <time>2020-07-27T15:24:29Z</time>
      </trkpt>
      <trkpt lat="44.5854" lon="-0.04136">
        <ele>36.67</ele>
        <time>2020-07-27T15:24:44Z</time>
      </trkpt>
      <trkpt lat="44.58523" lon="-0.0411">
        <ele>37.15</ele>
        <time>2020-07-27T15:25:00Z</time>
      </trkpt>
      <trkpt lat="44.58504" lon="-0.04095">
        <ele>38.11</ele>
        <time>2020-07-27T15:25:18Z</time>
      </trkpt>
      <trkpt lat="44.58498" lon="-0.04091">
        <ele>36.67</ele>
        <time>2020-07-27T15:25:25Z</time>
      </trkpt>
      <trkpt lat="44.58495" lon="-0.04088">
        <ele>38.59</ele>
        <time>2020-07-27T15:25:28Z</time>
      </trkpt>
      <trkpt lat="44.58493" lon="-0.04086">
        <ele>36.67</ele>
        <time>2020-07-27T15:25:30Z</time>
      </trkpt>
      <trkpt lat="44.58479" lon="-0.0407">
        <ele>38.11</ele>
        <time>2020-07-27T15:25:51Z</time>
      </trkpt>
      <trkpt lat="44.58473" lon="-0.0406">
        <ele>38.11</ele>
        <time>2020-07-27T15:26:09Z</time>
      </trkpt>
      <trkpt lat="44.58475" lon="-0.04062">
        <ele>37.63</ele>
        <time>2020-07-27T15:26:34Z</time>
      </trkpt>
      <trkpt lat="44.58482" lon="-0.04046">
        <ele>37.63</ele>
        <time>2020-07-27T15:27:00Z</time>
      </trkpt>
      <trkpt lat="44.58477" lon="-0.04052">
        <ele>37.63</ele>
        <time>2020-07-27T15:27:27Z</time>
      </trkpt>
      <trkpt lat="44.58474" lon="-0.0406">
        <ele>37.63</ele>
        <time>2020-07-27T15:27:55Z</time>
      </trkpt>
      <trkpt lat="44.5847" lon="-0.04067">
        <ele>38.11</ele>
        <time>2020-07-27T15:28:19Z</time>
      </trkpt>
      <trkpt lat="44.58467" lon="-0.04067">
        <ele>38.11</ele>
        <time>2020-07-27T15:28:40Z</time>
      </trkpt>
      <trkpt lat="44.58464" lon="-0.04058">
        <ele>36.67</ele>
        <time>2020-07-27T15:29:05Z</time>
      </trkpt>
      <trkpt lat="44.58465" lon="-0.04056">
        <ele>36.67</ele>
        <time>2020-07-27T15:29:06Z</time>
      </trkpt>
      <trkpt lat="44.58466" lon="-0.04051">
        <ele>36.67</ele>
        <time>2020-07-27T15:29:08Z</time>
      </trkpt>
      <trkpt lat="44.58464" lon="-0.04047">
        <ele>38.11</ele>
        <time>2020-07-27T15:29:11Z</time>
      </trkpt>
      <trkpt lat="44.58451" lon="-0.04046">
        <ele>36.19</ele>
        <time>2020-07-27T15:29:25Z</time>
      </trkpt>
      <trkpt lat="44.58424" lon="-0.04031">
        <ele>35.71</ele>
        <time>2020-07-27T15:29:44Z</time>
      </trkpt>
      <trkpt lat="44.58423" lon="-0.04031">
        <ele>35.71</ele>
        <time>2020-07-27T15:29:45Z</time>
      </trkpt>
      <trkpt lat="44.58421" lon="-0.04031">
        <ele>37.15</ele>
        <time>2020-07-27T15:29:48Z</time>
      </trkpt>
      <trkpt lat="44.58407" lon="-0.04032">
        <ele>35.23</ele>
        <time>2020-07-27T15:30:01Z</time>
      </trkpt>
      <trkpt lat="44.584" lon="-0.04028">
        <ele>36.67</ele>
        <time>2020-07-27T15:30:07Z</time>
      </trkpt>
      <trkpt lat="44.58396" lon="-0.04028">
        <ele>35.23</ele>
        <time>2020-07-27T15:30:11Z</time>
      </trkpt>
      <trkpt lat="44.58381" lon="-0.04018">
        <ele>36.19</ele>
        <time>2020-07-27T15:30:24Z</time>
      </trkpt>
      <trkpt lat="44.58375" lon="-0.04016">
        <ele>36.67</ele>
        <time>2020-07-27T15:30:36Z</time>
      </trkpt>
      <trkpt lat="44.58371" lon="-0.04009">
        <ele>36.67</ele>
        <time>2020-07-27T15:30:49Z</time>
      </trkpt>
      <trkpt lat="44.58364" lon="-0.03999">
        <ele>36.67</ele>
        <time>2020-07-27T15:31:00Z</time>
      </trkpt>
      <trkpt lat="44.58364" lon="-0.03997">
        <ele>36.67</ele>
        <time>2020-07-27T15:31:01Z</time>
      </trkpt>
      <trkpt lat="44.58356" lon="-0.03972">
        <ele>38.11</ele>
        <time>2020-07-27T15:31:17Z</time>
      </trkpt>
      <trkpt lat="44.58339" lon="-0.03965">
        <ele>38.59</ele>
        <time>2020-07-27T15:31:36Z</time>
      </trkpt>
      <trkpt lat="44.58325" lon="-0.03954">
        <ele>40.03</ele>
        <time>2020-07-27T15:31:54Z</time>
      </trkpt>
      <trkpt lat="44.58322" lon="-0.03945">
        <ele>40.51</ele>
        <time>2020-07-27T15:32:10Z</time>
      </trkpt>
      <trkpt lat="44.58314" lon="-0.03929">
        <ele>40.99</ele>
        <time>2020-07-27T15:32:25Z</time>
      </trkpt>
      <trkpt lat="44.5831" lon="-0.03918">
        <ele>39.55</ele>
        <time>2020-07-27T15:32:34Z</time>
      </trkpt>
      <trkpt lat="44.58313" lon="-0.03903">
        <ele>38.59</ele>
        <time>2020-07-27T15:32:55Z</time>
      </trkpt>
      <trkpt lat="44.58298" lon="-0.03875">
        <ele>38.59</ele>
        <time>2020-07-27T15:33:13Z</time>
      </trkpt>
      <trkpt lat="44.58297" lon="-0.03862">
        <ele>37.15</ele>
        <time>2020-07-27T15:33:16Z</time>
      </trkpt>
      <trkpt lat="44.58292" lon="-0.03823">
        <ele>36.67</ele>
        <time>2020-07-27T15:33:37Z</time>
      </trkpt>
      <trkpt lat="44.58292" lon="-0.03816">
        <ele>36.67</ele>
        <time>2020-07-27T15:33:40Z</time>
      </trkpt>
      <trkpt lat="44.58291" lon="-0.03813">
        <ele>36.19</ele>
        <time>2020-07-27T15:33:41Z</time>
      </trkpt>
      <trkpt lat="44.58287" lon="-0.03782">
        <ele>35.71</ele>
        <time>2020-07-27T15:34:00Z</time>
      </trkpt>
      <trkpt lat="44.58274" lon="-0.03764">
        <ele>35.23</ele>
        <time>2020-07-27T15:34:18Z</time>
      </trkpt>
      <trkpt lat="44.58275" lon="-0.03757">
        <ele>34.26</ele>
        <time>2020-07-27T15:34:23Z</time>
      </trkpt>
      <trkpt lat="44.58277" lon="-0.03731">
        <ele>32.82</ele>
        <time>2020-07-27T15:34:42Z</time>
      </trkpt>
      <trkpt lat="44.58276" lon="-0.03729">
        <ele>33.78</ele>
        <time>2020-07-27T15:34:43Z</time>
      </trkpt>
      <trkpt lat="44.58267" lon="-0.037">
        <ele>32.34</ele>
        <time>2020-07-27T15:34:57Z</time>
      </trkpt>
      <trkpt lat="44.58265" lon="-0.03698">
        <ele>31.86</ele>
        <time>2020-07-27T15:34:58Z</time>
      </trkpt>
      <trkpt lat="44.58258" lon="-0.03689">
        <ele>30.9</ele>
        <time>2020-07-27T15:35:06Z</time>
      </trkpt>
      <trkpt lat="44.58256" lon="-0.03685">
        <ele>32.34</ele>
        <time>2020-07-27T15:35:09Z</time>
      </trkpt>
      <trkpt lat="44.58254" lon="-0.03681">
        <ele>30.9</ele>
        <time>2020-07-27T15:35:12Z</time>
      </trkpt>
      <trkpt lat="44.58241" lon="-0.03669">
        <ele>30.9</ele>
        <time>2020-07-27T15:35:27Z</time>
      </trkpt>
      <trkpt lat="44.58242" lon="-0.03662">
        <ele>30.9</ele>
        <time>2020-07-27T15:35:50Z</time>
      </trkpt>
      <trkpt lat="44.58242" lon="-0.03661">
        <ele>30.9</ele>
        <time>2020-07-27T15:36:09Z</time>
      </trkpt>
      <trkpt lat="44.58244" lon="-0.03657">
        <ele>30.9</ele>
        <time>2020-07-27T15:36:31Z</time>
      </trkpt>
      <trkpt lat="44.58243" lon="-0.03656">
        <ele>28.98</ele>
        <time>2020-07-27T15:36:33Z</time>
      </trkpt>
      <trkpt lat="44.58229" lon="-0.03654">
        <ele>30.42</ele>
        <time>2020-07-27T15:36:43Z</time>
      </trkpt>
      <trkpt lat="44.58215" lon="-0.03652">
        <ele>30.42</ele>
        <time>2020-07-27T15:36:58Z</time>
      </trkpt>
      <trkpt lat="44.58207" lon="-0.03632">
        <ele>31.38</ele>
        <time>2020-07-27T15:37:14Z</time>
      </trkpt>
      <trkpt lat="44.58201" lon="-0.03608">
        <ele>31.86</ele>
        <time>2020-07-27T15:37:28Z</time>
      </trkpt>
      <trkpt lat="44.58201" lon="-0.03596">
        <ele>31.38</ele>
        <time>2020-07-27T15:37:44Z</time>
      </trkpt>
      <trkpt lat="44.58196" lon="-0.036">
        <ele>33.3</ele>
        <time>2020-07-27T15:37:48Z</time>
      </trkpt>
      <trkpt lat="44.5817" lon="-0.03593">
        <ele>35.23</ele>
        <time>2020-07-27T15:38:07Z</time>
      </trkpt>
      <trkpt lat="44.58164" lon="-0.03591">
        <ele>35.23</ele>
        <time>2020-07-27T15:38:12Z</time>
      </trkpt>
      <trkpt lat="44.58163" lon="-0.0359">
        <ele>35.23</ele>
        <time>2020-07-27T15:38:13Z</time>
      </trkpt>
      <trkpt lat="44.58151" lon="-0.03582">
        <ele>36.19</ele>
        <time>2020-07-27T15:38:32Z</time>
      </trkpt>
      <trkpt lat="44.58155" lon="-0.03583">
        <ele>36.19</ele>
        <time>2020-07-27T15:38:47Z</time>
      </trkpt>
      <trkpt lat="44.58146" lon="-0.03574">
        <ele>36.67</ele>
        <time>2020-07-27T15:39:02Z</time>
      </trkpt>
      <trkpt lat="44.58138" lon="-0.0356">
        <ele>35.23</ele>
        <time>2020-07-27T15:39:12Z</time>
      </trkpt>
      <trkpt lat="44.58135" lon="-0.03557">
        <ele>36.67</ele>
        <time>2020-07-27T15:39:16Z</time>
      </trkpt>
      <trkpt lat="44.58129" lon="-0.0355">
        <ele>37.15</ele>
        <time>2020-07-27T15:39:31Z</time>
      </trkpt>
    </trkseg>
  </trk>
</gpx>